<?xml version="1.0" encoding="UTF-8" standalone="no" ?>
<gpx xmlns="http://www.topografix.com/GPX/1/1" xmlns:xsi="http://www.w3.org/2001/XMLSchema-instance" xsi:schemaLocation="http://www.topografix.com/GPX/1/1 http://www.topografix.com/GPX/1/1/gpx.xsd" version="1.1" creator="VisuGPX - https://www.visugpx.com">
  <metadata>
    <name>Vieux-Boucau</name>
  </metadata>
  <trk>
    <name><![CDATA[Vieux-Boucau]]></name>
    <extensions>
      <line xmlns="http://www.topografix.com/GPX/gpx_style/0/2">
        <color>0000FF</color>
        <width>4</width>
      </line>
    </extensions>
    <trkseg>
      <trkpt lat="43.7786" lon="-1.41285">
        <ele>-46.626163</ele>
        <time>2021-03-25T09:51:10.000Z</time>
      </trkpt>
      <trkpt lat="43.77856" lon="-1.41287">
        <ele>-46.626163</ele>
        <time>2021-03-25T09:51:12.000Z</time>
      </trkpt>
      <trkpt lat="43.77827" lon="-1.41298">
        <ele>-46.626163</ele>
        <time>2021-03-25T09:51:22.000Z</time>
      </trkpt>
      <trkpt lat="43.77813" lon="-1.41297">
        <ele>-46.626163</ele>
        <time>2021-03-25T09:51:26.000Z</time>
      </trkpt>
      <trkpt lat="43.77803" lon="-1.41294">
        <ele>-46.626163</ele>
        <time>2021-03-25T09:51:29.000Z</time>
      </trkpt>
      <trkpt lat="43.77799" lon="-1.41293">
        <ele>-46.626163</ele>
        <time>2021-03-25T09:51:30.000Z</time>
      </trkpt>
      <trkpt lat="43.77767" lon="-1.41275">
        <ele>-46.639561</ele>
        <time>2021-03-25T09:51:39.000Z</time>
      </trkpt>
      <trkpt lat="43.77754" lon="-1.41263">
        <ele>-46.666941</ele>
        <time>2021-03-25T09:51:43.000Z</time>
      </trkpt>
      <trkpt lat="43.77742" lon="-1.41252">
        <ele>-46.691705</ele>
        <time>2021-03-25T09:51:47.000Z</time>
      </trkpt>
      <trkpt lat="43.77737" lon="-1.41246">
        <ele>-46.703412</ele>
        <time>2021-03-25T09:51:49.000Z</time>
      </trkpt>
      <trkpt lat="43.77715" lon="-1.41226">
        <ele>-46.749659</ele>
        <time>2021-03-25T09:51:57.000Z</time>
      </trkpt>
      <trkpt lat="43.77709" lon="-1.41224">
        <ele>-46.760514</ele>
        <time>2021-03-25T09:51:59.000Z</time>
      </trkpt>
      <trkpt lat="43.77703" lon="-1.41222">
        <ele>-46.771451</ele>
        <time>2021-03-25T09:52:01.000Z</time>
      </trkpt>
      <trkpt lat="43.77696" lon="-1.41221">
        <ele>-46.783686</ele>
        <time>2021-03-25T09:52:03.000Z</time>
      </trkpt>
      <trkpt lat="43.77688" lon="-1.41221">
        <ele>-46.797813</ele>
        <time>2021-03-25T09:52:05.000Z</time>
      </trkpt>
      <trkpt lat="43.77669" lon="-1.41224">
        <ele>-46.831517</ele>
        <time>2021-03-25T09:52:10.000Z</time>
      </trkpt>
      <trkpt lat="43.77666" lon="-1.41224">
        <ele>-46.837355</ele>
        <time>2021-03-25T09:52:11.000Z</time>
      </trkpt>
      <trkpt lat="43.7766" lon="-1.41222">
        <ele>-46.848393</ele>
        <time>2021-03-25T09:52:13.000Z</time>
      </trkpt>
      <trkpt lat="43.77655" lon="-1.41217">
        <ele>-46.859278</ele>
        <time>2021-03-25T09:52:15.000Z</time>
      </trkpt>
      <trkpt lat="43.77649" lon="-1.412">
        <ele>-46.883748</ele>
        <time>2021-03-25T09:52:19.000Z</time>
      </trkpt>
      <trkpt lat="43.7764" lon="-1.41176">
        <ele>-46.917216</ele>
        <time>2021-03-25T09:52:24.000Z</time>
      </trkpt>
      <trkpt lat="43.77629" lon="-1.41162">
        <ele>-46.943896</ele>
        <time>2021-03-25T09:52:28.000Z</time>
      </trkpt>
      <trkpt lat="43.77623" lon="-1.41154">
        <ele>-46.946869</ele>
        <time>2021-03-25T09:52:30.000Z</time>
      </trkpt>
      <trkpt lat="43.77619" lon="-1.41147">
        <ele>-46.949495</ele>
        <time>2021-03-25T09:52:32.000Z</time>
      </trkpt>
      <trkpt lat="43.7761" lon="-1.41141">
        <ele>-46.953068</ele>
        <time>2021-03-25T09:52:35.000Z</time>
      </trkpt>
      <trkpt lat="43.77608" lon="-1.4114">
        <ele>-46.953962</ele>
        <time>2021-03-25T09:52:36.000Z</time>
      </trkpt>
      <trkpt lat="43.77601" lon="-1.41141">
        <ele>-46.956601</ele>
        <time>2021-03-25T09:52:39.000Z</time>
      </trkpt>
      <trkpt lat="43.77599" lon="-1.4114">
        <ele>-46.957322</ele>
        <time>2021-03-25T09:52:40.000Z</time>
      </trkpt>
      <trkpt lat="43.77584" lon="-1.41121">
        <ele>-46.964828</ele>
        <time>2021-03-25T09:52:46.000Z</time>
      </trkpt>
      <trkpt lat="43.77577" lon="-1.41107">
        <ele>-46.96926</ele>
        <time>2021-03-25T09:52:49.000Z</time>
      </trkpt>
      <trkpt lat="43.77572" lon="-1.41093">
        <ele>-46.973638</ele>
        <time>2021-03-25T09:52:52.000Z</time>
      </trkpt>
      <trkpt lat="43.77565" lon="-1.41064">
        <ele>-46.981805</ele>
        <time>2021-03-25T09:52:58.000Z</time>
      </trkpt>
      <trkpt lat="43.77561" lon="-1.41047">
        <ele>-46.986382</ele>
        <time>2021-03-25T09:53:02.000Z</time>
      </trkpt>
      <trkpt lat="43.77551" lon="-1.41007">
        <ele>-46.99776</ele>
        <time>2021-03-25T09:53:09.000Z</time>
      </trkpt>
      <trkpt lat="43.77549" lon="-1.40995">
        <ele>-47.001214</ele>
        <time>2021-03-25T09:53:11.000Z</time>
      </trkpt>
      <trkpt lat="43.77543" lon="-1.40977">
        <ele>-47.006503</ele>
        <time>2021-03-25T09:53:14.000Z</time>
      </trkpt>
      <trkpt lat="43.77542" lon="-1.40968">
        <ele>-47.008885</ele>
        <time>2021-03-25T09:53:16.000Z</time>
      </trkpt>
      <trkpt lat="43.77542" lon="-1.40965">
        <ele>-47.009906</ele>
        <time>2021-03-25T09:53:17.000Z</time>
      </trkpt>
      <trkpt lat="43.77546" lon="-1.40944">
        <ele>-47.003502</ele>
        <time>2021-03-25T09:53:21.000Z</time>
      </trkpt>
      <trkpt lat="43.77547" lon="-1.40927">
        <ele>-46.997493</ele>
        <time>2021-03-25T09:53:25.000Z</time>
      </trkpt>
      <trkpt lat="43.77548" lon="-1.40919">
        <ele>-46.994436</ele>
        <time>2021-03-25T09:53:28.000Z</time>
      </trkpt>
      <trkpt lat="43.77547" lon="-1.40915">
        <ele>-46.993137</ele>
        <time>2021-03-25T09:53:29.000Z</time>
      </trkpt>
      <trkpt lat="43.77536" lon="-1.40892">
        <ele>-46.983259</ele>
        <time>2021-03-25T09:53:35.000Z</time>
      </trkpt>
      <trkpt lat="43.77533" lon="-1.4088">
        <ele>-46.978661</ele>
        <time>2021-03-25T09:53:38.000Z</time>
      </trkpt>
      <trkpt lat="43.77534" lon="-1.40876">
        <ele>-46.977252</ele>
        <time>2021-03-25T09:53:39.000Z</time>
      </trkpt>
      <trkpt lat="43.77532" lon="-1.40857">
        <ele>-46.970443</ele>
        <time>2021-03-25T09:53:43.000Z</time>
      </trkpt>
      <trkpt lat="43.77531" lon="-1.40853">
        <ele>-46.968796</ele>
        <time>2021-03-25T09:53:44.000Z</time>
      </trkpt>
      <trkpt lat="43.77535" lon="-1.40833">
        <ele>-46.96156</ele>
        <time>2021-03-25T09:53:48.000Z</time>
      </trkpt>
      <trkpt lat="43.77542" lon="-1.40798">
        <ele>-46.94862</ele>
        <time>2021-03-25T09:53:54.000Z</time>
      </trkpt>
      <trkpt lat="43.77551" lon="-1.40781">
        <ele>-46.941035</ele>
        <time>2021-03-25T09:53:59.000Z</time>
      </trkpt>
      <trkpt lat="43.77565" lon="-1.40786">
        <ele>-46.934345</ele>
        <time>2021-03-25T09:54:03.000Z</time>
      </trkpt>
      <trkpt lat="43.77579" lon="-1.40799">
        <ele>-46.925755</ele>
        <time>2021-03-25T09:54:09.000Z</time>
      </trkpt>
      <trkpt lat="43.776" lon="-1.40794">
        <ele>-46.900612</ele>
        <time>2021-03-25T09:54:15.000Z</time>
      </trkpt>
      <trkpt lat="43.77618" lon="-1.40769">
        <ele>-46.857992</ele>
        <time>2021-03-25T09:54:21.000Z</time>
      </trkpt>
      <trkpt lat="43.77627" lon="-1.40756">
        <ele>-46.83557</ele>
        <time>2021-03-25T09:54:24.000Z</time>
      </trkpt>
      <trkpt lat="43.77634" lon="-1.40749">
        <ele>-46.820744</ele>
        <time>2021-03-25T09:54:26.000Z</time>
      </trkpt>
      <trkpt lat="43.77641" lon="-1.40743">
        <ele>-46.807089</ele>
        <time>2021-03-25T09:54:28.000Z</time>
      </trkpt>
      <trkpt lat="43.77644" lon="-1.40739">
        <ele>-46.799933</ele>
        <time>2021-03-25T09:54:29.000Z</time>
      </trkpt>
      <trkpt lat="43.77647" lon="-1.40735">
        <ele>-46.792668</ele>
        <time>2021-03-25T09:54:30.000Z</time>
      </trkpt>
      <trkpt lat="43.7765" lon="-1.40731">
        <ele>-46.786005</ele>
        <time>2021-03-25T09:54:31.000Z</time>
      </trkpt>
      <trkpt lat="43.77654" lon="-1.40722">
        <ele>-46.773027</ele>
        <time>2021-03-25T09:54:33.000Z</time>
      </trkpt>
      <trkpt lat="43.77661" lon="-1.40691">
        <ele>-46.734272</ele>
        <time>2021-03-25T09:54:39.000Z</time>
      </trkpt>
      <trkpt lat="43.77666" lon="-1.40641">
        <ele>-46.67207</ele>
        <time>2021-03-25T09:54:49.000Z</time>
      </trkpt>
      <trkpt lat="43.77656" lon="-1.40609">
        <ele>-46.630041</ele>
        <time>2021-03-25T09:54:56.000Z</time>
      </trkpt>
      <trkpt lat="43.77643" lon="-1.40581">
        <ele>-46.602118</ele>
        <time>2021-03-25T09:55:02.000Z</time>
      </trkpt>
      <trkpt lat="43.77625" lon="-1.40546">
        <ele>-46.572361</ele>
        <time>2021-03-25T09:55:09.000Z</time>
      </trkpt>
      <trkpt lat="43.77616" lon="-1.40527">
        <ele>-46.556299</ele>
        <time>2021-03-25T09:55:12.000Z</time>
      </trkpt>
      <trkpt lat="43.77603" lon="-1.405">
        <ele>-46.533857</ele>
        <time>2021-03-25T09:55:16.000Z</time>
      </trkpt>
      <trkpt lat="43.77595" lon="-1.40483">
        <ele>-46.51957</ele>
        <time>2021-03-25T09:55:19.000Z</time>
      </trkpt>
      <trkpt lat="43.77589" lon="-1.40471">
        <ele>-46.509521</ele>
        <time>2021-03-25T09:55:21.000Z</time>
      </trkpt>
      <trkpt lat="43.77577" lon="-1.40448">
        <ele>-46.489956</ele>
        <time>2021-03-25T09:55:26.000Z</time>
      </trkpt>
      <trkpt lat="43.77571" lon="-1.40442">
        <ele>-46.482537</ele>
        <time>2021-03-25T09:55:28.000Z</time>
      </trkpt>
      <trkpt lat="43.77566" lon="-1.40436">
        <ele>-46.476658</ele>
        <time>2021-03-25T09:55:30.000Z</time>
      </trkpt>
      <trkpt lat="43.77553" lon="-1.40422">
        <ele>-46.460676</ele>
        <time>2021-03-25T09:55:35.000Z</time>
      </trkpt>
      <trkpt lat="43.77533" lon="-1.40399">
        <ele>-46.459568</ele>
        <time>2021-03-25T09:55:42.000Z</time>
      </trkpt>
      <trkpt lat="43.7752" lon="-1.40376">
        <ele>-46.488782</ele>
        <time>2021-03-25T09:55:46.000Z</time>
      </trkpt>
      <trkpt lat="43.77517" lon="-1.40365">
        <ele>-46.501471</ele>
        <time>2021-03-25T09:55:48.000Z</time>
      </trkpt>
      <trkpt lat="43.77513" lon="-1.40346">
        <ele>-46.521822</ele>
        <time>2021-03-25T09:55:52.000Z</time>
      </trkpt>
      <trkpt lat="43.77514" lon="-1.40324">
        <ele>-46.54361</ele>
        <time>2021-03-25T09:55:58.000Z</time>
      </trkpt>
      <trkpt lat="43.77512" lon="-1.40314">
        <ele>-46.554055</ele>
        <time>2021-03-25T09:56:00.000Z</time>
      </trkpt>
      <trkpt lat="43.77508" lon="-1.40296">
        <ele>-46.573217</ele>
        <time>2021-03-25T09:56:03.000Z</time>
      </trkpt>
      <trkpt lat="43.77505" lon="-1.40277">
        <ele>-46.593307</ele>
        <time>2021-03-25T09:56:06.000Z</time>
      </trkpt>
      <trkpt lat="43.77505" lon="-1.40271">
        <ele>-46.599547</ele>
        <time>2021-03-25T09:56:07.000Z</time>
      </trkpt>
      <trkpt lat="43.77505" lon="-1.40265">
        <ele>-46.605698</ele>
        <time>2021-03-25T09:56:08.000Z</time>
      </trkpt>
      <trkpt lat="43.77507" lon="-1.40254">
        <ele>-46.617763</ele>
        <time>2021-03-25T09:56:10.000Z</time>
      </trkpt>
      <trkpt lat="43.77509" lon="-1.40242">
        <ele>-46.629915</ele>
        <time>2021-03-25T09:56:12.000Z</time>
      </trkpt>
      <trkpt lat="43.77509" lon="-1.40229">
        <ele>-46.643111</ele>
        <time>2021-03-25T09:56:14.000Z</time>
      </trkpt>
      <trkpt lat="43.77512" lon="-1.40205">
        <ele>-46.668045</ele>
        <time>2021-03-25T09:56:18.000Z</time>
      </trkpt>
      <trkpt lat="43.77515" lon="-1.4019">
        <ele>-46.684358</ele>
        <time>2021-03-25T09:56:21.000Z</time>
      </trkpt>
      <trkpt lat="43.77516" lon="-1.40185">
        <ele>-46.689595</ele>
        <time>2021-03-25T09:56:22.000Z</time>
      </trkpt>
      <trkpt lat="43.77516" lon="-1.40164">
        <ele>-46.670071</ele>
        <time>2021-03-25T09:56:26.000Z</time>
      </trkpt>
      <trkpt lat="43.77502" lon="-1.40124">
        <ele>-46.541349</ele>
        <time>2021-03-25T09:56:34.000Z</time>
      </trkpt>
      <trkpt lat="43.77497" lon="-1.40115">
        <ele>-46.507093</ele>
        <time>2021-03-25T09:56:36.000Z</time>
      </trkpt>
      <trkpt lat="43.77488" lon="-1.40104">
        <ele>-46.459146</ele>
        <time>2021-03-25T09:56:39.000Z</time>
      </trkpt>
      <trkpt lat="43.77485" lon="-1.40101">
        <ele>-46.443887</ele>
        <time>2021-03-25T09:56:40.000Z</time>
      </trkpt>
      <trkpt lat="43.7748" lon="-1.40094">
        <ele>-46.415611</ele>
        <time>2021-03-25T09:56:42.000Z</time>
      </trkpt>
      <trkpt lat="43.77479" lon="-1.4009">
        <ele>-46.40336</ele>
        <time>2021-03-25T09:56:43.000Z</time>
      </trkpt>
      <trkpt lat="43.77478" lon="-1.40086">
        <ele>-46.391969</ele>
        <time>2021-03-25T09:56:44.000Z</time>
      </trkpt>
      <trkpt lat="43.7748" lon="-1.4008">
        <ele>-46.373043</ele>
        <time>2021-03-25T09:56:47.000Z</time>
      </trkpt>
      <trkpt lat="43.7748" lon="-1.40079">
        <ele>-46.370671</ele>
        <time>2021-03-25T09:56:48.000Z</time>
      </trkpt>
      <trkpt lat="43.77481" lon="-1.40076">
        <ele>-46.36012</ele>
        <time>2021-03-25T09:56:52.000Z</time>
      </trkpt>
      <trkpt lat="43.77483" lon="-1.40075">
        <ele>-46.351811</ele>
        <time>2021-03-25T09:56:53.000Z</time>
      </trkpt>
      <trkpt lat="43.77488" lon="-1.40066">
        <ele>-46.320576</ele>
        <time>2021-03-25T09:56:56.000Z</time>
      </trkpt>
      <trkpt lat="43.77489" lon="-1.40063">
        <ele>-46.308718</ele>
        <time>2021-03-25T09:56:57.000Z</time>
      </trkpt>
      <trkpt lat="43.77493" lon="-1.40055">
        <ele>-46.28288</ele>
        <time>2021-03-25T09:56:59.000Z</time>
      </trkpt>
      <trkpt lat="43.77495" lon="-1.40049">
        <ele>-46.261785</ele>
        <time>2021-03-25T09:57:01.000Z</time>
      </trkpt>
      <trkpt lat="43.77496" lon="-1.40046">
        <ele>-46.252741</ele>
        <time>2021-03-25T09:57:02.000Z</time>
      </trkpt>
      <trkpt lat="43.77496" lon="-1.40043">
        <ele>-46.244494</ele>
        <time>2021-03-25T09:57:03.000Z</time>
      </trkpt>
      <trkpt lat="43.77493" lon="-1.40036">
        <ele>-46.218809</ele>
        <time>2021-03-25T09:57:06.000Z</time>
      </trkpt>
      <trkpt lat="43.77474" lon="-1.40022">
        <ele>-46.134791</ele>
        <time>2021-03-25T09:57:12.000Z</time>
      </trkpt>
      <trkpt lat="43.77452" lon="-1.40003">
        <ele>-46.029257</ele>
        <time>2021-03-25T09:57:19.000Z</time>
      </trkpt>
      <trkpt lat="43.77428" lon="-1.39989">
        <ele>-45.980478</ele>
        <time>2021-03-25T09:57:26.000Z</time>
      </trkpt>
      <trkpt lat="43.77413" lon="-1.3998">
        <ele>-45.989245</ele>
        <time>2021-03-25T09:57:31.000Z</time>
      </trkpt>
      <trkpt lat="43.77398" lon="-1.39971">
        <ele>-45.997437</ele>
        <time>2021-03-25T09:57:36.000Z</time>
      </trkpt>
      <trkpt lat="43.77389" lon="-1.39958">
        <ele>-46.004458</ele>
        <time>2021-03-25T09:57:41.000Z</time>
      </trkpt>
      <trkpt lat="43.77382" lon="-1.39951">
        <ele>-46.00871</ele>
        <time>2021-03-25T09:57:46.000Z</time>
      </trkpt>
      <trkpt lat="43.77381" lon="-1.3995">
        <ele>-46.009229</ele>
        <time>2021-03-25T09:57:47.000Z</time>
      </trkpt>
      <trkpt lat="43.77381" lon="-1.39948">
        <ele>-46.009986</ele>
        <time>2021-03-25T09:57:55.000Z</time>
      </trkpt>
      <trkpt lat="43.77381" lon="-1.39948">
        <ele>-46.009986</ele>
        <time>2021-03-25T09:58:04.000Z</time>
      </trkpt>
      <trkpt lat="43.77381" lon="-1.39948">
        <ele>-46.009986</ele>
        <time>2021-03-25T09:58:07.000Z</time>
      </trkpt>
      <trkpt lat="43.77381" lon="-1.39948">
        <ele>-46.009986</ele>
        <time>2021-03-25T09:58:15.000Z</time>
      </trkpt>
      <trkpt lat="43.77381" lon="-1.39948">
        <ele>-46.009986</ele>
        <time>2021-03-25T09:58:23.000Z</time>
      </trkpt>
      <trkpt lat="43.7738" lon="-1.39946">
        <ele>-46.010833</ele>
        <time>2021-03-25T09:58:28.000Z</time>
      </trkpt>
      <trkpt lat="43.77378" lon="-1.39942">
        <ele>-46.012831</ele>
        <time>2021-03-25T09:58:30.000Z</time>
      </trkpt>
      <trkpt lat="43.77376" lon="-1.39938">
        <ele>-46.014529</ele>
        <time>2021-03-25T09:58:32.000Z</time>
      </trkpt>
      <trkpt lat="43.77376" lon="-1.39933">
        <ele>-46.016516</ele>
        <time>2021-03-25T09:58:34.000Z</time>
      </trkpt>
      <trkpt lat="43.77377" lon="-1.3993">
        <ele>-46.017761</ele>
        <time>2021-03-25T09:58:35.000Z</time>
      </trkpt>
      <trkpt lat="43.77383" lon="-1.39916">
        <ele>-46.023688</ele>
        <time>2021-03-25T09:58:39.000Z</time>
      </trkpt>
      <trkpt lat="43.77387" lon="-1.39903">
        <ele>-46.028772</ele>
        <time>2021-03-25T09:58:42.000Z</time>
      </trkpt>
      <trkpt lat="43.774" lon="-1.39879">
        <ele>-46.039926</ele>
        <time>2021-03-25T09:58:48.000Z</time>
      </trkpt>
      <trkpt lat="43.77408" lon="-1.39862">
        <ele>-46.047725</ele>
        <time>2021-03-25T09:58:52.000Z</time>
      </trkpt>
      <trkpt lat="43.77411" lon="-1.39854">
        <ele>-46.050954</ele>
        <time>2021-03-25T09:58:54.000Z</time>
      </trkpt>
      <trkpt lat="43.77423" lon="-1.3983">
        <ele>-46.061898</ele>
        <time>2021-03-25T09:59:00.000Z</time>
      </trkpt>
      <trkpt lat="43.77433" lon="-1.39797">
        <ele>-45.977919</ele>
        <time>2021-03-25T09:59:08.000Z</time>
      </trkpt>
      <trkpt lat="43.77433" lon="-1.39773">
        <ele>-45.8809</ele>
        <time>2021-03-25T09:59:14.000Z</time>
      </trkpt>
      <trkpt lat="43.77428" lon="-1.39757">
        <ele>-45.809767</ele>
        <time>2021-03-25T09:59:19.000Z</time>
      </trkpt>
      <trkpt lat="43.77422" lon="-1.3975">
        <ele>-45.768956</ele>
        <time>2021-03-25T09:59:22.000Z</time>
      </trkpt>
      <trkpt lat="43.77421" lon="-1.39745">
        <ele>-45.746605</ele>
        <time>2021-03-25T09:59:24.000Z</time>
      </trkpt>
      <trkpt lat="43.77421" lon="-1.39737">
        <ele>-45.711009</ele>
        <time>2021-03-25T09:59:27.000Z</time>
      </trkpt>
      <trkpt lat="43.77423" lon="-1.39729">
        <ele>-45.678387</ele>
        <time>2021-03-25T09:59:30.000Z</time>
      </trkpt>
      <trkpt lat="43.77421" lon="-1.39717">
        <ele>-45.631356</ele>
        <time>2021-03-25T09:59:34.000Z</time>
      </trkpt>
      <trkpt lat="43.77418" lon="-1.39706">
        <ele>-45.581346</ele>
        <time>2021-03-25T09:59:37.000Z</time>
      </trkpt>
      <trkpt lat="43.77414" lon="-1.39677">
        <ele>-45.464012</ele>
        <time>2021-03-25T09:59:43.000Z</time>
      </trkpt>
      <trkpt lat="43.77412" lon="-1.39648">
        <ele>-45.34439</ele>
        <time>2021-03-25T09:59:49.000Z</time>
      </trkpt>
      <trkpt lat="43.7741" lon="-1.39628">
        <ele>-45.262408</ele>
        <time>2021-03-25T09:59:53.000Z</time>
      </trkpt>
      <trkpt lat="43.77414" lon="-1.39595">
        <ele>-45.12549</ele>
        <time>2021-03-25T10:00:00.000Z</time>
      </trkpt>
      <trkpt lat="43.77421" lon="-1.39559">
        <ele>-45.028556</ele>
        <time>2021-03-25T10:00:07.000Z</time>
      </trkpt>
      <trkpt lat="43.77425" lon="-1.39538">
        <ele>-44.997138</ele>
        <time>2021-03-25T10:00:12.000Z</time>
      </trkpt>
      <trkpt lat="43.77421" lon="-1.3952">
        <ele>-44.970778</ele>
        <time>2021-03-25T10:00:16.000Z</time>
      </trkpt>
      <trkpt lat="43.77401" lon="-1.39504">
        <ele>-44.92651</ele>
        <time>2021-03-25T10:00:22.000Z</time>
      </trkpt>
      <trkpt lat="43.77378" lon="-1.39488">
        <ele>-44.876816</ele>
        <time>2021-03-25T10:00:31.000Z</time>
      </trkpt>
      <trkpt lat="43.77378" lon="-1.39488">
        <ele>-44.875991</ele>
        <time>2021-03-25T10:00:36.000Z</time>
      </trkpt>
      <trkpt lat="43.77378" lon="-1.39488">
        <ele>-44.875991</ele>
        <time>2021-03-25T10:00:45.000Z</time>
      </trkpt>
      <trkpt lat="43.77378" lon="-1.39488">
        <ele>-44.875991</ele>
        <time>2021-03-25T10:00:49.000Z</time>
      </trkpt>
      <trkpt lat="43.77378" lon="-1.39488">
        <ele>-44.875991</ele>
        <time>2021-03-25T10:00:57.000Z</time>
      </trkpt>
      <trkpt lat="43.77378" lon="-1.39488">
        <ele>-44.875991</ele>
        <time>2021-03-25T10:01:02.000Z</time>
      </trkpt>
      <trkpt lat="43.77377" lon="-1.39488">
        <ele>-44.875578</ele>
        <time>2021-03-25T10:01:04.000Z</time>
      </trkpt>
      <trkpt lat="43.77371" lon="-1.39482">
        <ele>-44.86006</ele>
        <time>2021-03-25T10:01:07.000Z</time>
      </trkpt>
      <trkpt lat="43.77362" lon="-1.39476">
        <ele>-44.84159</ele>
        <time>2021-03-25T10:01:10.000Z</time>
      </trkpt>
      <trkpt lat="43.7734" lon="-1.39464">
        <ele>-44.795014</ele>
        <time>2021-03-25T10:01:17.000Z</time>
      </trkpt>
      <trkpt lat="43.77315" lon="-1.39446">
        <ele>-44.740659</ele>
        <time>2021-03-25T10:01:24.000Z</time>
      </trkpt>
      <trkpt lat="43.773" lon="-1.39436">
        <ele>-44.708346</ele>
        <time>2021-03-25T10:01:28.000Z</time>
      </trkpt>
      <trkpt lat="43.77296" lon="-1.39434">
        <ele>-44.690034</ele>
        <time>2021-03-25T10:01:29.000Z</time>
      </trkpt>
      <trkpt lat="43.77271" lon="-1.39425">
        <ele>-44.559336</ele>
        <time>2021-03-25T10:01:35.000Z</time>
      </trkpt>
      <trkpt lat="43.77266" lon="-1.39423">
        <ele>-44.53397</ele>
        <time>2021-03-25T10:01:36.000Z</time>
      </trkpt>
      <trkpt lat="43.77259" lon="-1.3942">
        <ele>-44.496633</ele>
        <time>2021-03-25T10:01:38.000Z</time>
      </trkpt>
      <trkpt lat="43.77246" lon="-1.39411">
        <ele>-44.423134</ele>
        <time>2021-03-25T10:01:42.000Z</time>
      </trkpt>
      <trkpt lat="43.77235" lon="-1.39403">
        <ele>-44.363272</ele>
        <time>2021-03-25T10:01:45.000Z</time>
      </trkpt>
      <trkpt lat="43.77232" lon="-1.39401">
        <ele>-44.342456</ele>
        <time>2021-03-25T10:01:46.000Z</time>
      </trkpt>
      <trkpt lat="43.77204" lon="-1.39386">
        <ele>-44.192639</ele>
        <time>2021-03-25T10:01:53.000Z</time>
      </trkpt>
      <trkpt lat="43.77184" lon="-1.39375">
        <ele>-44.084298</ele>
        <time>2021-03-25T10:01:59.000Z</time>
      </trkpt>
      <trkpt lat="43.77161" lon="-1.39359">
        <ele>-43.956458</ele>
        <time>2021-03-25T10:02:05.000Z</time>
      </trkpt>
      <trkpt lat="43.77141" lon="-1.39347">
        <ele>-43.847893</ele>
        <time>2021-03-25T10:02:10.000Z</time>
      </trkpt>
      <trkpt lat="43.77134" lon="-1.3934">
        <ele>-43.804594</ele>
        <time>2021-03-25T10:02:12.000Z</time>
      </trkpt>
      <trkpt lat="43.77121" lon="-1.39333">
        <ele>-43.792444</ele>
        <time>2021-03-25T10:02:15.000Z</time>
      </trkpt>
      <trkpt lat="43.77086" lon="-1.39319">
        <ele>-43.759344</ele>
        <time>2021-03-25T10:02:24.000Z</time>
      </trkpt>
      <trkpt lat="43.77079" lon="-1.39316">
        <ele>-43.753165</ele>
        <time>2021-03-25T10:02:26.000Z</time>
      </trkpt>
      <trkpt lat="43.77061" lon="-1.39307">
        <ele>-43.735894</ele>
        <time>2021-03-25T10:02:30.000Z</time>
      </trkpt>
      <trkpt lat="43.77056" lon="-1.39304">
        <ele>-43.73128</ele>
        <time>2021-03-25T10:02:31.000Z</time>
      </trkpt>
      <trkpt lat="43.77047" lon="-1.39299">
        <ele>-43.722578</ele>
        <time>2021-03-25T10:02:33.000Z</time>
      </trkpt>
      <trkpt lat="43.77039" lon="-1.39291">
        <ele>-43.713404</ele>
        <time>2021-03-25T10:02:35.000Z</time>
      </trkpt>
      <trkpt lat="43.77034" lon="-1.39287">
        <ele>-43.708562</ele>
        <time>2021-03-25T10:02:36.000Z</time>
      </trkpt>
      <trkpt lat="43.77026" lon="-1.39286">
        <ele>-43.700812</ele>
        <time>2021-03-25T10:02:38.000Z</time>
      </trkpt>
      <trkpt lat="43.77021" lon="-1.39288">
        <ele>-43.696474</ele>
        <time>2021-03-25T10:02:39.000Z</time>
      </trkpt>
      <trkpt lat="43.77008" lon="-1.39295">
        <ele>-43.683862</ele>
        <time>2021-03-25T10:02:42.000Z</time>
      </trkpt>
      <trkpt lat="43.76999" lon="-1.39299">
        <ele>-43.675984</ele>
        <time>2021-03-25T10:02:44.000Z</time>
      </trkpt>
      <trkpt lat="43.7699" lon="-1.39304">
        <ele>-43.667024</ele>
        <time>2021-03-25T10:02:46.000Z</time>
      </trkpt>
      <trkpt lat="43.76981" lon="-1.39309">
        <ele>-43.658504</ele>
        <time>2021-03-25T10:02:48.000Z</time>
      </trkpt>
      <trkpt lat="43.76964" lon="-1.3932">
        <ele>-43.637537</ele>
        <time>2021-03-25T10:02:52.000Z</time>
      </trkpt>
      <trkpt lat="43.76938" lon="-1.39336">
        <ele>-43.56013</ele>
        <time>2021-03-25T10:02:58.000Z</time>
      </trkpt>
      <trkpt lat="43.76934" lon="-1.39339">
        <ele>-43.54837</ele>
        <time>2021-03-25T10:02:59.000Z</time>
      </trkpt>
      <trkpt lat="43.7693" lon="-1.39341">
        <ele>-43.535156</ele>
        <time>2021-03-25T10:03:00.000Z</time>
      </trkpt>
      <trkpt lat="43.76898" lon="-1.39351">
        <ele>-43.447586</ele>
        <time>2021-03-25T10:03:06.000Z</time>
      </trkpt>
      <trkpt lat="43.76879" lon="-1.39359">
        <ele>-43.393313</ele>
        <time>2021-03-25T10:03:10.000Z</time>
      </trkpt>
      <trkpt lat="43.76874" lon="-1.39359">
        <ele>-43.378889</ele>
        <time>2021-03-25T10:03:11.000Z</time>
      </trkpt>
      <trkpt lat="43.76869" lon="-1.39359">
        <ele>-43.364736</ele>
        <time>2021-03-25T10:03:12.000Z</time>
      </trkpt>
      <trkpt lat="43.76843" lon="-1.39364">
        <ele>-43.29362</ele>
        <time>2021-03-25T10:03:18.000Z</time>
      </trkpt>
      <trkpt lat="43.7682" lon="-1.39365">
        <ele>-43.231703</ele>
        <time>2021-03-25T10:03:23.000Z</time>
      </trkpt>
      <trkpt lat="43.76779" lon="-1.3936">
        <ele>-43.182365</ele>
        <time>2021-03-25T10:03:31.000Z</time>
      </trkpt>
      <trkpt lat="43.76763" lon="-1.39357">
        <ele>-43.217405</ele>
        <time>2021-03-25T10:03:34.000Z</time>
      </trkpt>
      <trkpt lat="43.76748" lon="-1.39354">
        <ele>-43.252027</ele>
        <time>2021-03-25T10:03:37.000Z</time>
      </trkpt>
      <trkpt lat="43.7673" lon="-1.39348">
        <ele>-43.29071</ele>
        <time>2021-03-25T10:03:41.000Z</time>
      </trkpt>
      <trkpt lat="43.76722" lon="-1.39345">
        <ele>-43.310156</ele>
        <time>2021-03-25T10:03:43.000Z</time>
      </trkpt>
      <trkpt lat="43.76717" lon="-1.39343">
        <ele>-43.320026</ele>
        <time>2021-03-25T10:03:44.000Z</time>
      </trkpt>
      <trkpt lat="43.76695" lon="-1.3933">
        <ele>-43.371361</ele>
        <time>2021-03-25T10:03:49.000Z</time>
      </trkpt>
      <trkpt lat="43.76657" lon="-1.39312">
        <ele>-43.459576</ele>
        <time>2021-03-25T10:03:57.000Z</time>
      </trkpt>
      <trkpt lat="43.76613" lon="-1.39292">
        <ele>-43.50848</ele>
        <time>2021-03-25T10:04:05.000Z</time>
      </trkpt>
      <trkpt lat="43.76595" lon="-1.39282">
        <ele>-43.398163</ele>
        <time>2021-03-25T10:04:09.000Z</time>
      </trkpt>
      <trkpt lat="43.76588" lon="-1.3928">
        <ele>-43.355498</ele>
        <time>2021-03-25T10:04:11.000Z</time>
      </trkpt>
      <trkpt lat="43.76571" lon="-1.39272">
        <ele>-43.258726</ele>
        <time>2021-03-25T10:04:16.000Z</time>
      </trkpt>
      <trkpt lat="43.76562" lon="-1.39272">
        <ele>-43.208897</ele>
        <time>2021-03-25T10:04:20.000Z</time>
      </trkpt>
      <trkpt lat="43.76559" lon="-1.3927">
        <ele>-43.186711</ele>
        <time>2021-03-25T10:04:21.000Z</time>
      </trkpt>
      <trkpt lat="43.76537" lon="-1.39256">
        <ele>-43.052911</ele>
        <time>2021-03-25T10:04:27.000Z</time>
      </trkpt>
      <trkpt lat="43.76513" lon="-1.39241">
        <ele>-42.905908</ele>
        <time>2021-03-25T10:04:32.000Z</time>
      </trkpt>
      <trkpt lat="43.76505" lon="-1.39235">
        <ele>-42.853562</ele>
        <time>2021-03-25T10:04:34.000Z</time>
      </trkpt>
      <trkpt lat="43.76496" lon="-1.39232">
        <ele>-42.801899</ele>
        <time>2021-03-25T10:04:36.000Z</time>
      </trkpt>
      <trkpt lat="43.76478" lon="-1.39224">
        <ele>-42.697302</ele>
        <time>2021-03-25T10:04:40.000Z</time>
      </trkpt>
      <trkpt lat="43.7647" lon="-1.39219">
        <ele>-42.645856</ele>
        <time>2021-03-25T10:04:42.000Z</time>
      </trkpt>
      <trkpt lat="43.76461" lon="-1.39215">
        <ele>-42.594028</ele>
        <time>2021-03-25T10:04:44.000Z</time>
      </trkpt>
      <trkpt lat="43.76457" lon="-1.39214">
        <ele>-42.572213</ele>
        <time>2021-03-25T10:04:45.000Z</time>
      </trkpt>
      <trkpt lat="43.76453" lon="-1.39211">
        <ele>-42.548493</ele>
        <time>2021-03-25T10:04:46.000Z</time>
      </trkpt>
      <trkpt lat="43.76448" lon="-1.39208">
        <ele>-42.523983</ele>
        <time>2021-03-25T10:04:47.000Z</time>
      </trkpt>
      <trkpt lat="43.76444" lon="-1.39205">
        <ele>-42.502651</ele>
        <time>2021-03-25T10:04:48.000Z</time>
      </trkpt>
      <trkpt lat="43.76427" lon="-1.39198">
        <ele>-42.429098</ele>
        <time>2021-03-25T10:04:51.000Z</time>
      </trkpt>
      <trkpt lat="43.76423" lon="-1.39196">
        <ele>-42.410871</ele>
        <time>2021-03-25T10:04:52.000Z</time>
      </trkpt>
      <trkpt lat="43.76396" lon="-1.39178">
        <ele>-42.288033</ele>
        <time>2021-03-25T10:04:58.000Z</time>
      </trkpt>
      <trkpt lat="43.76362" lon="-1.39165">
        <ele>-42.141726</ele>
        <time>2021-03-25T10:05:06.000Z</time>
      </trkpt>
      <trkpt lat="43.7632" lon="-1.39143">
        <ele>-41.955179</ele>
        <time>2021-03-25T10:05:15.000Z</time>
      </trkpt>
      <trkpt lat="43.76285" lon="-1.39125">
        <ele>-41.800888</ele>
        <time>2021-03-25T10:05:24.000Z</time>
      </trkpt>
      <trkpt lat="43.76283" lon="-1.39124">
        <ele>-41.793707</ele>
        <time>2021-03-25T10:05:28.000Z</time>
      </trkpt>
      <trkpt lat="43.76283" lon="-1.39124">
        <ele>-41.793707</ele>
        <time>2021-03-25T10:05:33.000Z</time>
      </trkpt>
      <trkpt lat="43.76283" lon="-1.39124">
        <ele>-41.793707</ele>
        <time>2021-03-25T10:05:37.000Z</time>
      </trkpt>
      <trkpt lat="43.76283" lon="-1.39124">
        <ele>-41.793707</ele>
        <time>2021-03-25T10:05:40.000Z</time>
      </trkpt>
      <trkpt lat="43.76282" lon="-1.39122">
        <ele>-41.792146</ele>
        <time>2021-03-25T10:05:47.000Z</time>
      </trkpt>
      <trkpt lat="43.76281" lon="-1.39121">
        <ele>-41.791761</ele>
        <time>2021-03-25T10:05:48.000Z</time>
      </trkpt>
      <trkpt lat="43.76274" lon="-1.39114">
        <ele>-41.789552</ele>
        <time>2021-03-25T10:05:52.000Z</time>
      </trkpt>
      <trkpt lat="43.76268" lon="-1.3911">
        <ele>-41.788037</ele>
        <time>2021-03-25T10:05:54.000Z</time>
      </trkpt>
      <trkpt lat="43.76265" lon="-1.39111">
        <ele>-41.787272</ele>
        <time>2021-03-25T10:05:55.000Z</time>
      </trkpt>
      <trkpt lat="43.76259" lon="-1.39115">
        <ele>-41.785694</ele>
        <time>2021-03-25T10:05:57.000Z</time>
      </trkpt>
      <trkpt lat="43.7625" lon="-1.39124">
        <ele>-41.782811</ele>
        <time>2021-03-25T10:06:00.000Z</time>
      </trkpt>
      <trkpt lat="43.76236" lon="-1.39137">
        <ele>-41.778759</ele>
        <time>2021-03-25T10:06:04.000Z</time>
      </trkpt>
      <trkpt lat="43.76228" lon="-1.39143">
        <ele>-41.77662</ele>
        <time>2021-03-25T10:06:06.000Z</time>
      </trkpt>
      <trkpt lat="43.7622" lon="-1.3915">
        <ele>-41.77427</ele>
        <time>2021-03-25T10:06:08.000Z</time>
      </trkpt>
      <trkpt lat="43.76212" lon="-1.39158">
        <ele>-41.771851</ele>
        <time>2021-03-25T10:06:10.000Z</time>
      </trkpt>
      <trkpt lat="43.76183" lon="-1.39182">
        <ele>-41.763577</ele>
        <time>2021-03-25T10:06:17.000Z</time>
      </trkpt>
      <trkpt lat="43.76174" lon="-1.3919">
        <ele>-41.760907</ele>
        <time>2021-03-25T10:06:19.000Z</time>
      </trkpt>
      <trkpt lat="43.76151" lon="-1.39211">
        <ele>-41.754199</ele>
        <time>2021-03-25T10:06:24.000Z</time>
      </trkpt>
      <trkpt lat="43.76137" lon="-1.3922">
        <ele>-41.750303</ele>
        <time>2021-03-25T10:06:27.000Z</time>
      </trkpt>
      <trkpt lat="43.76131" lon="-1.39224">
        <ele>-41.748788</ele>
        <time>2021-03-25T10:06:28.000Z</time>
      </trkpt>
      <trkpt lat="43.76119" lon="-1.39234">
        <ele>-41.73782</ele>
        <time>2021-03-25T10:06:31.000Z</time>
      </trkpt>
      <trkpt lat="43.76115" lon="-1.39238">
        <ele>-41.733362</ele>
        <time>2021-03-25T10:06:32.000Z</time>
      </trkpt>
      <trkpt lat="43.76106" lon="-1.39245">
        <ele>-41.724437</ele>
        <time>2021-03-25T10:06:34.000Z</time>
      </trkpt>
      <trkpt lat="43.7609" lon="-1.39258">
        <ele>-41.708268</ele>
        <time>2021-03-25T10:06:38.000Z</time>
      </trkpt>
      <trkpt lat="43.76078" lon="-1.39267">
        <ele>-41.697082</ele>
        <time>2021-03-25T10:06:41.000Z</time>
      </trkpt>
      <trkpt lat="43.76067" lon="-1.39276">
        <ele>-41.685636</ele>
        <time>2021-03-25T10:06:44.000Z</time>
      </trkpt>
      <trkpt lat="43.7605" lon="-1.39288">
        <ele>-41.669433</ele>
        <time>2021-03-25T10:06:48.000Z</time>
      </trkpt>
      <trkpt lat="43.76037" lon="-1.39299">
        <ele>-41.656367</ele>
        <time>2021-03-25T10:06:51.000Z</time>
      </trkpt>
      <trkpt lat="43.76028" lon="-1.39306">
        <ele>-41.647345</ele>
        <time>2021-03-25T10:06:53.000Z</time>
      </trkpt>
      <trkpt lat="43.76023" lon="-1.39311">
        <ele>-41.642424</ele>
        <time>2021-03-25T10:06:54.000Z</time>
      </trkpt>
      <trkpt lat="43.76003" lon="-1.39328">
        <ele>-41.622395</ele>
        <time>2021-03-25T10:06:58.000Z</time>
      </trkpt>
      <trkpt lat="43.75993" lon="-1.39337">
        <ele>-41.611567</ele>
        <time>2021-03-25T10:07:01.000Z</time>
      </trkpt>
      <trkpt lat="43.75975" lon="-1.39353">
        <ele>-41.593553</ele>
        <time>2021-03-25T10:07:06.000Z</time>
      </trkpt>
      <trkpt lat="43.75963" lon="-1.39363">
        <ele>-41.583329</ele>
        <time>2021-03-25T10:07:09.000Z</time>
      </trkpt>
      <trkpt lat="43.75954" lon="-1.39371">
        <ele>-41.575529</ele>
        <time>2021-03-25T10:07:11.000Z</time>
      </trkpt>
      <trkpt lat="43.7595" lon="-1.39375">
        <ele>-41.572099</ele>
        <time>2021-03-25T10:07:12.000Z</time>
      </trkpt>
      <trkpt lat="43.75929" lon="-1.39392">
        <ele>-41.554369</ele>
        <time>2021-03-25T10:07:17.000Z</time>
      </trkpt>
      <trkpt lat="43.7592" lon="-1.39397">
        <ele>-41.547475</ele>
        <time>2021-03-25T10:07:19.000Z</time>
      </trkpt>
      <trkpt lat="43.7591" lon="-1.39402">
        <ele>-41.540067</ele>
        <time>2021-03-25T10:07:21.000Z</time>
      </trkpt>
      <trkpt lat="43.75891" lon="-1.39412">
        <ele>-41.525061</ele>
        <time>2021-03-25T10:07:25.000Z</time>
      </trkpt>
      <trkpt lat="43.75864" lon="-1.39439">
        <ele>-41.501338</ele>
        <time>2021-03-25T10:07:31.000Z</time>
      </trkpt>
      <trkpt lat="43.75859" lon="-1.39442">
        <ele>-41.497854</ele>
        <time>2021-03-25T10:07:32.000Z</time>
      </trkpt>
      <trkpt lat="43.7582" lon="-1.39473">
        <ele>-41.46521</ele>
        <time>2021-03-25T10:07:41.000Z</time>
      </trkpt>
      <trkpt lat="43.75783" lon="-1.39505">
        <ele>-41.413521</ele>
        <time>2021-03-25T10:07:50.000Z</time>
      </trkpt>
      <trkpt lat="43.75758" lon="-1.39527">
        <ele>-41.377954</ele>
        <time>2021-03-25T10:07:56.000Z</time>
      </trkpt>
      <trkpt lat="43.75749" lon="-1.39533">
        <ele>-41.366015</ele>
        <time>2021-03-25T10:07:58.000Z</time>
      </trkpt>
      <trkpt lat="43.7572" lon="-1.39559">
        <ele>-41.324677</ele>
        <time>2021-03-25T10:08:05.000Z</time>
      </trkpt>
      <trkpt lat="43.75708" lon="-1.3957">
        <ele>-41.307218</ele>
        <time>2021-03-25T10:08:08.000Z</time>
      </trkpt>
      <trkpt lat="43.75669" lon="-1.39598">
        <ele>-41.25456</ele>
        <time>2021-03-25T10:08:16.000Z</time>
      </trkpt>
      <trkpt lat="43.75631" lon="-1.39628">
        <ele>-41.265341</ele>
        <time>2021-03-25T10:08:24.000Z</time>
      </trkpt>
      <trkpt lat="43.75619" lon="-1.39637">
        <ele>-41.2713</ele>
        <time>2021-03-25T10:08:27.000Z</time>
      </trkpt>
      <trkpt lat="43.75605" lon="-1.39651">
        <ele>-41.278561</ele>
        <time>2021-03-25T10:08:31.000Z</time>
      </trkpt>
      <trkpt lat="43.7559" lon="-1.39659">
        <ele>-41.285594</ele>
        <time>2021-03-25T10:08:34.000Z</time>
      </trkpt>
      <trkpt lat="43.75581" lon="-1.39666">
        <ele>-41.290083</ele>
        <time>2021-03-25T10:08:36.000Z</time>
      </trkpt>
      <trkpt lat="43.75572" lon="-1.39674">
        <ele>-41.294595</ele>
        <time>2021-03-25T10:08:38.000Z</time>
      </trkpt>
      <trkpt lat="43.75554" lon="-1.39689">
        <ele>-41.303426</ele>
        <time>2021-03-25T10:08:42.000Z</time>
      </trkpt>
      <trkpt lat="43.75528" lon="-1.39712">
        <ele>-41.31657</ele>
        <time>2021-03-25T10:08:48.000Z</time>
      </trkpt>
      <trkpt lat="43.75499" lon="-1.39737">
        <ele>-41.261156</ele>
        <time>2021-03-25T10:08:55.000Z</time>
      </trkpt>
      <trkpt lat="43.75473" lon="-1.39759">
        <ele>-41.119185</ele>
        <time>2021-03-25T10:09:01.000Z</time>
      </trkpt>
      <trkpt lat="43.75464" lon="-1.39766">
        <ele>-41.069898</ele>
        <time>2021-03-25T10:09:03.000Z</time>
      </trkpt>
      <trkpt lat="43.75429" lon="-1.39795">
        <ele>-40.875236</ele>
        <time>2021-03-25T10:09:11.000Z</time>
      </trkpt>
      <trkpt lat="43.75424" lon="-1.39799">
        <ele>-40.849339</ele>
        <time>2021-03-25T10:09:12.000Z</time>
      </trkpt>
      <trkpt lat="43.7539" lon="-1.39828">
        <ele>-40.660401</ele>
        <time>2021-03-25T10:09:20.000Z</time>
      </trkpt>
      <trkpt lat="43.75385" lon="-1.39832">
        <ele>-40.629242</ele>
        <time>2021-03-25T10:09:21.000Z</time>
      </trkpt>
      <trkpt lat="43.75365" lon="-1.39848">
        <ele>-40.519936</ele>
        <time>2021-03-25T10:09:25.000Z</time>
      </trkpt>
      <trkpt lat="43.7536" lon="-1.39852">
        <ele>-40.491463</ele>
        <time>2021-03-25T10:09:26.000Z</time>
      </trkpt>
      <trkpt lat="43.75336" lon="-1.3987">
        <ele>-40.462987</ele>
        <time>2021-03-25T10:09:31.000Z</time>
      </trkpt>
      <trkpt lat="43.75328" lon="-1.39876">
        <ele>-40.460327</ele>
        <time>2021-03-25T10:09:33.000Z</time>
      </trkpt>
      <trkpt lat="43.75322" lon="-1.3988">
        <ele>-40.458357</ele>
        <time>2021-03-25T10:09:34.000Z</time>
      </trkpt>
      <trkpt lat="43.75309" lon="-1.39892">
        <ele>-40.453547</ele>
        <time>2021-03-25T10:09:37.000Z</time>
      </trkpt>
      <trkpt lat="43.75305" lon="-1.39896">
        <ele>-40.45195</ele>
        <time>2021-03-25T10:09:38.000Z</time>
      </trkpt>
      <trkpt lat="43.75301" lon="-1.399">
        <ele>-40.450435</ele>
        <time>2021-03-25T10:09:39.000Z</time>
      </trkpt>
      <trkpt lat="43.75281" lon="-1.39916">
        <ele>-40.443301</ele>
        <time>2021-03-25T10:09:44.000Z</time>
      </trkpt>
      <trkpt lat="43.75267" lon="-1.39924">
        <ele>-40.438792</ele>
        <time>2021-03-25T10:09:47.000Z</time>
      </trkpt>
      <trkpt lat="43.75257" lon="-1.39933">
        <ele>-40.435023</ele>
        <time>2021-03-25T10:09:50.000Z</time>
      </trkpt>
      <trkpt lat="43.75237" lon="-1.39954">
        <ele>-40.427483</ele>
        <time>2021-03-25T10:09:56.000Z</time>
      </trkpt>
      <trkpt lat="43.75219" lon="-1.39966">
        <ele>-40.421212</ele>
        <time>2021-03-25T10:10:01.000Z</time>
      </trkpt>
      <trkpt lat="43.75189" lon="-1.39988">
        <ele>-40.3768</ele>
        <time>2021-03-25T10:10:09.000Z</time>
      </trkpt>
      <trkpt lat="43.75171" lon="-1.40002">
        <ele>-40.315925</ele>
        <time>2021-03-25T10:10:14.000Z</time>
      </trkpt>
      <trkpt lat="43.75159" lon="-1.40012">
        <ele>-40.273997</ele>
        <time>2021-03-25T10:10:17.000Z</time>
      </trkpt>
      <trkpt lat="43.7515" lon="-1.40019">
        <ele>-40.241259</ele>
        <time>2021-03-25T10:10:19.000Z</time>
      </trkpt>
      <trkpt lat="43.75135" lon="-1.4003">
        <ele>-40.190281</ele>
        <time>2021-03-25T10:10:22.000Z</time>
      </trkpt>
      <trkpt lat="43.75125" lon="-1.40039">
        <ele>-40.156313</ele>
        <time>2021-03-25T10:10:24.000Z</time>
      </trkpt>
      <trkpt lat="43.75121" lon="-1.40043">
        <ele>-40.139079</ele>
        <time>2021-03-25T10:10:25.000Z</time>
      </trkpt>
      <trkpt lat="43.75109" lon="-1.40054">
        <ele>-40.097088</ele>
        <time>2021-03-25T10:10:28.000Z</time>
      </trkpt>
      <trkpt lat="43.75092" lon="-1.40066">
        <ele>-40.041129</ele>
        <time>2021-03-25T10:10:32.000Z</time>
      </trkpt>
      <trkpt lat="43.75084" lon="-1.40074">
        <ele>-40.01073</ele>
        <time>2021-03-25T10:10:34.000Z</time>
      </trkpt>
      <trkpt lat="43.75058" lon="-1.40095">
        <ele>-39.918967</ele>
        <time>2021-03-25T10:10:40.000Z</time>
      </trkpt>
      <trkpt lat="43.75047" lon="-1.40102">
        <ele>-39.884985</ele>
        <time>2021-03-25T10:10:42.000Z</time>
      </trkpt>
      <trkpt lat="43.7503" lon="-1.40115">
        <ele>-39.860209</ele>
        <time>2021-03-25T10:10:46.000Z</time>
      </trkpt>
      <trkpt lat="43.75007" lon="-1.40134">
        <ele>-39.835096</ele>
        <time>2021-03-25T10:10:51.000Z</time>
      </trkpt>
      <trkpt lat="43.74998" lon="-1.40142">
        <ele>-39.825259</ele>
        <time>2021-03-25T10:10:53.000Z</time>
      </trkpt>
      <trkpt lat="43.74967" lon="-1.40168">
        <ele>-39.79068</ele>
        <time>2021-03-25T10:11:00.000Z</time>
      </trkpt>
      <trkpt lat="43.74945" lon="-1.40184">
        <ele>-39.767166</ele>
        <time>2021-03-25T10:11:05.000Z</time>
      </trkpt>
      <trkpt lat="43.74932" lon="-1.40194">
        <ele>-39.752924</ele>
        <time>2021-03-25T10:11:08.000Z</time>
      </trkpt>
      <trkpt lat="43.74902" lon="-1.4022">
        <ele>-39.719739</ele>
        <time>2021-03-25T10:11:15.000Z</time>
      </trkpt>
      <trkpt lat="43.74861" lon="-1.40253">
        <ele>-39.787403</ele>
        <time>2021-03-25T10:11:25.000Z</time>
      </trkpt>
      <trkpt lat="43.74825" lon="-1.4028">
        <ele>-39.885894</ele>
        <time>2021-03-25T10:11:34.000Z</time>
      </trkpt>
      <trkpt lat="43.74812" lon="-1.40291">
        <ele>-39.923044</ele>
        <time>2021-03-25T10:11:37.000Z</time>
      </trkpt>
      <trkpt lat="43.74793" lon="-1.40305">
        <ele>-39.974843</ele>
        <time>2021-03-25T10:11:41.000Z</time>
      </trkpt>
      <trkpt lat="43.74774" lon="-1.40319">
        <ele>-40.025676</ele>
        <time>2021-03-25T10:11:45.000Z</time>
      </trkpt>
      <trkpt lat="43.74762" lon="-1.40329">
        <ele>-40.061278</ele>
        <time>2021-03-25T10:11:48.000Z</time>
      </trkpt>
      <trkpt lat="43.7475" lon="-1.4034">
        <ele>-40.09542</ele>
        <time>2021-03-25T10:11:51.000Z</time>
      </trkpt>
      <trkpt lat="43.74738" lon="-1.4035">
        <ele>-40.129243</ele>
        <time>2021-03-25T10:11:54.000Z</time>
      </trkpt>
      <trkpt lat="43.74719" lon="-1.40364">
        <ele>-40.143704</ele>
        <time>2021-03-25T10:11:58.000Z</time>
      </trkpt>
      <trkpt lat="43.74715" lon="-1.40367">
        <ele>-40.144759</ele>
        <time>2021-03-25T10:11:59.000Z</time>
      </trkpt>
      <trkpt lat="43.74706" lon="-1.40374">
        <ele>-40.146858</ele>
        <time>2021-03-25T10:12:01.000Z</time>
      </trkpt>
      <trkpt lat="43.74696" lon="-1.4038">
        <ele>-40.149028</ele>
        <time>2021-03-25T10:12:03.000Z</time>
      </trkpt>
      <trkpt lat="43.74688" lon="-1.40388">
        <ele>-40.151091</ele>
        <time>2021-03-25T10:12:05.000Z</time>
      </trkpt>
      <trkpt lat="43.74658" lon="-1.40415">
        <ele>-40.158384</ele>
        <time>2021-03-25T10:12:12.000Z</time>
      </trkpt>
      <trkpt lat="43.74626" lon="-1.4044">
        <ele>-40.165785</ele>
        <time>2021-03-25T10:12:19.000Z</time>
      </trkpt>
      <trkpt lat="43.74613" lon="-1.40451">
        <ele>-40.168916</ele>
        <time>2021-03-25T10:12:22.000Z</time>
      </trkpt>
      <trkpt lat="43.74601" lon="-1.40463">
        <ele>-40.171857</ele>
        <time>2021-03-25T10:12:25.000Z</time>
      </trkpt>
      <trkpt lat="43.74585" lon="-1.40478">
        <ele>-40.175732</ele>
        <time>2021-03-25T10:12:29.000Z</time>
      </trkpt>
      <trkpt lat="43.74578" lon="-1.40485">
        <ele>-40.172287</ele>
        <time>2021-03-25T10:12:31.000Z</time>
      </trkpt>
      <trkpt lat="43.74562" lon="-1.40498">
        <ele>-40.141383</ele>
        <time>2021-03-25T10:12:35.000Z</time>
      </trkpt>
      <trkpt lat="43.74544" lon="-1.40511">
        <ele>-40.108016</ele>
        <time>2021-03-25T10:12:39.000Z</time>
      </trkpt>
      <trkpt lat="43.74508" lon="-1.40541">
        <ele>-40.038448</ele>
        <time>2021-03-25T10:12:47.000Z</time>
      </trkpt>
      <trkpt lat="43.74481" lon="-1.40563">
        <ele>-39.986705</ele>
        <time>2021-03-25T10:12:53.000Z</time>
      </trkpt>
      <trkpt lat="43.74468" lon="-1.40574">
        <ele>-39.960905</ele>
        <time>2021-03-25T10:12:56.000Z</time>
      </trkpt>
      <trkpt lat="43.74458" lon="-1.40581">
        <ele>-39.943968</ele>
        <time>2021-03-25T10:12:58.000Z</time>
      </trkpt>
      <trkpt lat="43.74454" lon="-1.40584">
        <ele>-39.935278</ele>
        <time>2021-03-25T10:12:59.000Z</time>
      </trkpt>
      <trkpt lat="43.74418" lon="-1.40609">
        <ele>-39.875615</ele>
        <time>2021-03-25T10:13:07.000Z</time>
      </trkpt>
      <trkpt lat="43.74405" lon="-1.40622">
        <ele>-39.865345</ele>
        <time>2021-03-25T10:13:10.000Z</time>
      </trkpt>
      <trkpt lat="43.74392" lon="-1.40633">
        <ele>-39.855136</ele>
        <time>2021-03-25T10:13:13.000Z</time>
      </trkpt>
      <trkpt lat="43.74378" lon="-1.40644">
        <ele>-39.84471</ele>
        <time>2021-03-25T10:13:16.000Z</time>
      </trkpt>
      <trkpt lat="43.74355" lon="-1.40663">
        <ele>-39.826996</ele>
        <time>2021-03-25T10:13:21.000Z</time>
      </trkpt>
      <trkpt lat="43.74346" lon="-1.4067">
        <ele>-39.820228</ele>
        <time>2021-03-25T10:13:23.000Z</time>
      </trkpt>
      <trkpt lat="43.74334" lon="-1.40682">
        <ele>-39.81039</ele>
        <time>2021-03-25T10:13:26.000Z</time>
      </trkpt>
      <trkpt lat="43.74317" lon="-1.40697">
        <ele>-39.797462</ele>
        <time>2021-03-25T10:13:30.000Z</time>
      </trkpt>
      <trkpt lat="43.74305" lon="-1.40708">
        <ele>-39.787758</ele>
        <time>2021-03-25T10:13:33.000Z</time>
      </trkpt>
      <trkpt lat="43.74301" lon="-1.40712">
        <ele>-39.784353</ele>
        <time>2021-03-25T10:13:34.000Z</time>
      </trkpt>
      <trkpt lat="43.74274" lon="-1.40734">
        <ele>-39.764242</ele>
        <time>2021-03-25T10:13:40.000Z</time>
      </trkpt>
      <trkpt lat="43.7424" lon="-1.4076">
        <ele>-39.703366</ele>
        <time>2021-03-25T10:13:48.000Z</time>
      </trkpt>
      <trkpt lat="43.74224" lon="-1.40771">
        <ele>-39.67363</ele>
        <time>2021-03-25T10:13:52.000Z</time>
      </trkpt>
      <trkpt lat="43.74216" lon="-1.40778">
        <ele>-39.657561</ele>
        <time>2021-03-25T10:13:54.000Z</time>
      </trkpt>
      <trkpt lat="43.74184" lon="-1.40803">
        <ele>-39.597452</ele>
        <time>2021-03-25T10:14:01.000Z</time>
      </trkpt>
      <trkpt lat="43.74178" lon="-1.40808">
        <ele>-39.58634</ele>
        <time>2021-03-25T10:14:02.000Z</time>
      </trkpt>
      <trkpt lat="43.74163" lon="-1.40816">
        <ele>-39.558778</ele>
        <time>2021-03-25T10:14:05.000Z</time>
      </trkpt>
      <trkpt lat="43.74158" lon="-1.4082">
        <ele>-39.550125</ele>
        <time>2021-03-25T10:14:06.000Z</time>
      </trkpt>
      <trkpt lat="43.74154" lon="-1.40823">
        <ele>-39.541446</ele>
        <time>2021-03-25T10:14:07.000Z</time>
      </trkpt>
      <trkpt lat="43.74135" lon="-1.40835">
        <ele>-39.50747</ele>
        <time>2021-03-25T10:14:11.000Z</time>
      </trkpt>
      <trkpt lat="43.74127" lon="-1.40845">
        <ele>-39.490575</ele>
        <time>2021-03-25T10:14:13.000Z</time>
      </trkpt>
      <trkpt lat="43.74098" lon="-1.40873">
        <ele>-39.475479</ele>
        <time>2021-03-25T10:14:20.000Z</time>
      </trkpt>
      <trkpt lat="43.74094" lon="-1.40877">
        <ele>-39.478282</ele>
        <time>2021-03-25T10:14:21.000Z</time>
      </trkpt>
      <trkpt lat="43.74088" lon="-1.40885">
        <ele>-39.483301</ele>
        <time>2021-03-25T10:14:23.000Z</time>
      </trkpt>
      <trkpt lat="43.74079" lon="-1.4089">
        <ele>-39.488332</ele>
        <time>2021-03-25T10:14:25.000Z</time>
      </trkpt>
      <trkpt lat="43.74075" lon="-1.40892">
        <ele>-39.490702</ele>
        <time>2021-03-25T10:14:26.000Z</time>
      </trkpt>
      <trkpt lat="43.74053" lon="-1.4091">
        <ele>-39.504796</ele>
        <time>2021-03-25T10:14:32.000Z</time>
      </trkpt>
      <trkpt lat="43.74026" lon="-1.40934">
        <ele>-39.522926</ele>
        <time>2021-03-25T10:14:39.000Z</time>
      </trkpt>
      <trkpt lat="43.74018" lon="-1.40941">
        <ele>-39.52817</ele>
        <time>2021-03-25T10:14:41.000Z</time>
      </trkpt>
      <trkpt lat="43.74005" lon="-1.4095">
        <ele>-39.53597</ele>
        <time>2021-03-25T10:14:44.000Z</time>
      </trkpt>
      <trkpt lat="43.74001" lon="-1.40953">
        <ele>-39.538596</ele>
        <time>2021-03-25T10:14:45.000Z</time>
      </trkpt>
      <trkpt lat="43.73996" lon="-1.40957">
        <ele>-39.541496</ele>
        <time>2021-03-25T10:14:46.000Z</time>
      </trkpt>
      <trkpt lat="43.73985" lon="-1.40963">
        <ele>-39.548165</ele>
        <time>2021-03-25T10:14:48.000Z</time>
      </trkpt>
      <trkpt lat="43.73976" lon="-1.40972">
        <ele>-39.554222</ele>
        <time>2021-03-25T10:14:50.000Z</time>
      </trkpt>
      <trkpt lat="43.73972" lon="-1.40976">
        <ele>-39.557093</ele>
        <time>2021-03-25T10:14:51.000Z</time>
      </trkpt>
      <trkpt lat="43.73964" lon="-1.40982">
        <ele>-39.562315</ele>
        <time>2021-03-25T10:14:53.000Z</time>
      </trkpt>
      <trkpt lat="43.7394" lon="-1.41">
        <ele>-39.596111</ele>
        <time>2021-03-25T10:14:58.000Z</time>
      </trkpt>
      <trkpt lat="43.7393" lon="-1.41004">
        <ele>-39.609992</ele>
        <time>2021-03-25T10:15:00.000Z</time>
      </trkpt>
      <trkpt lat="43.73918" lon="-1.41015">
        <ele>-39.629344</ele>
        <time>2021-03-25T10:15:03.000Z</time>
      </trkpt>
      <trkpt lat="43.73901" lon="-1.41031">
        <ele>-39.65697</ele>
        <time>2021-03-25T10:15:07.000Z</time>
      </trkpt>
      <trkpt lat="43.73888" lon="-1.41038">
        <ele>-39.675213</ele>
        <time>2021-03-25T10:15:09.000Z</time>
      </trkpt>
      <trkpt lat="43.73876" lon="-1.41047">
        <ele>-39.693216</ele>
        <time>2021-03-25T10:15:12.000Z</time>
      </trkpt>
      <trkpt lat="43.73867" lon="-1.41056">
        <ele>-39.708716</ele>
        <time>2021-03-25T10:15:15.000Z</time>
      </trkpt>
      <trkpt lat="43.73846" lon="-1.41074">
        <ele>-39.741541</ele>
        <time>2021-03-25T10:15:21.000Z</time>
      </trkpt>
      <trkpt lat="43.73843" lon="-1.41078">
        <ele>-39.74736</ele>
        <time>2021-03-25T10:15:22.000Z</time>
      </trkpt>
      <trkpt lat="43.73825" lon="-1.41093">
        <ele>-39.775783</ele>
        <time>2021-03-25T10:15:26.000Z</time>
      </trkpt>
      <trkpt lat="43.73816" lon="-1.41098">
        <ele>-39.788124</ele>
        <time>2021-03-25T10:15:28.000Z</time>
      </trkpt>
      <trkpt lat="43.73812" lon="-1.41101">
        <ele>-39.794538</ele>
        <time>2021-03-25T10:15:29.000Z</time>
      </trkpt>
      <trkpt lat="43.73784" lon="-1.41125">
        <ele>-39.753527</ele>
        <time>2021-03-25T10:15:35.000Z</time>
      </trkpt>
      <trkpt lat="43.73766" lon="-1.41144">
        <ele>-39.705235</ele>
        <time>2021-03-25T10:15:39.000Z</time>
      </trkpt>
      <trkpt lat="43.73752" lon="-1.41154">
        <ele>-39.670147</ele>
        <time>2021-03-25T10:15:42.000Z</time>
      </trkpt>
      <trkpt lat="43.73747" lon="-1.41157">
        <ele>-39.659241</ele>
        <time>2021-03-25T10:15:43.000Z</time>
      </trkpt>
      <trkpt lat="43.73722" lon="-1.41172">
        <ele>-39.602079</ele>
        <time>2021-03-25T10:15:49.000Z</time>
      </trkpt>
      <trkpt lat="43.73718" lon="-1.41176">
        <ele>-39.591848</ele>
        <time>2021-03-25T10:15:50.000Z</time>
      </trkpt>
      <trkpt lat="43.73713" lon="-1.4118">
        <ele>-39.578267</ele>
        <time>2021-03-25T10:15:52.000Z</time>
      </trkpt>
      <trkpt lat="43.73704" lon="-1.41188">
        <ele>-39.55622</ele>
        <time>2021-03-25T10:15:55.000Z</time>
      </trkpt>
      <trkpt lat="43.73702" lon="-1.41191">
        <ele>-39.549574</ele>
        <time>2021-03-25T10:15:56.000Z</time>
      </trkpt>
      <trkpt lat="43.73692" lon="-1.41198">
        <ele>-39.526578</ele>
        <time>2021-03-25T10:15:59.000Z</time>
      </trkpt>
      <trkpt lat="43.73679" lon="-1.41208">
        <ele>-39.494233</ele>
        <time>2021-03-25T10:16:03.000Z</time>
      </trkpt>
      <trkpt lat="43.73652" lon="-1.41228">
        <ele>-39.428809</ele>
        <time>2021-03-25T10:16:10.000Z</time>
      </trkpt>
      <trkpt lat="43.73642" lon="-1.4123">
        <ele>-39.402595</ele>
        <time>2021-03-25T10:16:12.000Z</time>
      </trkpt>
      <trkpt lat="43.73636" lon="-1.41231">
        <ele>-39.384114</ele>
        <time>2021-03-25T10:16:13.000Z</time>
      </trkpt>
      <trkpt lat="43.73625" lon="-1.41231">
        <ele>-39.353276</ele>
        <time>2021-03-25T10:16:15.000Z</time>
      </trkpt>
      <trkpt lat="43.73609" lon="-1.41225">
        <ele>-39.306494</ele>
        <time>2021-03-25T10:16:18.000Z</time>
      </trkpt>
      <trkpt lat="43.73594" lon="-1.41217">
        <ele>-39.257611</ele>
        <time>2021-03-25T10:16:21.000Z</time>
      </trkpt>
      <trkpt lat="43.73574" lon="-1.41205">
        <ele>-39.194633</ele>
        <time>2021-03-25T10:16:25.000Z</time>
      </trkpt>
      <trkpt lat="43.73564" lon="-1.41198">
        <ele>-39.162802</ele>
        <time>2021-03-25T10:16:27.000Z</time>
      </trkpt>
      <trkpt lat="43.7356" lon="-1.41193">
        <ele>-39.14606</ele>
        <time>2021-03-25T10:16:28.000Z</time>
      </trkpt>
      <trkpt lat="43.73541" lon="-1.41179">
        <ele>-39.083975</ele>
        <time>2021-03-25T10:16:32.000Z</time>
      </trkpt>
      <trkpt lat="43.73527" lon="-1.41169">
        <ele>-39.039675</ele>
        <time>2021-03-25T10:16:35.000Z</time>
      </trkpt>
      <trkpt lat="43.73514" lon="-1.4116">
        <ele>-38.995599</ele>
        <time>2021-03-25T10:16:38.000Z</time>
      </trkpt>
      <trkpt lat="43.73501" lon="-1.41152">
        <ele>-38.954342</ele>
        <time>2021-03-25T10:16:41.000Z</time>
      </trkpt>
      <trkpt lat="43.73492" lon="-1.41147">
        <ele>-38.926429</ele>
        <time>2021-03-25T10:16:43.000Z</time>
      </trkpt>
      <trkpt lat="43.73483" lon="-1.41144">
        <ele>-38.901085</ele>
        <time>2021-03-25T10:16:45.000Z</time>
      </trkpt>
      <trkpt lat="43.73476" lon="-1.41145">
        <ele>-38.818029</ele>
        <time>2021-03-25T10:16:47.000Z</time>
      </trkpt>
      <trkpt lat="43.73464" lon="-1.41144">
        <ele>-38.68693</ele>
        <time>2021-03-25T10:16:50.000Z</time>
      </trkpt>
      <trkpt lat="43.73454" lon="-1.41143">
        <ele>-38.580759</ele>
        <time>2021-03-25T10:16:52.000Z</time>
      </trkpt>
      <trkpt lat="43.73449" lon="-1.41143">
        <ele>-38.528361</ele>
        <time>2021-03-25T10:16:53.000Z</time>
      </trkpt>
      <trkpt lat="43.7344" lon="-1.41145">
        <ele>-38.424985</ele>
        <time>2021-03-25T10:16:55.000Z</time>
      </trkpt>
      <trkpt lat="43.7343" lon="-1.41149">
        <ele>-38.316128</ele>
        <time>2021-03-25T10:16:57.000Z</time>
      </trkpt>
      <trkpt lat="43.73406" lon="-1.4116">
        <ele>-38.039868</ele>
        <time>2021-03-25T10:17:02.000Z</time>
      </trkpt>
      <trkpt lat="43.73388" lon="-1.41168">
        <ele>-37.827884</ele>
        <time>2021-03-25T10:17:06.000Z</time>
      </trkpt>
      <trkpt lat="43.73374" lon="-1.41177">
        <ele>-37.663262</ele>
        <time>2021-03-25T10:17:09.000Z</time>
      </trkpt>
      <trkpt lat="43.73364" lon="-1.41182">
        <ele>-37.548127</ele>
        <time>2021-03-25T10:17:11.000Z</time>
      </trkpt>
      <trkpt lat="43.7334" lon="-1.41192">
        <ele>-37.277785</ele>
        <time>2021-03-25T10:17:16.000Z</time>
      </trkpt>
      <trkpt lat="43.73335" lon="-1.41195">
        <ele>-37.219615</ele>
        <time>2021-03-25T10:17:17.000Z</time>
      </trkpt>
      <trkpt lat="43.73309" lon="-1.41209">
        <ele>-36.938078</ele>
        <time>2021-03-25T10:17:23.000Z</time>
      </trkpt>
      <trkpt lat="43.73301" lon="-1.41214">
        <ele>-36.942181</ele>
        <time>2021-03-25T10:17:25.000Z</time>
      </trkpt>
      <trkpt lat="43.73291" lon="-1.4122">
        <ele>-36.947619</ele>
        <time>2021-03-25T10:17:28.000Z</time>
      </trkpt>
      <trkpt lat="43.73276" lon="-1.41226">
        <ele>-36.95532</ele>
        <time>2021-03-25T10:17:32.000Z</time>
      </trkpt>
      <trkpt lat="43.73268" lon="-1.41229">
        <ele>-36.95913</ele>
        <time>2021-03-25T10:17:34.000Z</time>
      </trkpt>
      <trkpt lat="43.73264" lon="-1.41231">
        <ele>-36.961198</ele>
        <time>2021-03-25T10:17:35.000Z</time>
      </trkpt>
      <trkpt lat="43.73235" lon="-1.4124">
        <ele>-36.975554</ele>
        <time>2021-03-25T10:17:41.000Z</time>
      </trkpt>
      <trkpt lat="43.73218" lon="-1.41248">
        <ele>-36.984273</ele>
        <time>2021-03-25T10:17:45.000Z</time>
      </trkpt>
      <trkpt lat="43.73204" lon="-1.4126">
        <ele>-36.992421</ele>
        <time>2021-03-25T10:17:48.000Z</time>
      </trkpt>
      <trkpt lat="43.73184" lon="-1.41273">
        <ele>-37.00303</ele>
        <time>2021-03-25T10:17:52.000Z</time>
      </trkpt>
      <trkpt lat="43.7318" lon="-1.41274">
        <ele>-37.004962</ele>
        <time>2021-03-25T10:17:53.000Z</time>
      </trkpt>
      <trkpt lat="43.73145" lon="-1.41287">
        <ele>-37.022628</ele>
        <time>2021-03-25T10:18:00.000Z</time>
      </trkpt>
      <trkpt lat="43.73135" lon="-1.41291">
        <ele>-37.069457</ele>
        <time>2021-03-25T10:18:02.000Z</time>
      </trkpt>
      <trkpt lat="43.73109" lon="-1.41302">
        <ele>-37.242664</ele>
        <time>2021-03-25T10:18:07.000Z</time>
      </trkpt>
      <trkpt lat="43.73104" lon="-1.41304">
        <ele>-37.278613</ele>
        <time>2021-03-25T10:18:08.000Z</time>
      </trkpt>
      <trkpt lat="43.73093" lon="-1.41305">
        <ele>-37.34707</ele>
        <time>2021-03-25T10:18:10.000Z</time>
      </trkpt>
      <trkpt lat="43.73082" lon="-1.41305">
        <ele>-37.41704</ele>
        <time>2021-03-25T10:18:12.000Z</time>
      </trkpt>
      <trkpt lat="43.7306" lon="-1.41299">
        <ele>-37.562344</ele>
        <time>2021-03-25T10:18:16.000Z</time>
      </trkpt>
      <trkpt lat="43.73043" lon="-1.41289">
        <ele>-37.677284</ele>
        <time>2021-03-25T10:18:19.000Z</time>
      </trkpt>
      <trkpt lat="43.73038" lon="-1.41284">
        <ele>-37.716295</ele>
        <time>2021-03-25T10:18:20.000Z</time>
      </trkpt>
      <trkpt lat="43.73028" lon="-1.41274">
        <ele>-37.794772</ele>
        <time>2021-03-25T10:18:22.000Z</time>
      </trkpt>
      <trkpt lat="43.73012" lon="-1.41256">
        <ele>-37.925352</ele>
        <time>2021-03-25T10:18:26.000Z</time>
      </trkpt>
      <trkpt lat="43.73008" lon="-1.41253">
        <ele>-37.951848</ele>
        <time>2021-03-25T10:18:27.000Z</time>
      </trkpt>
      <trkpt lat="43.73001" lon="-1.41248">
        <ele>-38.006757</ele>
        <time>2021-03-25T10:18:29.000Z</time>
      </trkpt>
      <trkpt lat="43.72997" lon="-1.41245">
        <ele>-38.034269</ele>
        <time>2021-03-25T10:18:30.000Z</time>
      </trkpt>
      <trkpt lat="43.72986" lon="-1.41235">
        <ele>-38.117965</ele>
        <time>2021-03-25T10:18:33.000Z</time>
      </trkpt>
      <trkpt lat="43.72948" lon="-1.41203">
        <ele>-38.021889</ele>
        <time>2021-03-25T10:18:42.000Z</time>
      </trkpt>
      <trkpt lat="43.72916" lon="-1.41186">
        <ele>-37.884811</ele>
        <time>2021-03-25T10:18:48.000Z</time>
      </trkpt>
      <trkpt lat="43.72907" lon="-1.41181">
        <ele>-37.844106</ele>
        <time>2021-03-25T10:18:50.000Z</time>
      </trkpt>
      <trkpt lat="43.72859" lon="-1.4116">
        <ele>-37.644724</ele>
        <time>2021-03-25T10:18:59.000Z</time>
      </trkpt>
      <trkpt lat="43.72839" lon="-1.41153">
        <ele>-37.55896</ele>
        <time>2021-03-25T10:19:03.000Z</time>
      </trkpt>
      <trkpt lat="43.72828" lon="-1.41154">
        <ele>-37.516683</ele>
        <time>2021-03-25T10:19:05.000Z</time>
      </trkpt>
      <trkpt lat="43.72823" lon="-1.41154">
        <ele>-37.496207</ele>
        <time>2021-03-25T10:19:06.000Z</time>
      </trkpt>
      <trkpt lat="43.72798" lon="-1.41152">
        <ele>-37.302135</ele>
        <time>2021-03-25T10:19:11.000Z</time>
      </trkpt>
      <trkpt lat="43.72773" lon="-1.41151">
        <ele>-37.036228</ele>
        <time>2021-03-25T10:19:16.000Z</time>
      </trkpt>
      <trkpt lat="43.72759" lon="-1.41151">
        <ele>-36.87549</ele>
        <time>2021-03-25T10:19:19.000Z</time>
      </trkpt>
      <trkpt lat="43.72755" lon="-1.41152">
        <ele>-36.831044</ele>
        <time>2021-03-25T10:19:20.000Z</time>
      </trkpt>
      <trkpt lat="43.72748" lon="-1.41154">
        <ele>-36.754309</ele>
        <time>2021-03-25T10:19:22.000Z</time>
      </trkpt>
      <trkpt lat="43.72737" lon="-1.41157">
        <ele>-36.631716</ele>
        <time>2021-03-25T10:19:25.000Z</time>
      </trkpt>
      <trkpt lat="43.72728" lon="-1.41158">
        <ele>-36.53544</ele>
        <time>2021-03-25T10:19:28.000Z</time>
      </trkpt>
      <trkpt lat="43.72726" lon="-1.41159">
        <ele>-36.511279</ele>
        <time>2021-03-25T10:19:29.000Z</time>
      </trkpt>
      <trkpt lat="43.72714" lon="-1.41164">
        <ele>-36.371924</ele>
        <time>2021-03-25T10:19:33.000Z</time>
      </trkpt>
      <trkpt lat="43.72704" lon="-1.41166">
        <ele>-36.260573</ele>
        <time>2021-03-25T10:19:36.000Z</time>
      </trkpt>
      <trkpt lat="43.72692" lon="-1.41168">
        <ele>-36.135796</ele>
        <time>2021-03-25T10:19:40.000Z</time>
      </trkpt>
      <trkpt lat="43.72684" lon="-1.41173">
        <ele>-36.034175</ele>
        <time>2021-03-25T10:19:44.000Z</time>
      </trkpt>
      <trkpt lat="43.72683" lon="-1.41174">
        <ele>-36.022886</ele>
        <time>2021-03-25T10:19:45.000Z</time>
      </trkpt>
      <trkpt lat="43.72683" lon="-1.41174">
        <ele>-36.019512</ele>
        <time>2021-03-25T10:19:52.000Z</time>
      </trkpt>
      <trkpt lat="43.72683" lon="-1.41174">
        <ele>-36.019512</ele>
        <time>2021-03-25T10:19:58.000Z</time>
      </trkpt>
      <trkpt lat="43.72683" lon="-1.41174">
        <ele>-36.019512</ele>
        <time>2021-03-25T10:20:00.000Z</time>
      </trkpt>
      <trkpt lat="43.72682" lon="-1.41173">
        <ele>-36.013081</ele>
        <time>2021-03-25T10:20:16.000Z</time>
      </trkpt>
      <trkpt lat="43.72682" lon="-1.41173">
        <ele>-36.013081</ele>
        <time>2021-03-25T10:20:26.000Z</time>
      </trkpt>
      <trkpt lat="43.72682" lon="-1.41173">
        <ele>-36.013081</ele>
        <time>2021-03-25T10:20:31.000Z</time>
      </trkpt>
      <trkpt lat="43.72683" lon="-1.41173">
        <ele>-36.007316</ele>
        <time>2021-03-25T10:20:46.000Z</time>
      </trkpt>
      <trkpt lat="43.72683" lon="-1.41173">
        <ele>-36.007316</ele>
        <time>2021-03-25T10:20:50.000Z</time>
      </trkpt>
      <trkpt lat="43.72683" lon="-1.41173">
        <ele>-36.002942</ele>
        <time>2021-03-25T10:20:55.000Z</time>
      </trkpt>
      <trkpt lat="43.72683" lon="-1.41173">
        <ele>-36.002942</ele>
        <time>2021-03-25T10:21:00.000Z</time>
      </trkpt>
      <trkpt lat="43.72683" lon="-1.41173">
        <ele>-35.996512</ele>
        <time>2021-03-25T10:21:41.000Z</time>
      </trkpt>
      <trkpt lat="43.72681" lon="-1.41174">
        <ele>-35.967809</ele>
        <time>2021-03-25T10:21:43.000Z</time>
      </trkpt>
      <trkpt lat="43.72676" lon="-1.41177">
        <ele>-35.910533</ele>
        <time>2021-03-25T10:21:45.000Z</time>
      </trkpt>
      <trkpt lat="43.7266" lon="-1.41192">
        <ele>-35.697303</ele>
        <time>2021-03-25T10:21:50.000Z</time>
      </trkpt>
      <trkpt lat="43.72652" lon="-1.41199">
        <ele>-35.597318</ele>
        <time>2021-03-25T10:21:52.000Z</time>
      </trkpt>
      <trkpt lat="43.72648" lon="-1.41203">
        <ele>-35.54336</ele>
        <time>2021-03-25T10:21:53.000Z</time>
      </trkpt>
      <trkpt lat="43.72639" lon="-1.41211">
        <ele>-35.522692</ele>
        <time>2021-03-25T10:21:55.000Z</time>
      </trkpt>
      <trkpt lat="43.72622" lon="-1.41222">
        <ele>-35.682361</ele>
        <time>2021-03-25T10:21:58.000Z</time>
      </trkpt>
      <trkpt lat="43.72616" lon="-1.41225">
        <ele>-35.739095</ele>
        <time>2021-03-25T10:21:59.000Z</time>
      </trkpt>
      <trkpt lat="43.72598" lon="-1.41236">
        <ele>-35.902419</ele>
        <time>2021-03-25T10:22:02.000Z</time>
      </trkpt>
      <trkpt lat="43.72576" lon="-1.41253">
        <ele>-36.118937</ele>
        <time>2021-03-25T10:22:06.000Z</time>
      </trkpt>
      <trkpt lat="43.7256" lon="-1.41264">
        <ele>-36.268088</ele>
        <time>2021-03-25T10:22:09.000Z</time>
      </trkpt>
      <trkpt lat="43.7253" lon="-1.41278">
        <ele>-36.536987</ele>
        <time>2021-03-25T10:22:15.000Z</time>
      </trkpt>
      <trkpt lat="43.72525" lon="-1.4128">
        <ele>-36.57631</ele>
        <time>2021-03-25T10:22:16.000Z</time>
      </trkpt>
      <trkpt lat="43.72517" lon="-1.41286">
        <ele>-36.652905</ele>
        <time>2021-03-25T10:22:18.000Z</time>
      </trkpt>
      <trkpt lat="43.7251" lon="-1.41292">
        <ele>-36.725473</ele>
        <time>2021-03-25T10:22:20.000Z</time>
      </trkpt>
      <trkpt lat="43.72506" lon="-1.41294">
        <ele>-36.761158</ele>
        <time>2021-03-25T10:22:21.000Z</time>
      </trkpt>
      <trkpt lat="43.72503" lon="-1.41297">
        <ele>-36.796181</ele>
        <time>2021-03-25T10:22:22.000Z</time>
      </trkpt>
      <trkpt lat="43.72474" lon="-1.41317">
        <ele>-37.017702</ele>
        <time>2021-03-25T10:22:29.000Z</time>
      </trkpt>
      <trkpt lat="43.72442" lon="-1.41341">
        <ele>-37.084475</ele>
        <time>2021-03-25T10:22:35.000Z</time>
      </trkpt>
      <trkpt lat="43.72419" lon="-1.41355">
        <ele>-37.129606</ele>
        <time>2021-03-25T10:22:39.000Z</time>
      </trkpt>
      <trkpt lat="43.72404" lon="-1.41365">
        <ele>-37.160226</ele>
        <time>2021-03-25T10:22:42.000Z</time>
      </trkpt>
      <trkpt lat="43.724" lon="-1.41367">
        <ele>-37.168938</ele>
        <time>2021-03-25T10:22:43.000Z</time>
      </trkpt>
      <trkpt lat="43.72395" lon="-1.41369">
        <ele>-37.17739</ele>
        <time>2021-03-25T10:22:44.000Z</time>
      </trkpt>
      <trkpt lat="43.72387" lon="-1.41372">
        <ele>-37.192762</ele>
        <time>2021-03-25T10:22:46.000Z</time>
      </trkpt>
      <trkpt lat="43.72379" lon="-1.41376">
        <ele>-37.20813</ele>
        <time>2021-03-25T10:22:48.000Z</time>
      </trkpt>
      <trkpt lat="43.72349" lon="-1.41393">
        <ele>-37.26611</ele>
        <time>2021-03-25T10:22:55.000Z</time>
      </trkpt>
      <trkpt lat="43.72309" lon="-1.41424">
        <ele>-37.269976</ele>
        <time>2021-03-25T10:23:04.000Z</time>
      </trkpt>
      <trkpt lat="43.72272" lon="-1.4145">
        <ele>-37.009913</ele>
        <time>2021-03-25T10:23:12.000Z</time>
      </trkpt>
      <trkpt lat="43.72237" lon="-1.41467">
        <ele>-36.780667</ele>
        <time>2021-03-25T10:23:20.000Z</time>
      </trkpt>
      <trkpt lat="43.72224" lon="-1.41473">
        <ele>-36.695502</ele>
        <time>2021-03-25T10:23:23.000Z</time>
      </trkpt>
      <trkpt lat="43.72216" lon="-1.41479">
        <ele>-36.638065</ele>
        <time>2021-03-25T10:23:25.000Z</time>
      </trkpt>
      <trkpt lat="43.72212" lon="-1.41482">
        <ele>-36.611892</ele>
        <time>2021-03-25T10:23:26.000Z</time>
      </trkpt>
      <trkpt lat="43.72209" lon="-1.41484">
        <ele>-36.586656</ele>
        <time>2021-03-25T10:23:27.000Z</time>
      </trkpt>
      <trkpt lat="43.72201" lon="-1.41491">
        <ele>-36.5294</ele>
        <time>2021-03-25T10:23:29.000Z</time>
      </trkpt>
      <trkpt lat="43.72194" lon="-1.41497">
        <ele>-36.478993</ele>
        <time>2021-03-25T10:23:31.000Z</time>
      </trkpt>
      <trkpt lat="43.72173" lon="-1.41512">
        <ele>-36.33247</ele>
        <time>2021-03-25T10:23:37.000Z</time>
      </trkpt>
      <trkpt lat="43.7215" lon="-1.41526">
        <ele>-36.247516</ele>
        <time>2021-03-25T10:23:43.000Z</time>
      </trkpt>
      <trkpt lat="43.72142" lon="-1.4153">
        <ele>-36.297103</ele>
        <time>2021-03-25T10:23:45.000Z</time>
      </trkpt>
      <trkpt lat="43.72112" lon="-1.41546">
        <ele>-36.485487</ele>
        <time>2021-03-25T10:23:52.000Z</time>
      </trkpt>
      <trkpt lat="43.72083" lon="-1.41568">
        <ele>-36.678459</ele>
        <time>2021-03-25T10:23:58.000Z</time>
      </trkpt>
      <trkpt lat="43.72061" lon="-1.41579">
        <ele>-36.811426</ele>
        <time>2021-03-25T10:24:02.000Z</time>
      </trkpt>
      <trkpt lat="43.72046" lon="-1.41589">
        <ele>-36.913321</ele>
        <time>2021-03-25T10:24:05.000Z</time>
      </trkpt>
      <trkpt lat="43.72011" lon="-1.4161">
        <ele>-37.131558</ele>
        <time>2021-03-25T10:24:12.000Z</time>
      </trkpt>
      <trkpt lat="43.72007" lon="-1.41612">
        <ele>-37.158838</ele>
        <time>2021-03-25T10:24:13.000Z</time>
      </trkpt>
      <trkpt lat="43.71985" lon="-1.41628">
        <ele>-37.113318</ele>
        <time>2021-03-25T10:24:18.000Z</time>
      </trkpt>
      <trkpt lat="43.71977" lon="-1.41635">
        <ele>-36.9162</ele>
        <time>2021-03-25T10:24:20.000Z</time>
      </trkpt>
      <trkpt lat="43.71969" lon="-1.41642">
        <ele>-36.723439</ele>
        <time>2021-03-25T10:24:22.000Z</time>
      </trkpt>
      <trkpt lat="43.71958" lon="-1.41652">
        <ele>-36.452264</ele>
        <time>2021-03-25T10:24:25.000Z</time>
      </trkpt>
      <trkpt lat="43.71954" lon="-1.41655">
        <ele>-36.365468</ele>
        <time>2021-03-25T10:24:26.000Z</time>
      </trkpt>
      <trkpt lat="43.71947" lon="-1.4166">
        <ele>-36.195013</ele>
        <time>2021-03-25T10:24:28.000Z</time>
      </trkpt>
      <trkpt lat="43.71932" lon="-1.41673">
        <ele>-35.838822</ele>
        <time>2021-03-25T10:24:32.000Z</time>
      </trkpt>
      <trkpt lat="43.71922" lon="-1.4168">
        <ele>-35.603211</ele>
        <time>2021-03-25T10:24:35.000Z</time>
      </trkpt>
      <trkpt lat="43.71904" lon="-1.41694">
        <ele>-35.173274</ele>
        <time>2021-03-25T10:24:40.000Z</time>
      </trkpt>
      <trkpt lat="43.71892" lon="-1.41702">
        <ele>-34.90988</ele>
        <time>2021-03-25T10:24:43.000Z</time>
      </trkpt>
      <trkpt lat="43.71889" lon="-1.41705">
        <ele>-34.831558</ele>
        <time>2021-03-25T10:24:44.000Z</time>
      </trkpt>
      <trkpt lat="43.71882" lon="-1.41711">
        <ele>-34.658965</ele>
        <time>2021-03-25T10:24:46.000Z</time>
      </trkpt>
      <trkpt lat="43.71872" lon="-1.41721">
        <ele>-34.41204</ele>
        <time>2021-03-25T10:24:49.000Z</time>
      </trkpt>
      <trkpt lat="43.71867" lon="-1.41728">
        <ele>-34.270889</ele>
        <time>2021-03-25T10:24:51.000Z</time>
      </trkpt>
      <trkpt lat="43.71861" lon="-1.41733">
        <ele>-34.130281</ele>
        <time>2021-03-25T10:24:53.000Z</time>
      </trkpt>
      <trkpt lat="43.71852" lon="-1.41744">
        <ele>-33.882873</ele>
        <time>2021-03-25T10:24:57.000Z</time>
      </trkpt>
      <trkpt lat="43.71848" lon="-1.4175">
        <ele>-33.759461</ele>
        <time>2021-03-25T10:24:59.000Z</time>
      </trkpt>
      <trkpt lat="43.71838" lon="-1.41762">
        <ele>-33.512245</ele>
        <time>2021-03-25T10:25:03.000Z</time>
      </trkpt>
      <trkpt lat="43.71825" lon="-1.41775">
        <ele>-33.274174</ele>
        <time>2021-03-25T10:25:08.000Z</time>
      </trkpt>
      <trkpt lat="43.71822" lon="-1.41779">
        <ele>-33.214751</ele>
        <time>2021-03-25T10:25:12.000Z</time>
      </trkpt>
      <trkpt lat="43.71819" lon="-1.4178">
        <ele>-33.178231</ele>
        <time>2021-03-25T10:25:19.000Z</time>
      </trkpt>
      <trkpt lat="43.71818" lon="-1.41782">
        <ele>-33.150402</ele>
        <time>2021-03-25T10:25:20.000Z</time>
      </trkpt>
      <trkpt lat="43.71813" lon="-1.4179">
        <ele>-33.034154</ele>
        <time>2021-03-25T10:25:23.000Z</time>
      </trkpt>
      <trkpt lat="43.7181" lon="-1.41793">
        <ele>-32.990944</ele>
        <time>2021-03-25T10:25:24.000Z</time>
      </trkpt>
      <trkpt lat="43.71806" lon="-1.41798">
        <ele>-32.898001</ele>
        <time>2021-03-25T10:25:26.000Z</time>
      </trkpt>
      <trkpt lat="43.71793" lon="-1.41814">
        <ele>-32.642347</ele>
        <time>2021-03-25T10:25:31.000Z</time>
      </trkpt>
      <trkpt lat="43.7179" lon="-1.41817">
        <ele>-32.595445</ele>
        <time>2021-03-25T10:25:32.000Z</time>
      </trkpt>
      <trkpt lat="43.71778" lon="-1.41834">
        <ele>-32.339696</ele>
        <time>2021-03-25T10:25:37.000Z</time>
      </trkpt>
      <trkpt lat="43.7177" lon="-1.41844">
        <ele>-32.191318</ele>
        <time>2021-03-25T10:25:40.000Z</time>
      </trkpt>
      <trkpt lat="43.71765" lon="-1.4185">
        <ele>-32.087744</ele>
        <time>2021-03-25T10:25:42.000Z</time>
      </trkpt>
      <trkpt lat="43.71762" lon="-1.41853">
        <ele>-32.039501</ele>
        <time>2021-03-25T10:25:43.000Z</time>
      </trkpt>
      <trkpt lat="43.7176" lon="-1.41856">
        <ele>-31.989277</ele>
        <time>2021-03-25T10:25:44.000Z</time>
      </trkpt>
      <trkpt lat="43.71752" lon="-1.41865">
        <ele>-31.838913</ele>
        <time>2021-03-25T10:25:47.000Z</time>
      </trkpt>
      <trkpt lat="43.71744" lon="-1.41882">
        <ele>-31.624172</ele>
        <time>2021-03-25T10:25:51.000Z</time>
      </trkpt>
      <trkpt lat="43.71733" lon="-1.41899">
        <ele>-31.383804</ele>
        <time>2021-03-25T10:25:55.000Z</time>
      </trkpt>
      <trkpt lat="43.71727" lon="-1.41906">
        <ele>-31.255826</ele>
        <time>2021-03-25T10:25:57.000Z</time>
      </trkpt>
      <trkpt lat="43.7172" lon="-1.41914">
        <ele>-31.136204</ele>
        <time>2021-03-25T10:25:59.000Z</time>
      </trkpt>
      <trkpt lat="43.71706" lon="-1.41932">
        <ele>-31.100205</ele>
        <time>2021-03-25T10:26:03.000Z</time>
      </trkpt>
      <trkpt lat="43.71699" lon="-1.41943">
        <ele>-31.421499</ele>
        <time>2021-03-25T10:26:05.000Z</time>
      </trkpt>
      <trkpt lat="43.71687" lon="-1.41962">
        <ele>-31.977178</ele>
        <time>2021-03-25T10:26:08.000Z</time>
      </trkpt>
      <trkpt lat="43.7167" lon="-1.4199">
        <ele>-32.761456</ele>
        <time>2021-03-25T10:26:12.000Z</time>
      </trkpt>
      <trkpt lat="43.71661" lon="-1.42005">
        <ele>-33.180606</ele>
        <time>2021-03-25T10:26:14.000Z</time>
      </trkpt>
      <trkpt lat="43.71657" lon="-1.42012">
        <ele>-33.380657</ele>
        <time>2021-03-25T10:26:15.000Z</time>
      </trkpt>
      <trkpt lat="43.71645" lon="-1.42033">
        <ele>-33.941533</ele>
        <time>2021-03-25T10:26:18.000Z</time>
      </trkpt>
      <trkpt lat="43.71643" lon="-1.4204">
        <ele>-34.11831</ele>
        <time>2021-03-25T10:26:19.000Z</time>
      </trkpt>
      <trkpt lat="43.71639" lon="-1.42047">
        <ele>-34.299069</ele>
        <time>2021-03-25T10:26:20.000Z</time>
      </trkpt>
      <trkpt lat="43.71622" lon="-1.42069">
        <ele>-34.999181</ele>
        <time>2021-03-25T10:26:24.000Z</time>
      </trkpt>
      <trkpt lat="43.71617" lon="-1.42073">
        <ele>-35.187759</ele>
        <time>2021-03-25T10:26:25.000Z</time>
      </trkpt>
      <trkpt lat="43.716" lon="-1.42087">
        <ele>-35.755737</ele>
        <time>2021-03-25T10:26:28.000Z</time>
      </trkpt>
      <trkpt lat="43.71583" lon="-1.42099">
        <ele>-36.315496</ele>
        <time>2021-03-25T10:26:31.000Z</time>
      </trkpt>
      <trkpt lat="43.71543" lon="-1.42115">
        <ele>-36.489573</ele>
        <time>2021-03-25T10:26:38.000Z</time>
      </trkpt>
      <trkpt lat="43.71508" lon="-1.42116">
        <ele>-36.636075</ele>
        <time>2021-03-25T10:26:44.000Z</time>
      </trkpt>
      <trkpt lat="43.71482" lon="-1.42112">
        <ele>-36.74375</ele>
        <time>2021-03-25T10:26:49.000Z</time>
      </trkpt>
      <trkpt lat="43.71477" lon="-1.4211">
        <ele>-36.765832</ele>
        <time>2021-03-25T10:26:50.000Z</time>
      </trkpt>
      <trkpt lat="43.71462" lon="-1.42104">
        <ele>-36.83008</ele>
        <time>2021-03-25T10:26:53.000Z</time>
      </trkpt>
      <trkpt lat="43.71447" lon="-1.421">
        <ele>-36.892839</ele>
        <time>2021-03-25T10:26:56.000Z</time>
      </trkpt>
      <trkpt lat="43.71442" lon="-1.42098">
        <ele>-36.914218</ele>
        <time>2021-03-25T10:26:57.000Z</time>
      </trkpt>
      <trkpt lat="43.71423" lon="-1.42085">
        <ele>-37.002279</ele>
        <time>2021-03-25T10:27:01.000Z</time>
      </trkpt>
      <trkpt lat="43.71414" lon="-1.42079">
        <ele>-37.0463</ele>
        <time>2021-03-25T10:27:03.000Z</time>
      </trkpt>
      <trkpt lat="43.71386" lon="-1.42057">
        <ele>-36.805822</ele>
        <time>2021-03-25T10:27:09.000Z</time>
      </trkpt>
      <trkpt lat="43.71376" lon="-1.42048">
        <ele>-36.698697</ele>
        <time>2021-03-25T10:27:11.000Z</time>
      </trkpt>
      <trkpt lat="43.71371" lon="-1.42042">
        <ele>-36.642506</ele>
        <time>2021-03-25T10:27:12.000Z</time>
      </trkpt>
      <trkpt lat="43.71356" lon="-1.42025">
        <ele>-36.461358</ele>
        <time>2021-03-25T10:27:15.000Z</time>
      </trkpt>
      <trkpt lat="43.71335" lon="-1.42001">
        <ele>-36.216085</ele>
        <time>2021-03-25T10:27:19.000Z</time>
      </trkpt>
      <trkpt lat="43.7132" lon="-1.41984">
        <ele>-36.041776</ele>
        <time>2021-03-25T10:27:22.000Z</time>
      </trkpt>
      <trkpt lat="43.71316" lon="-1.41978">
        <ele>-35.990706</ele>
        <time>2021-03-25T10:27:23.000Z</time>
      </trkpt>
      <trkpt lat="43.71314" lon="-1.41972">
        <ele>-35.942969</ele>
        <time>2021-03-25T10:27:24.000Z</time>
      </trkpt>
      <trkpt lat="43.71309" lon="-1.41961">
        <ele>-35.857729</ele>
        <time>2021-03-25T10:27:26.000Z</time>
      </trkpt>
      <trkpt lat="43.71306" lon="-1.41956">
        <ele>-35.819549</ele>
        <time>2021-03-25T10:27:27.000Z</time>
      </trkpt>
      <trkpt lat="43.71298" lon="-1.41944">
        <ele>-35.70703</ele>
        <time>2021-03-25T10:27:30.000Z</time>
      </trkpt>
      <trkpt lat="43.71288" lon="-1.41936">
        <ele>-35.60604</ele>
        <time>2021-03-25T10:27:33.000Z</time>
      </trkpt>
      <trkpt lat="43.71281" lon="-1.41935">
        <ele>-35.540584</ele>
        <time>2021-03-25T10:27:35.000Z</time>
      </trkpt>
      <trkpt lat="43.71267" lon="-1.41933">
        <ele>-35.439715</ele>
        <time>2021-03-25T10:27:39.000Z</time>
      </trkpt>
      <trkpt lat="43.71257" lon="-1.41927">
        <ele>-35.468089</ele>
        <time>2021-03-25T10:27:42.000Z</time>
      </trkpt>
      <trkpt lat="43.71248" lon="-1.41918">
        <ele>-35.497367</ele>
        <time>2021-03-25T10:27:45.000Z</time>
      </trkpt>
      <trkpt lat="43.71222" lon="-1.41894">
        <ele>-35.581151</ele>
        <time>2021-03-25T10:27:52.000Z</time>
      </trkpt>
      <trkpt lat="43.71198" lon="-1.41881">
        <ele>-35.650642</ele>
        <time>2021-03-25T10:27:57.000Z</time>
      </trkpt>
      <trkpt lat="43.71186" lon="-1.41878">
        <ele>-35.681147</ele>
        <time>2021-03-25T10:27:59.000Z</time>
      </trkpt>
      <trkpt lat="43.71168" lon="-1.41878">
        <ele>-35.729615</ele>
        <time>2021-03-25T10:28:02.000Z</time>
      </trkpt>
      <trkpt lat="43.71144" lon="-1.41884">
        <ele>-35.795019</ele>
        <time>2021-03-25T10:28:06.000Z</time>
      </trkpt>
      <trkpt lat="43.71131" lon="-1.41887">
        <ele>-35.829207</ele>
        <time>2021-03-25T10:28:08.000Z</time>
      </trkpt>
      <trkpt lat="43.71095" lon="-1.419">
        <ele>-35.841379</ele>
        <time>2021-03-25T10:28:14.000Z</time>
      </trkpt>
      <trkpt lat="43.71078" lon="-1.41902">
        <ele>-35.617786</ele>
        <time>2021-03-25T10:28:17.000Z</time>
      </trkpt>
      <trkpt lat="43.71067" lon="-1.41904">
        <ele>-35.477756</ele>
        <time>2021-03-25T10:28:19.000Z</time>
      </trkpt>
      <trkpt lat="43.71061" lon="-1.41905">
        <ele>-35.409349</ele>
        <time>2021-03-25T10:28:20.000Z</time>
      </trkpt>
      <trkpt lat="43.71047" lon="-1.41908">
        <ele>-35.223906</ele>
        <time>2021-03-25T10:28:23.000Z</time>
      </trkpt>
      <trkpt lat="43.71031" lon="-1.41912">
        <ele>-35.023899</ele>
        <time>2021-03-25T10:28:26.000Z</time>
      </trkpt>
      <trkpt lat="43.71016" lon="-1.41911">
        <ele>-34.83388</ele>
        <time>2021-03-25T10:28:29.000Z</time>
      </trkpt>
      <trkpt lat="43.71006" lon="-1.4191">
        <ele>-34.706304</ele>
        <time>2021-03-25T10:28:31.000Z</time>
      </trkpt>
      <trkpt lat="43.71001" lon="-1.41909">
        <ele>-34.644009</ele>
        <time>2021-03-25T10:28:32.000Z</time>
      </trkpt>
      <trkpt lat="43.70983" lon="-1.419">
        <ele>-34.409851</ele>
        <time>2021-03-25T10:28:36.000Z</time>
      </trkpt>
      <trkpt lat="43.70975" lon="-1.41897">
        <ele>-34.299522</ele>
        <time>2021-03-25T10:28:38.000Z</time>
      </trkpt>
      <trkpt lat="43.70967" lon="-1.41895">
        <ele>-34.192877</ele>
        <time>2021-03-25T10:28:40.000Z</time>
      </trkpt>
      <trkpt lat="43.70956" lon="-1.41888">
        <ele>-34.043228</ele>
        <time>2021-03-25T10:28:43.000Z</time>
      </trkpt>
      <trkpt lat="43.70949" lon="-1.41883">
        <ele>-33.948589</ele>
        <time>2021-03-25T10:28:45.000Z</time>
      </trkpt>
      <trkpt lat="43.70946" lon="-1.4188">
        <ele>-33.903046</ele>
        <time>2021-03-25T10:28:46.000Z</time>
      </trkpt>
      <trkpt lat="43.70934" lon="-1.41867">
        <ele>-33.716218</ele>
        <time>2021-03-25T10:28:50.000Z</time>
      </trkpt>
      <trkpt lat="43.70929" lon="-1.41861">
        <ele>-33.644299</ele>
        <time>2021-03-25T10:28:52.000Z</time>
      </trkpt>
      <trkpt lat="43.70915" lon="-1.41842">
        <ele>-33.587329</ele>
        <time>2021-03-25T10:28:57.000Z</time>
      </trkpt>
      <trkpt lat="43.70888" lon="-1.41795">
        <ele>-33.459748</ele>
        <time>2021-03-25T10:29:07.000Z</time>
      </trkpt>
      <trkpt lat="43.70871" lon="-1.41763">
        <ele>-33.376301</ele>
        <time>2021-03-25T10:29:13.000Z</time>
      </trkpt>
      <trkpt lat="43.70865" lon="-1.41752">
        <ele>-33.347741</ele>
        <time>2021-03-25T10:29:15.000Z</time>
      </trkpt>
      <trkpt lat="43.70862" lon="-1.41746">
        <ele>-33.333547</ele>
        <time>2021-03-25T10:29:16.000Z</time>
      </trkpt>
      <trkpt lat="43.70859" lon="-1.41741">
        <ele>-33.319456</ele>
        <time>2021-03-25T10:29:17.000Z</time>
      </trkpt>
      <trkpt lat="43.70848" lon="-1.41728">
        <ele>-33.276594</ele>
        <time>2021-03-25T10:29:20.000Z</time>
      </trkpt>
      <trkpt lat="43.70821" lon="-1.41706">
        <ele>-33.184878</ele>
        <time>2021-03-25T10:29:26.000Z</time>
      </trkpt>
      <trkpt lat="43.70816" lon="-1.41703">
        <ele>-33.169673</ele>
        <time>2021-03-25T10:29:27.000Z</time>
      </trkpt>
      <trkpt lat="43.70811" lon="-1.41701">
        <ele>-33.154225</ele>
        <time>2021-03-25T10:29:28.000Z</time>
      </trkpt>
      <trkpt lat="43.70801" lon="-1.41697">
        <ele>-33.139523</ele>
        <time>2021-03-25T10:29:30.000Z</time>
      </trkpt>
      <trkpt lat="43.7079" lon="-1.41696">
        <ele>-33.306554</ele>
        <time>2021-03-25T10:29:32.000Z</time>
      </trkpt>
      <trkpt lat="43.70784" lon="-1.41696">
        <ele>-33.391245</ele>
        <time>2021-03-25T10:29:33.000Z</time>
      </trkpt>
      <trkpt lat="43.70761" lon="-1.41703">
        <ele>-33.758389</ele>
        <time>2021-03-25T10:29:37.000Z</time>
      </trkpt>
      <trkpt lat="43.70755" lon="-1.41706">
        <ele>-33.855973</ele>
        <time>2021-03-25T10:29:38.000Z</time>
      </trkpt>
      <trkpt lat="43.70745" lon="-1.41714">
        <ele>-34.043791</ele>
        <time>2021-03-25T10:29:40.000Z</time>
      </trkpt>
      <trkpt lat="43.70734" lon="-1.41723">
        <ele>-34.230083</ele>
        <time>2021-03-25T10:29:42.000Z</time>
      </trkpt>
      <trkpt lat="43.70725" lon="-1.41731">
        <ele>-34.398132</ele>
        <time>2021-03-25T10:29:44.000Z</time>
      </trkpt>
      <trkpt lat="43.70715" lon="-1.41736">
        <ele>-34.568414</ele>
        <time>2021-03-25T10:29:46.000Z</time>
      </trkpt>
      <trkpt lat="43.7071" lon="-1.41739">
        <ele>-34.6426</ele>
        <time>2021-03-25T10:29:47.000Z</time>
      </trkpt>
      <trkpt lat="43.70694" lon="-1.41755">
        <ele>-34.957314</ele>
        <time>2021-03-25T10:29:51.000Z</time>
      </trkpt>
      <trkpt lat="43.7068" lon="-1.41767">
        <ele>-35.203211</ele>
        <time>2021-03-25T10:29:54.000Z</time>
      </trkpt>
      <trkpt lat="43.70675" lon="-1.41771">
        <ele>-35.286288</ele>
        <time>2021-03-25T10:29:55.000Z</time>
      </trkpt>
      <trkpt lat="43.70671" lon="-1.41775">
        <ele>-35.376247</ele>
        <time>2021-03-25T10:29:56.000Z</time>
      </trkpt>
      <trkpt lat="43.70656" lon="-1.41787">
        <ele>-35.636428</ele>
        <time>2021-03-25T10:29:59.000Z</time>
      </trkpt>
      <trkpt lat="43.70646" lon="-1.41791">
        <ele>-35.795734</ele>
        <time>2021-03-25T10:30:02.000Z</time>
      </trkpt>
      <trkpt lat="43.70643" lon="-1.41789">
        <ele>-35.845014</ele>
        <time>2021-03-25T10:30:03.000Z</time>
      </trkpt>
      <trkpt lat="43.70636" lon="-1.41784">
        <ele>-35.909846</ele>
        <time>2021-03-25T10:30:06.000Z</time>
      </trkpt>
      <trkpt lat="43.70635" lon="-1.41782">
        <ele>-35.914328</ele>
        <time>2021-03-25T10:30:07.000Z</time>
      </trkpt>
      <trkpt lat="43.70635" lon="-1.41782">
        <ele>-35.915534</ele>
        <time>2021-03-25T10:30:11.000Z</time>
      </trkpt>
      <trkpt lat="43.70635" lon="-1.41782">
        <ele>-35.915534</ele>
        <time>2021-03-25T10:30:12.000Z</time>
      </trkpt>
      <trkpt lat="43.70635" lon="-1.41782">
        <ele>-35.915534</ele>
        <time>2021-03-25T10:30:20.000Z</time>
      </trkpt>
      <trkpt lat="43.70635" lon="-1.41782">
        <ele>-35.915534</ele>
        <time>2021-03-25T10:30:27.000Z</time>
      </trkpt>
      <trkpt lat="43.70635" lon="-1.41782">
        <ele>-35.915534</ele>
        <time>2021-03-25T10:30:32.000Z</time>
      </trkpt>
      <trkpt lat="43.70635" lon="-1.41781">
        <ele>-35.917042</ele>
        <time>2021-03-25T10:30:38.000Z</time>
      </trkpt>
      <trkpt lat="43.70635" lon="-1.41781">
        <ele>-35.917042</ele>
        <time>2021-03-25T10:30:49.000Z</time>
      </trkpt>
      <trkpt lat="43.70634" lon="-1.41781">
        <ele>-35.918505</ele>
        <time>2021-03-25T10:30:53.000Z</time>
      </trkpt>
      <trkpt lat="43.70634" lon="-1.41781">
        <ele>-35.918505</ele>
        <time>2021-03-25T10:31:03.000Z</time>
      </trkpt>
      <trkpt lat="43.70634" lon="-1.41781">
        <ele>-35.918505</ele>
        <time>2021-03-25T10:31:08.000Z</time>
      </trkpt>
      <trkpt lat="43.70634" lon="-1.41781">
        <ele>-35.918505</ele>
        <time>2021-03-25T10:31:12.000Z</time>
      </trkpt>
      <trkpt lat="43.70634" lon="-1.41781">
        <ele>-35.919219</ele>
        <time>2021-03-25T10:31:14.000Z</time>
      </trkpt>
      <trkpt lat="43.70626" lon="-1.41781">
        <ele>-35.940944</ele>
        <time>2021-03-25T10:31:17.000Z</time>
      </trkpt>
      <trkpt lat="43.70614" lon="-1.41791">
        <ele>-35.983365</ele>
        <time>2021-03-25T10:31:22.000Z</time>
      </trkpt>
      <trkpt lat="43.70613" lon="-1.418">
        <ele>-36.00187</ele>
        <time>2021-03-25T10:31:24.000Z</time>
      </trkpt>
      <trkpt lat="43.70611" lon="-1.41816">
        <ele>-36.036482</ele>
        <time>2021-03-25T10:31:27.000Z</time>
      </trkpt>
      <trkpt lat="43.70609" lon="-1.41822">
        <ele>-36.048789</ele>
        <time>2021-03-25T10:31:28.000Z</time>
      </trkpt>
      <trkpt lat="43.70606" lon="-1.41833">
        <ele>-36.074303</ele>
        <time>2021-03-25T10:31:30.000Z</time>
      </trkpt>
      <trkpt lat="43.70602" lon="-1.41843">
        <ele>-36.09814</ele>
        <time>2021-03-25T10:31:32.000Z</time>
      </trkpt>
      <trkpt lat="43.70594" lon="-1.41855">
        <ele>-36.134115</ele>
        <time>2021-03-25T10:31:36.000Z</time>
      </trkpt>
      <trkpt lat="43.70593" lon="-1.41858">
        <ele>-36.140356</ele>
        <time>2021-03-25T10:31:37.000Z</time>
      </trkpt>
      <trkpt lat="43.70596" lon="-1.41866">
        <ele>-36.158028</ele>
        <time>2021-03-25T10:31:40.000Z</time>
      </trkpt>
      <trkpt lat="43.70598" lon="-1.41867">
        <ele>-36.164342</ele>
        <time>2021-03-25T10:31:41.000Z</time>
      </trkpt>
      <trkpt lat="43.70604" lon="-1.41874">
        <ele>-36.187208</ele>
        <time>2021-03-25T10:31:44.000Z</time>
      </trkpt>
      <trkpt lat="43.70604" lon="-1.41878">
        <ele>-36.195627</ele>
        <time>2021-03-25T10:31:45.000Z</time>
      </trkpt>
      <trkpt lat="43.70598" lon="-1.41895">
        <ele>-36.234877</ele>
        <time>2021-03-25T10:31:49.000Z</time>
      </trkpt>
      <trkpt lat="43.70593" lon="-1.41922">
        <ele>-36.293706</ele>
        <time>2021-03-25T10:31:54.000Z</time>
      </trkpt>
      <trkpt lat="43.7059" lon="-1.41939">
        <ele>-36.330553</ele>
        <time>2021-03-25T10:31:57.000Z</time>
      </trkpt>
      <trkpt lat="43.70589" lon="-1.41945">
        <ele>-36.342702</ele>
        <time>2021-03-25T10:31:58.000Z</time>
      </trkpt>
      <trkpt lat="43.70586" lon="-1.41955">
        <ele>-36.366835</ele>
        <time>2021-03-25T10:32:00.000Z</time>
      </trkpt>
      <trkpt lat="43.70585" lon="-1.41961">
        <ele>-36.379114</ele>
        <time>2021-03-25T10:32:01.000Z</time>
      </trkpt>
      <trkpt lat="43.70586" lon="-1.41972">
        <ele>-36.40229</ele>
        <time>2021-03-25T10:32:03.000Z</time>
      </trkpt>
      <trkpt lat="43.70587" lon="-1.41977">
        <ele>-36.412546</ele>
        <time>2021-03-25T10:32:04.000Z</time>
      </trkpt>
      <trkpt lat="43.70589" lon="-1.41981">
        <ele>-36.373302</ele>
        <time>2021-03-25T10:32:05.000Z</time>
      </trkpt>
      <trkpt lat="43.706" lon="-1.41999">
        <ele>-36.076964</ele>
        <time>2021-03-25T10:32:09.000Z</time>
      </trkpt>
      <trkpt lat="43.70602" lon="-1.42004">
        <ele>-36.003701</ele>
        <time>2021-03-25T10:32:10.000Z</time>
      </trkpt>
      <trkpt lat="43.70606" lon="-1.42024">
        <ele>-35.743826</ele>
        <time>2021-03-25T10:32:15.000Z</time>
      </trkpt>
      <trkpt lat="43.70608" lon="-1.42045">
        <ele>-35.466701</ele>
        <time>2021-03-25T10:32:19.000Z</time>
      </trkpt>
      <trkpt lat="43.70611" lon="-1.42051">
        <ele>-35.367829</ele>
        <time>2021-03-25T10:32:21.000Z</time>
      </trkpt>
      <trkpt lat="43.70614" lon="-1.42053">
        <ele>-35.314498</ele>
        <time>2021-03-25T10:32:22.000Z</time>
      </trkpt>
      <trkpt lat="43.70617" lon="-1.42052">
        <ele>-35.259459</ele>
        <time>2021-03-25T10:32:23.000Z</time>
      </trkpt>
      <trkpt lat="43.70626" lon="-1.42052">
        <ele>-35.09257</ele>
        <time>2021-03-25T10:32:26.000Z</time>
      </trkpt>
      <trkpt lat="43.70629" lon="-1.42052">
        <ele>-35.037218</ele>
        <time>2021-03-25T10:32:27.000Z</time>
      </trkpt>
      <trkpt lat="43.70644" lon="-1.42055">
        <ele>-34.774386</ele>
        <time>2021-03-25T10:32:32.000Z</time>
      </trkpt>
      <trkpt lat="43.70651" lon="-1.42057">
        <ele>-34.653676</ele>
        <time>2021-03-25T10:32:34.000Z</time>
      </trkpt>
      <trkpt lat="43.70666" lon="-1.42066">
        <ele>-34.362073</ele>
        <time>2021-03-25T10:32:37.000Z</time>
      </trkpt>
      <trkpt lat="43.70685" lon="-1.42073">
        <ele>-34.009477</ele>
        <time>2021-03-25T10:32:42.000Z</time>
      </trkpt>
      <trkpt lat="43.70701" lon="-1.42089">
        <ele>-33.659638</ele>
        <time>2021-03-25T10:32:47.000Z</time>
      </trkpt>
      <trkpt lat="43.7071" lon="-1.42096">
        <ele>-33.481491</ele>
        <time>2021-03-25T10:32:49.000Z</time>
      </trkpt>
      <trkpt lat="43.70719" lon="-1.42112">
        <ele>-33.231505</ele>
        <time>2021-03-25T10:32:53.000Z</time>
      </trkpt>
      <trkpt lat="43.70738" lon="-1.42134">
        <ele>-33.507042</ele>
        <time>2021-03-25T10:33:00.000Z</time>
      </trkpt>
      <trkpt lat="43.70752" lon="-1.42164">
        <ele>-33.801156</ele>
        <time>2021-03-25T10:33:05.000Z</time>
      </trkpt>
      <trkpt lat="43.70758" lon="-1.42176">
        <ele>-33.916231</ele>
        <time>2021-03-25T10:33:07.000Z</time>
      </trkpt>
      <trkpt lat="43.70765" lon="-1.42192">
        <ele>-34.068165</ele>
        <time>2021-03-25T10:33:10.000Z</time>
      </trkpt>
      <trkpt lat="43.70774" lon="-1.42206">
        <ele>-34.222747</ele>
        <time>2021-03-25T10:33:13.000Z</time>
      </trkpt>
      <trkpt lat="43.70777" lon="-1.42211">
        <ele>-34.273505</ele>
        <time>2021-03-25T10:33:14.000Z</time>
      </trkpt>
      <trkpt lat="43.70779" lon="-1.42216">
        <ele>-34.3202</ele>
        <time>2021-03-25T10:33:15.000Z</time>
      </trkpt>
      <trkpt lat="43.70788" lon="-1.42233">
        <ele>-34.491185</ele>
        <time>2021-03-25T10:33:18.000Z</time>
      </trkpt>
      <trkpt lat="43.70798" lon="-1.42243">
        <ele>-34.625177</ele>
        <time>2021-03-25T10:33:20.000Z</time>
      </trkpt>
      <trkpt lat="43.70803" lon="-1.42248">
        <ele>-34.69588</ele>
        <time>2021-03-25T10:33:21.000Z</time>
      </trkpt>
      <trkpt lat="43.70811" lon="-1.4226">
        <ele>-34.831999</ele>
        <time>2021-03-25T10:33:23.000Z</time>
      </trkpt>
      <trkpt lat="43.70818" lon="-1.42273">
        <ele>-34.961559</ele>
        <time>2021-03-25T10:33:25.000Z</time>
      </trkpt>
      <trkpt lat="43.70821" lon="-1.42281">
        <ele>-35.033311</ele>
        <time>2021-03-25T10:33:26.000Z</time>
      </trkpt>
      <trkpt lat="43.70834" lon="-1.42308">
        <ele>-35.227012</ele>
        <time>2021-03-25T10:33:30.000Z</time>
      </trkpt>
      <trkpt lat="43.70837" lon="-1.42315">
        <ele>-35.202439</ele>
        <time>2021-03-25T10:33:31.000Z</time>
      </trkpt>
      <trkpt lat="43.70842" lon="-1.42329">
        <ele>-35.156279</ele>
        <time>2021-03-25T10:33:33.000Z</time>
      </trkpt>
      <trkpt lat="43.70856" lon="-1.42379">
        <ele>-35.000869</ele>
        <time>2021-03-25T10:33:40.000Z</time>
      </trkpt>
      <trkpt lat="43.7086" lon="-1.42403">
        <ele>-34.928789</ele>
        <time>2021-03-25T10:33:44.000Z</time>
      </trkpt>
      <trkpt lat="43.70861" lon="-1.42415">
        <ele>-34.893127</ele>
        <time>2021-03-25T10:33:46.000Z</time>
      </trkpt>
      <trkpt lat="43.70861" lon="-1.42427">
        <ele>-34.857881</ele>
        <time>2021-03-25T10:33:48.000Z</time>
      </trkpt>
      <trkpt lat="43.7086" lon="-1.42434">
        <ele>-34.839959</ele>
        <time>2021-03-25T10:33:49.000Z</time>
      </trkpt>
      <trkpt lat="43.70857" lon="-1.42453">
        <ele>-34.783255</ele>
        <time>2021-03-25T10:33:52.000Z</time>
      </trkpt>
      <trkpt lat="43.70856" lon="-1.42464">
        <ele>-34.74873</ele>
        <time>2021-03-25T10:33:54.000Z</time>
      </trkpt>
      <trkpt lat="43.70853" lon="-1.42482">
        <ele>-34.694954</ele>
        <time>2021-03-25T10:33:57.000Z</time>
      </trkpt>
      <trkpt lat="43.70848" lon="-1.42505">
        <ele>-34.626101</ele>
        <time>2021-03-25T10:34:01.000Z</time>
      </trkpt>
      <trkpt lat="43.70847" lon="-1.42511">
        <ele>-34.607192</ele>
        <time>2021-03-25T10:34:02.000Z</time>
      </trkpt>
      <trkpt lat="43.70845" lon="-1.42518">
        <ele>-34.586928</ele>
        <time>2021-03-25T10:34:03.000Z</time>
      </trkpt>
      <trkpt lat="43.70843" lon="-1.42524">
        <ele>-34.568296</ele>
        <time>2021-03-25T10:34:04.000Z</time>
      </trkpt>
      <trkpt lat="43.70834" lon="-1.42554">
        <ele>-34.662458</ele>
        <time>2021-03-25T10:34:09.000Z</time>
      </trkpt>
      <trkpt lat="43.70816" lon="-1.42618">
        <ele>-35.270811</ele>
        <time>2021-03-25T10:34:19.000Z</time>
      </trkpt>
      <trkpt lat="43.70811" lon="-1.4264">
        <ele>-35.468085</ele>
        <time>2021-03-25T10:34:22.000Z</time>
      </trkpt>
      <trkpt lat="43.70803" lon="-1.42668">
        <ele>-35.734402</ele>
        <time>2021-03-25T10:34:26.000Z</time>
      </trkpt>
      <trkpt lat="43.70798" lon="-1.42688">
        <ele>-35.920075</ele>
        <time>2021-03-25T10:34:29.000Z</time>
      </trkpt>
      <trkpt lat="43.70791" lon="-1.42696">
        <ele>-36.024984</ele>
        <time>2021-03-25T10:34:31.000Z</time>
      </trkpt>
      <trkpt lat="43.70788" lon="-1.427">
        <ele>-36.078944</ele>
        <time>2021-03-25T10:34:32.000Z</time>
      </trkpt>
      <trkpt lat="43.70783" lon="-1.42711">
        <ele>-36.190355</ele>
        <time>2021-03-25T10:34:34.000Z</time>
      </trkpt>
      <trkpt lat="43.70782" lon="-1.42717">
        <ele>-36.246465</ele>
        <time>2021-03-25T10:34:35.000Z</time>
      </trkpt>
      <trkpt lat="43.70779" lon="-1.42729">
        <ele>-36.359889</ele>
        <time>2021-03-25T10:34:37.000Z</time>
      </trkpt>
      <trkpt lat="43.70773" lon="-1.4275">
        <ele>-36.554373</ele>
        <time>2021-03-25T10:34:40.000Z</time>
      </trkpt>
      <trkpt lat="43.70771" lon="-1.42757">
        <ele>-36.618382</ele>
        <time>2021-03-25T10:34:41.000Z</time>
      </trkpt>
      <trkpt lat="43.7077" lon="-1.42763">
        <ele>-36.679873</ele>
        <time>2021-03-25T10:34:42.000Z</time>
      </trkpt>
      <trkpt lat="43.70768" lon="-1.4277">
        <ele>-36.739936</ele>
        <time>2021-03-25T10:34:43.000Z</time>
      </trkpt>
      <trkpt lat="43.70759" lon="-1.42788">
        <ele>-36.922343</ele>
        <time>2021-03-25T10:34:46.000Z</time>
      </trkpt>
      <trkpt lat="43.7075" lon="-1.42818">
        <ele>-37.187712</ele>
        <time>2021-03-25T10:34:50.000Z</time>
      </trkpt>
      <trkpt lat="43.70749" lon="-1.42825">
        <ele>-37.249502</ele>
        <time>2021-03-25T10:34:51.000Z</time>
      </trkpt>
      <trkpt lat="43.70748" lon="-1.42832">
        <ele>-37.311363</ele>
        <time>2021-03-25T10:34:52.000Z</time>
      </trkpt>
      <trkpt lat="43.70746" lon="-1.42862">
        <ele>-37.559926</ele>
        <time>2021-03-25T10:34:56.000Z</time>
      </trkpt>
      <trkpt lat="43.70744" lon="-1.42877">
        <ele>-37.692713</ele>
        <time>2021-03-25T10:34:58.000Z</time>
      </trkpt>
      <trkpt lat="43.7074" lon="-1.42898">
        <ele>-37.873812</ele>
        <time>2021-03-25T10:35:01.000Z</time>
      </trkpt>
      <trkpt lat="43.70738" lon="-1.42919">
        <ele>-38.045846</ele>
        <time>2021-03-25T10:35:04.000Z</time>
      </trkpt>
      <trkpt lat="43.70738" lon="-1.42925">
        <ele>-38.098265</ele>
        <time>2021-03-25T10:35:05.000Z</time>
      </trkpt>
      <trkpt lat="43.70739" lon="-1.42931">
        <ele>-38.149338</ele>
        <time>2021-03-25T10:35:06.000Z</time>
      </trkpt>
      <trkpt lat="43.70737" lon="-1.42943">
        <ele>-38.250051</ele>
        <time>2021-03-25T10:35:08.000Z</time>
      </trkpt>
      <trkpt lat="43.70733" lon="-1.42954">
        <ele>-38.354177</ele>
        <time>2021-03-25T10:35:10.000Z</time>
      </trkpt>
      <trkpt lat="43.70718" lon="-1.43006">
        <ele>-38.785119</ele>
        <time>2021-03-25T10:35:19.000Z</time>
      </trkpt>
      <trkpt lat="43.70712" lon="-1.43025">
        <ele>-38.803262</ele>
        <time>2021-03-25T10:35:22.000Z</time>
      </trkpt>
      <trkpt lat="43.70707" lon="-1.43036">
        <ele>-38.81562</ele>
        <time>2021-03-25T10:35:24.000Z</time>
      </trkpt>
      <trkpt lat="43.70701" lon="-1.4304">
        <ele>-38.823092</ele>
        <time>2021-03-25T10:35:25.000Z</time>
      </trkpt>
      <trkpt lat="43.70692" lon="-1.43049">
        <ele>-38.837399</ele>
        <time>2021-03-25T10:35:27.000Z</time>
      </trkpt>
      <trkpt lat="43.70678" lon="-1.43059">
        <ele>-38.856833</ele>
        <time>2021-03-25T10:35:30.000Z</time>
      </trkpt>
      <trkpt lat="43.70628" lon="-1.43095">
        <ele>-38.925274</ele>
        <time>2021-03-25T10:35:40.000Z</time>
      </trkpt>
      <trkpt lat="43.70621" lon="-1.431">
        <ele>-38.935922</ele>
        <time>2021-03-25T10:35:42.000Z</time>
      </trkpt>
      <trkpt lat="43.70611" lon="-1.4311">
        <ele>-38.951398</ele>
        <time>2021-03-25T10:35:45.000Z</time>
      </trkpt>
      <trkpt lat="43.70576" lon="-1.43146">
        <ele>-38.978929</ele>
        <time>2021-03-25T10:35:55.000Z</time>
      </trkpt>
      <trkpt lat="43.70561" lon="-1.4316">
        <ele>-38.678939</ele>
        <time>2021-03-25T10:36:00.000Z</time>
      </trkpt>
      <trkpt lat="43.70545" lon="-1.43172">
        <ele>-38.371304</ele>
        <time>2021-03-25T10:36:05.000Z</time>
      </trkpt>
      <trkpt lat="43.70534" lon="-1.43167">
        <ele>-38.18008</ele>
        <time>2021-03-25T10:36:09.000Z</time>
      </trkpt>
      <trkpt lat="43.7052" lon="-1.43174">
        <ele>-37.929301</ele>
        <time>2021-03-25T10:36:13.000Z</time>
      </trkpt>
      <trkpt lat="43.70518" lon="-1.43178">
        <ele>-37.865933</ele>
        <time>2021-03-25T10:36:14.000Z</time>
      </trkpt>
      <trkpt lat="43.70517" lon="-1.43183">
        <ele>-37.804927</ele>
        <time>2021-03-25T10:36:15.000Z</time>
      </trkpt>
      <trkpt lat="43.70514" lon="-1.43199">
        <ele>-37.605601</ele>
        <time>2021-03-25T10:36:18.000Z</time>
      </trkpt>
      <trkpt lat="43.70503" lon="-1.43212">
        <ele>-37.373383</ele>
        <time>2021-03-25T10:36:22.000Z</time>
      </trkpt>
      <trkpt lat="43.70492" lon="-1.43221">
        <ele>-37.150823</ele>
        <time>2021-03-25T10:36:26.000Z</time>
      </trkpt>
      <trkpt lat="43.70489" lon="-1.43223">
        <ele>-37.099934</ele>
        <time>2021-03-25T10:36:27.000Z</time>
      </trkpt>
      <trkpt lat="43.70486" lon="-1.43225">
        <ele>-37.0496</ele>
        <time>2021-03-25T10:36:28.000Z</time>
      </trkpt>
      <trkpt lat="43.7047" lon="-1.43237">
        <ele>-36.752387</ele>
        <time>2021-03-25T10:36:34.000Z</time>
      </trkpt>
      <trkpt lat="43.70462" lon="-1.43242">
        <ele>-36.598416</ele>
        <time>2021-03-25T10:36:37.000Z</time>
      </trkpt>
      <trkpt lat="43.70457" lon="-1.43246">
        <ele>-36.499227</ele>
        <time>2021-03-25T10:36:39.000Z</time>
      </trkpt>
      <trkpt lat="43.70447" lon="-1.43253">
        <ele>-36.309321</ele>
        <time>2021-03-25T10:36:43.000Z</time>
      </trkpt>
      <trkpt lat="43.70442" lon="-1.43257">
        <ele>-36.220907</ele>
        <time>2021-03-25T10:36:45.000Z</time>
      </trkpt>
      <trkpt lat="43.70437" lon="-1.43261">
        <ele>-36.125127</ele>
        <time>2021-03-25T10:36:47.000Z</time>
      </trkpt>
      <trkpt lat="43.70434" lon="-1.43264">
        <ele>-36.066099</ele>
        <time>2021-03-25T10:36:48.000Z</time>
      </trkpt>
      <trkpt lat="43.70418" lon="-1.43276">
        <ele>-36.241857</ele>
        <time>2021-03-25T10:36:54.000Z</time>
      </trkpt>
      <trkpt lat="43.70393" lon="-1.43294">
        <ele>-36.681836</ele>
        <time>2021-03-25T10:37:02.000Z</time>
      </trkpt>
      <trkpt lat="43.70384" lon="-1.43299">
        <ele>-36.82181</ele>
        <time>2021-03-25T10:37:04.000Z</time>
      </trkpt>
      <trkpt lat="43.70366" lon="-1.43308">
        <ele>-37.123603</ele>
        <time>2021-03-25T10:37:08.000Z</time>
      </trkpt>
      <trkpt lat="43.70352" lon="-1.43315">
        <ele>-37.350764</ele>
        <time>2021-03-25T10:37:11.000Z</time>
      </trkpt>
      <trkpt lat="43.70342" lon="-1.43319">
        <ele>-37.497607</ele>
        <time>2021-03-25T10:37:13.000Z</time>
      </trkpt>
      <trkpt lat="43.70338" lon="-1.43321">
        <ele>-37.562898</ele>
        <time>2021-03-25T10:37:14.000Z</time>
      </trkpt>
      <trkpt lat="43.70334" lon="-1.43323">
        <ele>-37.628543</ele>
        <time>2021-03-25T10:37:15.000Z</time>
      </trkpt>
      <trkpt lat="43.7033" lon="-1.43324">
        <ele>-37.690574</ele>
        <time>2021-03-25T10:37:16.000Z</time>
      </trkpt>
      <trkpt lat="43.70322" lon="-1.43321">
        <ele>-37.815891</ele>
        <time>2021-03-25T10:37:18.000Z</time>
      </trkpt>
      <trkpt lat="43.70315" lon="-1.43318">
        <ele>-37.934158</ele>
        <time>2021-03-25T10:37:20.000Z</time>
      </trkpt>
      <trkpt lat="43.7031" lon="-1.43318">
        <ele>-38.004366</ele>
        <time>2021-03-25T10:37:21.000Z</time>
      </trkpt>
      <trkpt lat="43.70305" lon="-1.43318">
        <ele>-38.082391</ele>
        <time>2021-03-25T10:37:22.000Z</time>
      </trkpt>
      <trkpt lat="43.70296" lon="-1.43321">
        <ele>-38.231266</ele>
        <time>2021-03-25T10:37:24.000Z</time>
      </trkpt>
      <trkpt lat="43.70292" lon="-1.43323">
        <ele>-38.296407</ele>
        <time>2021-03-25T10:37:25.000Z</time>
      </trkpt>
      <trkpt lat="43.70289" lon="-1.43327">
        <ele>-38.357744</ele>
        <time>2021-03-25T10:37:26.000Z</time>
      </trkpt>
      <trkpt lat="43.70283" lon="-1.43336">
        <ele>-38.487629</ele>
        <time>2021-03-25T10:37:28.000Z</time>
      </trkpt>
      <trkpt lat="43.70275" lon="-1.43339">
        <ele>-38.618268</ele>
        <time>2021-03-25T10:37:30.000Z</time>
      </trkpt>
      <trkpt lat="43.70254" lon="-1.43344">
        <ele>-38.583608</ele>
        <time>2021-03-25T10:37:34.000Z</time>
      </trkpt>
      <trkpt lat="43.70248" lon="-1.43345">
        <ele>-38.501798</ele>
        <time>2021-03-25T10:37:35.000Z</time>
      </trkpt>
      <trkpt lat="43.70213" lon="-1.43348">
        <ele>-38.013739</ele>
        <time>2021-03-25T10:37:42.000Z</time>
      </trkpt>
      <trkpt lat="43.70196" lon="-1.43347">
        <ele>-37.764638</ele>
        <time>2021-03-25T10:37:47.000Z</time>
      </trkpt>
      <trkpt lat="43.70192" lon="-1.43347">
        <ele>-37.716717</ele>
        <time>2021-03-25T10:37:48.000Z</time>
      </trkpt>
      <trkpt lat="43.70172" lon="-1.43347">
        <ele>-37.435389</ele>
        <time>2021-03-25T10:37:54.000Z</time>
      </trkpt>
      <trkpt lat="43.7017" lon="-1.43347">
        <ele>-37.40021</ele>
        <time>2021-03-25T10:37:55.000Z</time>
      </trkpt>
      <trkpt lat="43.70166" lon="-1.43347">
        <ele>-37.355187</ele>
        <time>2021-03-25T10:37:56.000Z</time>
      </trkpt>
      <trkpt lat="43.7016" lon="-1.43347">
        <ele>-37.260939</ele>
        <time>2021-03-25T10:37:58.000Z</time>
      </trkpt>
      <trkpt lat="43.70154" lon="-1.43347">
        <ele>-37.182144</ele>
        <time>2021-03-25T10:38:00.000Z</time>
      </trkpt>
      <trkpt lat="43.70147" lon="-1.43347">
        <ele>-37.086473</ele>
        <time>2021-03-25T10:38:02.000Z</time>
      </trkpt>
      <trkpt lat="43.70141" lon="-1.43348">
        <ele>-37.001778</ele>
        <time>2021-03-25T10:38:04.000Z</time>
      </trkpt>
      <trkpt lat="43.7013" lon="-1.43349">
        <ele>-36.841103</ele>
        <time>2021-03-25T10:38:07.000Z</time>
      </trkpt>
      <trkpt lat="43.70118" lon="-1.43349">
        <ele>-36.673715</ele>
        <time>2021-03-25T10:38:10.000Z</time>
      </trkpt>
      <trkpt lat="43.70071" lon="-1.4335">
        <ele>-36.407387</ele>
        <time>2021-03-25T10:38:22.000Z</time>
      </trkpt>
      <trkpt lat="43.70031" lon="-1.43355">
        <ele>-36.889223</ele>
        <time>2021-03-25T10:38:32.000Z</time>
      </trkpt>
      <trkpt lat="43.7002" lon="-1.43355">
        <ele>-37.01864</ele>
        <time>2021-03-25T10:38:35.000Z</time>
      </trkpt>
      <trkpt lat="43.69999" lon="-1.43356">
        <ele>-37.262886</ele>
        <time>2021-03-25T10:38:41.000Z</time>
      </trkpt>
      <trkpt lat="43.69994" lon="-1.43352">
        <ele>-37.341287</ele>
        <time>2021-03-25T10:38:43.000Z</time>
      </trkpt>
      <trkpt lat="43.69988" lon="-1.43345">
        <ele>-37.426965</ele>
        <time>2021-03-25T10:38:45.000Z</time>
      </trkpt>
      <trkpt lat="43.69971" lon="-1.43335">
        <ele>-37.647889</ele>
        <time>2021-03-25T10:38:50.000Z</time>
      </trkpt>
      <trkpt lat="43.69955" lon="-1.43345">
        <ele>-37.855008</ele>
        <time>2021-03-25T10:38:54.000Z</time>
      </trkpt>
      <trkpt lat="43.69949" lon="-1.43353">
        <ele>-37.954181</ele>
        <time>2021-03-25T10:38:56.000Z</time>
      </trkpt>
      <trkpt lat="43.69945" lon="-1.4336">
        <ele>-38.032889</ele>
        <time>2021-03-25T10:38:58.000Z</time>
      </trkpt>
      <trkpt lat="43.69932" lon="-1.43362">
        <ele>-38.182705</ele>
        <time>2021-03-25T10:39:01.000Z</time>
      </trkpt>
      <trkpt lat="43.69927" lon="-1.43362">
        <ele>-38.248093</ele>
        <time>2021-03-25T10:39:02.000Z</time>
      </trkpt>
      <trkpt lat="43.69909" lon="-1.43364">
        <ele>-38.384533</ele>
        <time>2021-03-25T10:39:05.000Z</time>
      </trkpt>
      <trkpt lat="43.69896" lon="-1.43365">
        <ele>-38.419287</ele>
        <time>2021-03-25T10:39:07.000Z</time>
      </trkpt>
      <trkpt lat="43.69879" lon="-1.43364">
        <ele>-38.465954</ele>
        <time>2021-03-25T10:39:10.000Z</time>
      </trkpt>
      <trkpt lat="43.69871" lon="-1.43361">
        <ele>-38.48891</ele>
        <time>2021-03-25T10:39:12.000Z</time>
      </trkpt>
      <trkpt lat="43.69863" lon="-1.43363">
        <ele>-38.512372</ele>
        <time>2021-03-25T10:39:14.000Z</time>
      </trkpt>
      <trkpt lat="43.69854" lon="-1.43367">
        <ele>-38.539458</ele>
        <time>2021-03-25T10:39:16.000Z</time>
      </trkpt>
      <trkpt lat="43.69847" lon="-1.43368">
        <ele>-38.559915</ele>
        <time>2021-03-25T10:39:18.000Z</time>
      </trkpt>
      <trkpt lat="43.6984" lon="-1.43364">
        <ele>-38.579662</ele>
        <time>2021-03-25T10:39:20.000Z</time>
      </trkpt>
      <trkpt lat="43.69834" lon="-1.43351">
        <ele>-38.611731</ele>
        <time>2021-03-25T10:39:23.000Z</time>
      </trkpt>
      <trkpt lat="43.69832" lon="-1.43346">
        <ele>-38.622633</ele>
        <time>2021-03-25T10:39:24.000Z</time>
      </trkpt>
      <trkpt lat="43.69821" lon="-1.43338">
        <ele>-38.656979</ele>
        <time>2021-03-25T10:39:28.000Z</time>
      </trkpt>
      <trkpt lat="43.69804" lon="-1.4334">
        <ele>-38.705411</ele>
        <time>2021-03-25T10:39:34.000Z</time>
      </trkpt>
      <trkpt lat="43.69781" lon="-1.43351">
        <ele>-38.772699</ele>
        <time>2021-03-25T10:39:41.000Z</time>
      </trkpt>
      <trkpt lat="43.6978" lon="-1.43368">
        <ele>-38.807751</ele>
        <time>2021-03-25T10:39:45.000Z</time>
      </trkpt>
      <trkpt lat="43.69776" lon="-1.43374">
        <ele>-38.822234</ele>
        <time>2021-03-25T10:39:47.000Z</time>
      </trkpt>
      <trkpt lat="43.69773" lon="-1.43375">
        <ele>-38.831758</ele>
        <time>2021-03-25T10:39:48.000Z</time>
      </trkpt>
      <trkpt lat="43.69764" lon="-1.43377">
        <ele>-38.856119</ele>
        <time>2021-03-25T10:39:51.000Z</time>
      </trkpt>
      <trkpt lat="43.69755" lon="-1.43377">
        <ele>-38.719494</ele>
        <time>2021-03-25T10:39:54.000Z</time>
      </trkpt>
      <trkpt lat="43.69751" lon="-1.43377">
        <ele>-38.647997</ele>
        <time>2021-03-25T10:39:55.000Z</time>
      </trkpt>
      <trkpt lat="43.69733" lon="-1.43379">
        <ele>-38.353824</ele>
        <time>2021-03-25T10:40:00.000Z</time>
      </trkpt>
      <trkpt lat="43.69721" lon="-1.43379">
        <ele>-38.136915</ele>
        <time>2021-03-25T10:40:03.000Z</time>
      </trkpt>
      <trkpt lat="43.69703" lon="-1.43381">
        <ele>-37.843545</ele>
        <time>2021-03-25T10:40:07.000Z</time>
      </trkpt>
      <trkpt lat="43.69681" lon="-1.43382">
        <ele>-37.46368</ele>
        <time>2021-03-25T10:40:12.000Z</time>
      </trkpt>
      <trkpt lat="43.69676" lon="-1.43383">
        <ele>-37.387002</ele>
        <time>2021-03-25T10:40:13.000Z</time>
      </trkpt>
      <trkpt lat="43.69642" lon="-1.43393">
        <ele>-36.79419</ele>
        <time>2021-03-25T10:40:21.000Z</time>
      </trkpt>
      <trkpt lat="43.69631" lon="-1.434">
        <ele>-36.580944</ele>
        <time>2021-03-25T10:40:24.000Z</time>
      </trkpt>
      <trkpt lat="43.69616" lon="-1.43412">
        <ele>-36.295151</ele>
        <time>2021-03-25T10:40:28.000Z</time>
      </trkpt>
      <trkpt lat="43.69598" lon="-1.4344">
        <ele>-35.838056</ele>
        <time>2021-03-25T10:40:35.000Z</time>
      </trkpt>
      <trkpt lat="43.69593" lon="-1.43452">
        <ele>-35.707148</ele>
        <time>2021-03-25T10:40:38.000Z</time>
      </trkpt>
      <trkpt lat="43.69588" lon="-1.43465">
        <ele>-35.586833</ele>
        <time>2021-03-25T10:40:41.000Z</time>
      </trkpt>
      <trkpt lat="43.69584" lon="-1.43485">
        <ele>-35.406489</ele>
        <time>2021-03-25T10:40:46.000Z</time>
      </trkpt>
      <trkpt lat="43.69582" lon="-1.43492">
        <ele>-35.335115</ele>
        <time>2021-03-25T10:40:48.000Z</time>
      </trkpt>
      <trkpt lat="43.69579" lon="-1.43505">
        <ele>-35.223989</ele>
        <time>2021-03-25T10:40:51.000Z</time>
      </trkpt>
      <trkpt lat="43.69573" lon="-1.43533">
        <ele>-34.966733</ele>
        <time>2021-03-25T10:40:58.000Z</time>
      </trkpt>
      <trkpt lat="43.69572" lon="-1.43537">
        <ele>-34.928388</ele>
        <time>2021-03-25T10:40:59.000Z</time>
      </trkpt>
      <trkpt lat="43.69563" lon="-1.43563">
        <ele>-34.676544</ele>
        <time>2021-03-25T10:41:06.000Z</time>
      </trkpt>
      <trkpt lat="43.69561" lon="-1.43566">
        <ele>-34.642742</ele>
        <time>2021-03-25T10:41:07.000Z</time>
      </trkpt>
      <trkpt lat="43.69555" lon="-1.43578">
        <ele>-34.520441</ele>
        <time>2021-03-25T10:41:11.000Z</time>
      </trkpt>
      <trkpt lat="43.69556" lon="-1.43581">
        <ele>-34.494588</ele>
        <time>2021-03-25T10:41:12.000Z</time>
      </trkpt>
      <trkpt lat="43.69566" lon="-1.43592">
        <ele>-34.343214</ele>
        <time>2021-03-25T10:41:17.000Z</time>
      </trkpt>
      <trkpt lat="43.69568" lon="-1.43601">
        <ele>-34.259975</ele>
        <time>2021-03-25T10:41:20.000Z</time>
      </trkpt>
      <trkpt lat="43.69567" lon="-1.43604">
        <ele>-34.231845</ele>
        <time>2021-03-25T10:41:21.000Z</time>
      </trkpt>
      <trkpt lat="43.69552" lon="-1.43617">
        <ele>-34.020241</ele>
        <time>2021-03-25T10:41:27.000Z</time>
      </trkpt>
      <trkpt lat="43.69542" lon="-1.43623">
        <ele>-33.882086</ele>
        <time>2021-03-25T10:41:30.000Z</time>
      </trkpt>
      <trkpt lat="43.69529" lon="-1.43626">
        <ele>-33.722384</ele>
        <time>2021-03-25T10:41:33.000Z</time>
      </trkpt>
      <trkpt lat="43.69491" lon="-1.43629">
        <ele>-34.355422</ele>
        <time>2021-03-25T10:41:40.000Z</time>
      </trkpt>
      <trkpt lat="43.69475" lon="-1.43626">
        <ele>-34.730292</ele>
        <time>2021-03-25T10:41:43.000Z</time>
      </trkpt>
      <trkpt lat="43.69469" lon="-1.43624">
        <ele>-34.85955</ele>
        <time>2021-03-25T10:41:44.000Z</time>
      </trkpt>
      <trkpt lat="43.69458" lon="-1.4362">
        <ele>-35.111991</ele>
        <time>2021-03-25T10:41:46.000Z</time>
      </trkpt>
      <trkpt lat="43.69442" lon="-1.43611">
        <ele>-35.493967</ele>
        <time>2021-03-25T10:41:49.000Z</time>
      </trkpt>
      <trkpt lat="43.69418" lon="-1.43598">
        <ele>-36.051945</ele>
        <time>2021-03-25T10:41:53.000Z</time>
      </trkpt>
      <trkpt lat="43.69412" lon="-1.43596">
        <ele>-36.189458</ele>
        <time>2021-03-25T10:41:54.000Z</time>
      </trkpt>
      <trkpt lat="43.694" lon="-1.43591">
        <ele>-36.475031</ele>
        <time>2021-03-25T10:41:56.000Z</time>
      </trkpt>
      <trkpt lat="43.69393" lon="-1.43589">
        <ele>-36.618676</ele>
        <time>2021-03-25T10:41:57.000Z</time>
      </trkpt>
      <trkpt lat="43.69376" lon="-1.43583">
        <ele>-37.007509</ele>
        <time>2021-03-25T10:42:01.000Z</time>
      </trkpt>
      <trkpt lat="43.69366" lon="-1.43583">
        <ele>-37.223609</ele>
        <time>2021-03-25T10:42:02.000Z</time>
      </trkpt>
      <trkpt lat="43.69352" lon="-1.43584">
        <ele>-37.534784</ele>
        <time>2021-03-25T10:42:05.000Z</time>
      </trkpt>
      <trkpt lat="43.69334" lon="-1.4359">
        <ele>-37.584454</ele>
        <time>2021-03-25T10:42:09.000Z</time>
      </trkpt>
      <trkpt lat="43.69322" lon="-1.43594">
        <ele>-37.550807</ele>
        <time>2021-03-25T10:42:12.000Z</time>
      </trkpt>
      <trkpt lat="43.69315" lon="-1.43596">
        <ele>-37.531987</ele>
        <time>2021-03-25T10:42:14.000Z</time>
      </trkpt>
      <trkpt lat="43.69304" lon="-1.436">
        <ele>-37.503647</ele>
        <time>2021-03-25T10:42:17.000Z</time>
      </trkpt>
      <trkpt lat="43.69298" lon="-1.43603">
        <ele>-37.486013</ele>
        <time>2021-03-25T10:42:19.000Z</time>
      </trkpt>
      <trkpt lat="43.69294" lon="-1.43604">
        <ele>-37.476647</ele>
        <time>2021-03-25T10:42:20.000Z</time>
      </trkpt>
      <trkpt lat="43.69287" lon="-1.43606">
        <ele>-37.458953</ele>
        <time>2021-03-25T10:42:22.000Z</time>
      </trkpt>
      <trkpt lat="43.69265" lon="-1.43608">
        <ele>-37.399833</ele>
        <time>2021-03-25T10:42:28.000Z</time>
      </trkpt>
      <trkpt lat="43.6926" lon="-1.43608">
        <ele>-37.38839</ele>
        <time>2021-03-25T10:42:29.000Z</time>
      </trkpt>
      <trkpt lat="43.6924" lon="-1.43606">
        <ele>-37.335177</ele>
        <time>2021-03-25T10:42:33.000Z</time>
      </trkpt>
      <trkpt lat="43.69219" lon="-1.436">
        <ele>-37.279626</ele>
        <time>2021-03-25T10:42:37.000Z</time>
      </trkpt>
      <trkpt lat="43.69202" lon="-1.43597">
        <ele>-37.236349</ele>
        <time>2021-03-25T10:42:40.000Z</time>
      </trkpt>
      <trkpt lat="43.69163" lon="-1.4359">
        <ele>-37.185905</ele>
        <time>2021-03-25T10:42:48.000Z</time>
      </trkpt>
      <trkpt lat="43.69155" lon="-1.43593">
        <ele>-37.216628</ele>
        <time>2021-03-25T10:42:50.000Z</time>
      </trkpt>
      <trkpt lat="43.69148" lon="-1.43601">
        <ele>-37.247617</ele>
        <time>2021-03-25T10:42:52.000Z</time>
      </trkpt>
      <trkpt lat="43.69143" lon="-1.43609">
        <ele>-37.277779</ele>
        <time>2021-03-25T10:42:54.000Z</time>
      </trkpt>
      <trkpt lat="43.69135" lon="-1.43615">
        <ele>-37.309025</ele>
        <time>2021-03-25T10:42:56.000Z</time>
      </trkpt>
      <trkpt lat="43.69131" lon="-1.43617">
        <ele>-37.325343</ele>
        <time>2021-03-25T10:42:57.000Z</time>
      </trkpt>
      <trkpt lat="43.69113" lon="-1.4362">
        <ele>-37.389644</ele>
        <time>2021-03-25T10:43:01.000Z</time>
      </trkpt>
      <trkpt lat="43.69099" lon="-1.43622">
        <ele>-37.438952</ele>
        <time>2021-03-25T10:43:04.000Z</time>
      </trkpt>
      <trkpt lat="43.69081" lon="-1.43625">
        <ele>-37.50415</ele>
        <time>2021-03-25T10:43:08.000Z</time>
      </trkpt>
      <trkpt lat="43.69075" lon="-1.4363">
        <ele>-37.531542</ele>
        <time>2021-03-25T10:43:10.000Z</time>
      </trkpt>
      <trkpt lat="43.69065" lon="-1.4363">
        <ele>-37.567683</ele>
        <time>2021-03-25T10:43:13.000Z</time>
      </trkpt>
      <trkpt lat="43.69054" lon="-1.43622">
        <ele>-37.611839</ele>
        <time>2021-03-25T10:43:17.000Z</time>
      </trkpt>
      <trkpt lat="43.69037" lon="-1.43627">
        <ele>-37.676053</ele>
        <time>2021-03-25T10:43:22.000Z</time>
      </trkpt>
      <trkpt lat="43.69007" lon="-1.43637">
        <ele>-37.787644</ele>
        <time>2021-03-25T10:43:30.000Z</time>
      </trkpt>
      <trkpt lat="43.69003" lon="-1.43638">
        <ele>-37.800465</ele>
        <time>2021-03-25T10:43:31.000Z</time>
      </trkpt>
      <trkpt lat="43.68977" lon="-1.43646">
        <ele>-37.957846</ele>
        <time>2021-03-25T10:43:38.000Z</time>
      </trkpt>
      <trkpt lat="43.68956" lon="-1.43652">
        <ele>-38.085929</ele>
        <time>2021-03-25T10:43:43.000Z</time>
      </trkpt>
      <trkpt lat="43.68931" lon="-1.43658">
        <ele>-38.238145</ele>
        <time>2021-03-25T10:43:49.000Z</time>
      </trkpt>
      <trkpt lat="43.68927" lon="-1.4366">
        <ele>-38.261275</ele>
        <time>2021-03-25T10:43:50.000Z</time>
      </trkpt>
      <trkpt lat="43.68896" lon="-1.43668">
        <ele>-38.448565</ele>
        <time>2021-03-25T10:43:58.000Z</time>
      </trkpt>
      <trkpt lat="43.68867" lon="-1.43674">
        <ele>-38.621528</ele>
        <time>2021-03-25T10:44:05.000Z</time>
      </trkpt>
      <trkpt lat="43.68859" lon="-1.43675">
        <ele>-38.674132</ele>
        <time>2021-03-25T10:44:07.000Z</time>
      </trkpt>
      <trkpt lat="43.68846" lon="-1.43679">
        <ele>-38.747446</ele>
        <time>2021-03-25T10:44:10.000Z</time>
      </trkpt>
      <trkpt lat="43.68809" lon="-1.43687">
        <ele>-39.018933</ele>
        <time>2021-03-25T10:44:19.000Z</time>
      </trkpt>
      <trkpt lat="43.68806" lon="-1.43688">
        <ele>-39.054705</ele>
        <time>2021-03-25T10:44:20.000Z</time>
      </trkpt>
      <trkpt lat="43.68792" lon="-1.43689">
        <ele>-39.179654</ele>
        <time>2021-03-25T10:44:24.000Z</time>
      </trkpt>
      <trkpt lat="43.68786" lon="-1.43688">
        <ele>-39.234156</ele>
        <time>2021-03-25T10:44:26.000Z</time>
      </trkpt>
      <trkpt lat="43.68772" lon="-1.43687">
        <ele>-39.3618</ele>
        <time>2021-03-25T10:44:30.000Z</time>
      </trkpt>
      <trkpt lat="43.68758" lon="-1.43685">
        <ele>-39.487539</ele>
        <time>2021-03-25T10:44:33.000Z</time>
      </trkpt>
      <trkpt lat="43.68753" lon="-1.43685">
        <ele>-39.528144</ele>
        <time>2021-03-25T10:44:34.000Z</time>
      </trkpt>
      <trkpt lat="43.68733" lon="-1.43684">
        <ele>-39.712238</ele>
        <time>2021-03-25T10:44:39.000Z</time>
      </trkpt>
      <trkpt lat="43.68729" lon="-1.43684">
        <ele>-39.749357</ele>
        <time>2021-03-25T10:44:40.000Z</time>
      </trkpt>
      <trkpt lat="43.68705" lon="-1.43683">
        <ele>-39.95966</ele>
        <time>2021-03-25T10:44:46.000Z</time>
      </trkpt>
      <trkpt lat="43.68693" lon="-1.43677">
        <ele>-40.077337</ele>
        <time>2021-03-25T10:44:50.000Z</time>
      </trkpt>
      <trkpt lat="43.68681" lon="-1.43671">
        <ele>-40.193473</ele>
        <time>2021-03-25T10:44:53.000Z</time>
      </trkpt>
      <trkpt lat="43.68676" lon="-1.43671">
        <ele>-40.238571</ele>
        <time>2021-03-25T10:44:54.000Z</time>
      </trkpt>
      <trkpt lat="43.68655" lon="-1.43673">
        <ele>-40.427762</ele>
        <time>2021-03-25T10:44:59.000Z</time>
      </trkpt>
      <trkpt lat="43.68642" lon="-1.43677">
        <ele>-40.516289</ele>
        <time>2021-03-25T10:45:02.000Z</time>
      </trkpt>
      <trkpt lat="43.68601" lon="-1.43693">
        <ele>-40.649742</ele>
        <time>2021-03-25T10:45:12.000Z</time>
      </trkpt>
      <trkpt lat="43.6857" lon="-1.43702">
        <ele>-40.748604</ele>
        <time>2021-03-25T10:45:20.000Z</time>
      </trkpt>
      <trkpt lat="43.6856" lon="-1.43703">
        <ele>-40.778841</ele>
        <time>2021-03-25T10:45:22.000Z</time>
      </trkpt>
      <trkpt lat="43.68544" lon="-1.43701">
        <ele>-40.828192</ele>
        <time>2021-03-25T10:45:25.000Z</time>
      </trkpt>
      <trkpt lat="43.68529" lon="-1.43699">
        <ele>-40.874814</ele>
        <time>2021-03-25T10:45:28.000Z</time>
      </trkpt>
      <trkpt lat="43.68511" lon="-1.43694">
        <ele>-40.933633</ele>
        <time>2021-03-25T10:45:32.000Z</time>
      </trkpt>
      <trkpt lat="43.68481" lon="-1.43689">
        <ele>-41.026079</ele>
        <time>2021-03-25T10:45:39.000Z</time>
      </trkpt>
      <trkpt lat="43.68459" lon="-1.43683">
        <ele>-41.117312</ele>
        <time>2021-03-25T10:45:44.000Z</time>
      </trkpt>
      <trkpt lat="43.68436" lon="-1.43676">
        <ele>-41.226409</ele>
        <time>2021-03-25T10:45:49.000Z</time>
      </trkpt>
      <trkpt lat="43.68421" lon="-1.43674">
        <ele>-41.296785</ele>
        <time>2021-03-25T10:45:52.000Z</time>
      </trkpt>
      <trkpt lat="43.68412" lon="-1.43671">
        <ele>-41.341843</ele>
        <time>2021-03-25T10:45:55.000Z</time>
      </trkpt>
      <trkpt lat="43.68393" lon="-1.43669">
        <ele>-41.433221</ele>
        <time>2021-03-25T10:46:00.000Z</time>
      </trkpt>
      <trkpt lat="43.68363" lon="-1.43662">
        <ele>-41.575315</ele>
        <time>2021-03-25T10:46:06.000Z</time>
      </trkpt>
      <trkpt lat="43.68343" lon="-1.43659">
        <ele>-41.668219</ele>
        <time>2021-03-25T10:46:10.000Z</time>
      </trkpt>
      <trkpt lat="43.68335" lon="-1.43658">
        <ele>-41.707609</ele>
        <time>2021-03-25T10:46:12.000Z</time>
      </trkpt>
      <trkpt lat="43.68327" lon="-1.43656">
        <ele>-41.746853</ele>
        <time>2021-03-25T10:46:14.000Z</time>
      </trkpt>
      <trkpt lat="43.68304" lon="-1.4365">
        <ele>-41.858253</ele>
        <time>2021-03-25T10:46:19.000Z</time>
      </trkpt>
      <trkpt lat="43.68284" lon="-1.43651">
        <ele>-41.902348</ele>
        <time>2021-03-25T10:46:23.000Z</time>
      </trkpt>
      <trkpt lat="43.6827" lon="-1.43654">
        <ele>-41.894484</ele>
        <time>2021-03-25T10:46:26.000Z</time>
      </trkpt>
      <trkpt lat="43.68238" lon="-1.43666">
        <ele>-41.875608</ele>
        <time>2021-03-25T10:46:33.000Z</time>
      </trkpt>
      <trkpt lat="43.68234" lon="-1.43668">
        <ele>-41.873195</ele>
        <time>2021-03-25T10:46:34.000Z</time>
      </trkpt>
      <trkpt lat="43.68222" lon="-1.43675">
        <ele>-41.865961</ele>
        <time>2021-03-25T10:46:37.000Z</time>
      </trkpt>
      <trkpt lat="43.68211" lon="-1.4368">
        <ele>-41.859169</ele>
        <time>2021-03-25T10:46:40.000Z</time>
      </trkpt>
      <trkpt lat="43.68203" lon="-1.43684">
        <ele>-41.854702</ele>
        <time>2021-03-25T10:46:42.000Z</time>
      </trkpt>
      <trkpt lat="43.68197" lon="-1.43685">
        <ele>-41.851077</ele>
        <time>2021-03-25T10:46:44.000Z</time>
      </trkpt>
      <trkpt lat="43.68194" lon="-1.43683">
        <ele>-41.849451</ele>
        <time>2021-03-25T10:46:45.000Z</time>
      </trkpt>
      <trkpt lat="43.6819" lon="-1.43678">
        <ele>-41.846149</ele>
        <time>2021-03-25T10:46:47.000Z</time>
      </trkpt>
      <trkpt lat="43.68185" lon="-1.43675">
        <ele>-41.843012</ele>
        <time>2021-03-25T10:46:49.000Z</time>
      </trkpt>
      <trkpt lat="43.68182" lon="-1.43676">
        <ele>-41.841671</ele>
        <time>2021-03-25T10:46:50.000Z</time>
      </trkpt>
      <trkpt lat="43.68175" lon="-1.4369">
        <ele>-41.834543</ele>
        <time>2021-03-25T10:46:54.000Z</time>
      </trkpt>
      <trkpt lat="43.68164" lon="-1.4371">
        <ele>-41.824103</ele>
        <time>2021-03-25T10:46:58.000Z</time>
      </trkpt>
      <trkpt lat="43.68164" lon="-1.4371">
        <ele>-41.824103</ele>
        <time>2021-03-25T10:46:59.000Z</time>
      </trkpt>
      <trkpt lat="43.68141" lon="-1.43739">
        <ele>-41.806781</ele>
        <time>2021-03-25T10:47:04.000Z</time>
      </trkpt>
      <trkpt lat="43.68129" lon="-1.43752">
        <ele>-41.528146</ele>
        <time>2021-03-25T10:47:07.000Z</time>
      </trkpt>
      <trkpt lat="43.68098" lon="-1.43781">
        <ele>-40.793038</ele>
        <time>2021-03-25T10:47:15.000Z</time>
      </trkpt>
      <trkpt lat="43.68087" lon="-1.4379">
        <ele>-40.543232</ele>
        <time>2021-03-25T10:47:18.000Z</time>
      </trkpt>
      <trkpt lat="43.68064" lon="-1.43806">
        <ele>-40.034425</ele>
        <time>2021-03-25T10:47:25.000Z</time>
      </trkpt>
      <trkpt lat="43.68058" lon="-1.43811">
        <ele>-39.899132</ele>
        <time>2021-03-25T10:47:27.000Z</time>
      </trkpt>
      <trkpt lat="43.68043" lon="-1.4382">
        <ele>-39.573028</ele>
        <time>2021-03-25T10:47:33.000Z</time>
      </trkpt>
      <trkpt lat="43.68031" lon="-1.43826">
        <ele>-39.332866</ele>
        <time>2021-03-25T10:47:38.000Z</time>
      </trkpt>
      <trkpt lat="43.68019" lon="-1.43832">
        <ele>-39.076972</ele>
        <time>2021-03-25T10:47:44.000Z</time>
      </trkpt>
      <trkpt lat="43.68014" lon="-1.43834">
        <ele>-38.986535</ele>
        <time>2021-03-25T10:47:46.000Z</time>
      </trkpt>
      <trkpt lat="43.6801" lon="-1.43836">
        <ele>-38.901237</ele>
        <time>2021-03-25T10:47:48.000Z</time>
      </trkpt>
      <trkpt lat="43.68008" lon="-1.43837">
        <ele>-38.857703</ele>
        <time>2021-03-25T10:47:49.000Z</time>
      </trkpt>
      <trkpt lat="43.68004" lon="-1.43838">
        <ele>-38.769559</ele>
        <time>2021-03-25T10:47:51.000Z</time>
      </trkpt>
      <trkpt lat="43.67999" lon="-1.4384">
        <ele>-38.674245</ele>
        <time>2021-03-25T10:47:53.000Z</time>
      </trkpt>
      <trkpt lat="43.67984" lon="-1.43845">
        <ele>-38.36289</ele>
        <time>2021-03-25T10:47:59.000Z</time>
      </trkpt>
      <trkpt lat="43.67959" lon="-1.43853">
        <ele>-38.601025</ele>
        <time>2021-03-25T10:48:07.000Z</time>
      </trkpt>
      <trkpt lat="43.67941" lon="-1.43857">
        <ele>-38.877852</ele>
        <time>2021-03-25T10:48:12.000Z</time>
      </trkpt>
      <trkpt lat="43.67937" lon="-1.43857">
        <ele>-38.939246</ele>
        <time>2021-03-25T10:48:13.000Z</time>
      </trkpt>
      <trkpt lat="43.67928" lon="-1.43857">
        <ele>-39.081424</ele>
        <time>2021-03-25T10:48:15.000Z</time>
      </trkpt>
      <trkpt lat="43.67922" lon="-1.43857">
        <ele>-39.159391</ele>
        <time>2021-03-25T10:48:16.000Z</time>
      </trkpt>
      <trkpt lat="43.67912" lon="-1.43857">
        <ele>-39.318505</ele>
        <time>2021-03-25T10:48:18.000Z</time>
      </trkpt>
      <trkpt lat="43.6789" lon="-1.43854">
        <ele>-39.654502</ele>
        <time>2021-03-25T10:48:22.000Z</time>
      </trkpt>
      <trkpt lat="43.67848" lon="-1.43843">
        <ele>-40.305822</ele>
        <time>2021-03-25T10:48:29.000Z</time>
      </trkpt>
      <trkpt lat="43.67842" lon="-1.43841">
        <ele>-40.398424</ele>
        <time>2021-03-25T10:48:30.000Z</time>
      </trkpt>
      <trkpt lat="43.67811" lon="-1.43829">
        <ele>-40.901148</ele>
        <time>2021-03-25T10:48:36.000Z</time>
      </trkpt>
      <trkpt lat="43.67773" lon="-1.43816">
        <ele>-40.980185</ele>
        <time>2021-03-25T10:48:44.000Z</time>
      </trkpt>
      <trkpt lat="43.6776" lon="-1.43811">
        <ele>-40.960159</ele>
        <time>2021-03-25T10:48:47.000Z</time>
      </trkpt>
      <trkpt lat="43.67743" lon="-1.43805">
        <ele>-40.933678</ele>
        <time>2021-03-25T10:48:52.000Z</time>
      </trkpt>
      <trkpt lat="43.67735" lon="-1.43802">
        <ele>-40.92045</ele>
        <time>2021-03-25T10:48:53.000Z</time>
      </trkpt>
      <trkpt lat="43.67726" lon="-1.43799">
        <ele>-40.906461</ele>
        <time>2021-03-25T10:48:55.000Z</time>
      </trkpt>
      <trkpt lat="43.67716" lon="-1.43796">
        <ele>-40.891984</ele>
        <time>2021-03-25T10:48:57.000Z</time>
      </trkpt>
      <trkpt lat="43.67702" lon="-1.4379">
        <ele>-40.869604</ele>
        <time>2021-03-25T10:49:00.000Z</time>
      </trkpt>
      <trkpt lat="43.67693" lon="-1.43786">
        <ele>-40.855271</ele>
        <time>2021-03-25T10:49:02.000Z</time>
      </trkpt>
      <trkpt lat="43.67671" lon="-1.43778">
        <ele>-40.821145</ele>
        <time>2021-03-25T10:49:07.000Z</time>
      </trkpt>
      <trkpt lat="43.67656" lon="-1.43773">
        <ele>-40.79795</ele>
        <time>2021-03-25T10:49:11.000Z</time>
      </trkpt>
      <trkpt lat="43.67622" lon="-1.43761">
        <ele>-40.805648</ele>
        <time>2021-03-25T10:49:20.000Z</time>
      </trkpt>
      <trkpt lat="43.67592" lon="-1.43753">
        <ele>-41.016196</ele>
        <time>2021-03-25T10:49:28.000Z</time>
      </trkpt>
      <trkpt lat="43.67589" lon="-1.43753">
        <ele>-41.036934</ele>
        <time>2021-03-25T10:49:29.000Z</time>
      </trkpt>
      <trkpt lat="43.67577" lon="-1.43754">
        <ele>-41.121562</ele>
        <time>2021-03-25T10:49:33.000Z</time>
      </trkpt>
      <trkpt lat="43.6757" lon="-1.43756">
        <ele>-41.168745</ele>
        <time>2021-03-25T10:49:35.000Z</time>
      </trkpt>
      <trkpt lat="43.67553" lon="-1.43761">
        <ele>-41.287193</ele>
        <time>2021-03-25T10:49:39.000Z</time>
      </trkpt>
      <trkpt lat="43.67544" lon="-1.43764">
        <ele>-41.351639</ele>
        <time>2021-03-25T10:49:41.000Z</time>
      </trkpt>
      <trkpt lat="43.67534" lon="-1.43766">
        <ele>-41.42538</ele>
        <time>2021-03-25T10:49:43.000Z</time>
      </trkpt>
      <trkpt lat="43.67519" lon="-1.43766">
        <ele>-41.525718</ele>
        <time>2021-03-25T10:49:46.000Z</time>
      </trkpt>
      <trkpt lat="43.67512" lon="-1.43769">
        <ele>-41.578532</ele>
        <time>2021-03-25T10:49:48.000Z</time>
      </trkpt>
      <trkpt lat="43.67509" lon="-1.43774">
        <ele>-41.606255</ele>
        <time>2021-03-25T10:49:49.000Z</time>
      </trkpt>
      <trkpt lat="43.67506" lon="-1.43785">
        <ele>-41.667079</ele>
        <time>2021-03-25T10:49:51.000Z</time>
      </trkpt>
      <trkpt lat="43.67496" lon="-1.438">
        <ele>-41.769913</ele>
        <time>2021-03-25T10:49:54.000Z</time>
      </trkpt>
      <trkpt lat="43.67484" lon="-1.43812">
        <ele>-41.872586</ele>
        <time>2021-03-25T10:49:57.000Z</time>
      </trkpt>
      <trkpt lat="43.67479" lon="-1.43816">
        <ele>-41.909547</ele>
        <time>2021-03-25T10:49:58.000Z</time>
      </trkpt>
      <trkpt lat="43.67471" lon="-1.43825">
        <ele>-41.979056</ele>
        <time>2021-03-25T10:50:00.000Z</time>
      </trkpt>
      <trkpt lat="43.67468" lon="-1.43828">
        <ele>-41.999569</ele>
        <time>2021-03-25T10:50:01.000Z</time>
      </trkpt>
      <trkpt lat="43.67454" lon="-1.43844">
        <ele>-42.008891</ele>
        <time>2021-03-25T10:50:05.000Z</time>
      </trkpt>
      <trkpt lat="43.67422" lon="-1.43874">
        <ele>-42.028992</ele>
        <time>2021-03-25T10:50:14.000Z</time>
      </trkpt>
      <trkpt lat="43.67397" lon="-1.43889">
        <ele>-42.04304</ele>
        <time>2021-03-25T10:50:20.000Z</time>
      </trkpt>
      <trkpt lat="43.67393" lon="-1.43891">
        <ele>-42.045514</ele>
        <time>2021-03-25T10:50:21.000Z</time>
      </trkpt>
      <trkpt lat="43.67383" lon="-1.43895">
        <ele>-42.050589</ele>
        <time>2021-03-25T10:50:23.000Z</time>
      </trkpt>
      <trkpt lat="43.6736" lon="-1.439">
        <ele>-42.063219</ele>
        <time>2021-03-25T10:50:28.000Z</time>
      </trkpt>
      <trkpt lat="43.67336" lon="-1.43904">
        <ele>-42.075785</ele>
        <time>2021-03-25T10:50:33.000Z</time>
      </trkpt>
      <trkpt lat="43.67302" lon="-1.43909">
        <ele>-42.08807</ele>
        <time>2021-03-25T10:50:40.000Z</time>
      </trkpt>
      <trkpt lat="43.67283" lon="-1.43911">
        <ele>-42.0441</ele>
        <time>2021-03-25T10:50:44.000Z</time>
      </trkpt>
      <trkpt lat="43.6726" lon="-1.43914">
        <ele>-41.990994</ele>
        <time>2021-03-25T10:50:49.000Z</time>
      </trkpt>
      <trkpt lat="43.67225" lon="-1.43918">
        <ele>-41.910994</ele>
        <time>2021-03-25T10:50:57.000Z</time>
      </trkpt>
      <trkpt lat="43.67221" lon="-1.43919">
        <ele>-41.900884</ele>
        <time>2021-03-25T10:50:58.000Z</time>
      </trkpt>
      <trkpt lat="43.67207" lon="-1.43921">
        <ele>-41.870598</ele>
        <time>2021-03-25T10:51:01.000Z</time>
      </trkpt>
      <trkpt lat="43.67198" lon="-1.43923">
        <ele>-41.849191</ele>
        <time>2021-03-25T10:51:03.000Z</time>
      </trkpt>
      <trkpt lat="43.67178" lon="-1.43925">
        <ele>-41.80343</ele>
        <time>2021-03-25T10:51:07.000Z</time>
      </trkpt>
      <trkpt lat="43.67169" lon="-1.43926">
        <ele>-41.781126</ele>
        <time>2021-03-25T10:51:09.000Z</time>
      </trkpt>
      <trkpt lat="43.6715" lon="-1.43929">
        <ele>-41.739059</ele>
        <time>2021-03-25T10:51:13.000Z</time>
      </trkpt>
      <trkpt lat="43.67138" lon="-1.4393">
        <ele>-41.709838</ele>
        <time>2021-03-25T10:51:16.000Z</time>
      </trkpt>
      <trkpt lat="43.6713" lon="-1.43932">
        <ele>-41.692345</ele>
        <time>2021-03-25T10:51:18.000Z</time>
      </trkpt>
      <trkpt lat="43.67126" lon="-1.43934">
        <ele>-41.683362</ele>
        <time>2021-03-25T10:51:19.000Z</time>
      </trkpt>
      <trkpt lat="43.67119" lon="-1.43938">
        <ele>-41.690408</ele>
        <time>2021-03-25T10:51:21.000Z</time>
      </trkpt>
      <trkpt lat="43.67104" lon="-1.4394">
        <ele>-41.713579</ele>
        <time>2021-03-25T10:51:25.000Z</time>
      </trkpt>
      <trkpt lat="43.67094" lon="-1.43942">
        <ele>-41.729225</ele>
        <time>2021-03-25T10:51:28.000Z</time>
      </trkpt>
      <trkpt lat="43.67084" lon="-1.43939">
        <ele>-41.744088</ele>
        <time>2021-03-25T10:51:31.000Z</time>
      </trkpt>
      <trkpt lat="43.67071" lon="-1.43918">
        <ele>-41.774316</ele>
        <time>2021-03-25T10:51:36.000Z</time>
      </trkpt>
      <trkpt lat="43.67064" lon="-1.43911">
        <ele>-41.787679</ele>
        <time>2021-03-25T10:51:38.000Z</time>
      </trkpt>
      <trkpt lat="43.67056" lon="-1.43908">
        <ele>-41.801175</ele>
        <time>2021-03-25T10:51:40.000Z</time>
      </trkpt>
      <trkpt lat="43.67047" lon="-1.4391">
        <ele>-41.814895</ele>
        <time>2021-03-25T10:51:42.000Z</time>
      </trkpt>
      <trkpt lat="43.67043" lon="-1.43912">
        <ele>-41.821914</ele>
        <time>2021-03-25T10:51:44.000Z</time>
      </trkpt>
      <trkpt lat="43.67036" lon="-1.43918">
        <ele>-41.83393</ele>
        <time>2021-03-25T10:51:45.000Z</time>
      </trkpt>
      <trkpt lat="43.67029" lon="-1.43923">
        <ele>-41.845671</ele>
        <time>2021-03-25T10:51:47.000Z</time>
      </trkpt>
      <trkpt lat="43.67023" lon="-1.43928">
        <ele>-41.856339</ele>
        <time>2021-03-25T10:51:49.000Z</time>
      </trkpt>
      <trkpt lat="43.67004" lon="-1.43935">
        <ele>-41.886801</ele>
        <time>2021-03-25T10:51:54.000Z</time>
      </trkpt>
      <trkpt lat="43.66996" lon="-1.43937">
        <ele>-41.899252</ele>
        <time>2021-03-25T10:51:56.000Z</time>
      </trkpt>
      <trkpt lat="43.66978" lon="-1.4394">
        <ele>-41.926452</ele>
        <time>2021-03-25T10:52:00.000Z</time>
      </trkpt>
      <trkpt lat="43.66964" lon="-1.43942">
        <ele>-41.947476</ele>
        <time>2021-03-25T10:52:03.000Z</time>
      </trkpt>
      <trkpt lat="43.66951" lon="-1.43943">
        <ele>-41.993591</ele>
        <time>2021-03-25T10:52:06.000Z</time>
      </trkpt>
      <trkpt lat="43.66941" lon="-1.43944">
        <ele>-42.034676</ele>
        <time>2021-03-25T10:52:08.000Z</time>
      </trkpt>
      <trkpt lat="43.66926" lon="-1.43946">
        <ele>-42.099697</ele>
        <time>2021-03-25T10:52:11.000Z</time>
      </trkpt>
      <trkpt lat="43.66922" lon="-1.43946">
        <ele>-42.120163</ele>
        <time>2021-03-25T10:52:12.000Z</time>
      </trkpt>
      <trkpt lat="43.66912" lon="-1.43947">
        <ele>-42.161248</ele>
        <time>2021-03-25T10:52:14.000Z</time>
      </trkpt>
      <trkpt lat="43.66882" lon="-1.43949">
        <ele>-42.291166</ele>
        <time>2021-03-25T10:52:21.000Z</time>
      </trkpt>
      <trkpt lat="43.66858" lon="-1.43952">
        <ele>-42.395941</ele>
        <time>2021-03-25T10:52:27.000Z</time>
      </trkpt>
      <trkpt lat="43.66843" lon="-1.43955">
        <ele>-42.46186</ele>
        <time>2021-03-25T10:52:30.000Z</time>
      </trkpt>
      <trkpt lat="43.66808" lon="-1.43959">
        <ele>-42.615093</ele>
        <time>2021-03-25T10:52:37.000Z</time>
      </trkpt>
      <trkpt lat="43.66782" lon="-1.43962">
        <ele>-42.728324</ele>
        <time>2021-03-25T10:52:42.000Z</time>
      </trkpt>
      <trkpt lat="43.66768" lon="-1.43964">
        <ele>-42.747926</ele>
        <time>2021-03-25T10:52:45.000Z</time>
      </trkpt>
      <trkpt lat="43.66741" lon="-1.43967">
        <ele>-42.769279</ele>
        <time>2021-03-25T10:52:51.000Z</time>
      </trkpt>
      <trkpt lat="43.66737" lon="-1.43968">
        <ele>-42.772504</ele>
        <time>2021-03-25T10:52:52.000Z</time>
      </trkpt>
      <trkpt lat="43.66715" lon="-1.4397">
        <ele>-42.790772</ele>
        <time>2021-03-25T10:52:58.000Z</time>
      </trkpt>
      <trkpt lat="43.66696" lon="-1.43974">
        <ele>-42.806084</ele>
        <time>2021-03-25T10:53:03.000Z</time>
      </trkpt>
      <trkpt lat="43.66683" lon="-1.43978">
        <ele>-42.816636</ele>
        <time>2021-03-25T10:53:06.000Z</time>
      </trkpt>
      <trkpt lat="43.66657" lon="-1.43984">
        <ele>-42.838153</ele>
        <time>2021-03-25T10:53:11.000Z</time>
      </trkpt>
      <trkpt lat="43.66646" lon="-1.43985">
        <ele>-42.846821</ele>
        <time>2021-03-25T10:53:13.000Z</time>
      </trkpt>
      <trkpt lat="43.6662" lon="-1.4399">
        <ele>-42.868339</ele>
        <time>2021-03-25T10:53:18.000Z</time>
      </trkpt>
      <trkpt lat="43.66566" lon="-1.43999">
        <ele>-42.529353</ele>
        <time>2021-03-25T10:53:28.000Z</time>
      </trkpt>
      <trkpt lat="43.6656" lon="-1.43999">
        <ele>-42.476697</ele>
        <time>2021-03-25T10:53:29.000Z</time>
      </trkpt>
      <trkpt lat="43.6654" lon="-1.44002">
        <ele>-42.274773</ele>
        <time>2021-03-25T10:53:33.000Z</time>
      </trkpt>
      <trkpt lat="43.66514" lon="-1.44006">
        <ele>-42.027703</ele>
        <time>2021-03-25T10:53:39.000Z</time>
      </trkpt>
      <trkpt lat="43.66506" lon="-1.44007">
        <ele>-41.943713</ele>
        <time>2021-03-25T10:53:41.000Z</time>
      </trkpt>
      <trkpt lat="43.66479" lon="-1.44011">
        <ele>-41.677598</ele>
        <time>2021-03-25T10:53:48.000Z</time>
      </trkpt>
      <trkpt lat="43.66475" lon="-1.44011">
        <ele>-41.643503</ele>
        <time>2021-03-25T10:53:49.000Z</time>
      </trkpt>
      <trkpt lat="43.66472" lon="-1.44012">
        <ele>-41.613203</ele>
        <time>2021-03-25T10:53:50.000Z</time>
      </trkpt>
      <trkpt lat="43.66466" lon="-1.44011">
        <ele>-41.552945</ele>
        <time>2021-03-25T10:53:52.000Z</time>
      </trkpt>
      <trkpt lat="43.66463" lon="-1.4401">
        <ele>-41.520931</ele>
        <time>2021-03-25T10:53:53.000Z</time>
      </trkpt>
      <trkpt lat="43.66449" lon="-1.43998">
        <ele>-41.367122</ele>
        <time>2021-03-25T10:53:58.000Z</time>
      </trkpt>
      <trkpt lat="43.66447" lon="-1.43998">
        <ele>-41.346304</ele>
        <time>2021-03-25T10:53:59.000Z</time>
      </trkpt>
      <trkpt lat="43.66443" lon="-1.44">
        <ele>-41.305743</ele>
        <time>2021-03-25T10:54:01.000Z</time>
      </trkpt>
      <trkpt lat="43.6644" lon="-1.4401">
        <ele>-41.227034</ele>
        <time>2021-03-25T10:54:04.000Z</time>
      </trkpt>
      <trkpt lat="43.66434" lon="-1.44016">
        <ele>-41.162918</ele>
        <time>2021-03-25T10:54:06.000Z</time>
      </trkpt>
      <trkpt lat="43.66424" lon="-1.44018">
        <ele>-41.013142</ele>
        <time>2021-03-25T10:54:09.000Z</time>
      </trkpt>
      <trkpt lat="43.66419" lon="-1.44018">
        <ele>-40.944706</ele>
        <time>2021-03-25T10:54:10.000Z</time>
      </trkpt>
      <trkpt lat="43.6641" lon="-1.44021">
        <ele>-40.800439</ele>
        <time>2021-03-25T10:54:12.000Z</time>
      </trkpt>
      <trkpt lat="43.66382" lon="-1.44026">
        <ele>-40.367406</ele>
        <time>2021-03-25T10:54:18.000Z</time>
      </trkpt>
      <trkpt lat="43.66364" lon="-1.4403">
        <ele>-40.076013</ele>
        <time>2021-03-25T10:54:22.000Z</time>
      </trkpt>
      <trkpt lat="43.66355" lon="-1.44031">
        <ele>-39.945912</ele>
        <time>2021-03-25T10:54:24.000Z</time>
      </trkpt>
      <trkpt lat="43.66348" lon="-1.44031">
        <ele>-39.829761</ele>
        <time>2021-03-25T10:54:26.000Z</time>
      </trkpt>
      <trkpt lat="43.6634" lon="-1.44032">
        <ele>-39.69989</ele>
        <time>2021-03-25T10:54:29.000Z</time>
      </trkpt>
      <trkpt lat="43.66337" lon="-1.44033">
        <ele>-39.656699</ele>
        <time>2021-03-25T10:54:31.000Z</time>
      </trkpt>
      <trkpt lat="43.66336" lon="-1.44034">
        <ele>-39.637676</ele>
        <time>2021-03-25T10:54:37.000Z</time>
      </trkpt>
      <trkpt lat="43.66336" lon="-1.44034">
        <ele>-39.637676</ele>
        <time>2021-03-25T10:54:43.000Z</time>
      </trkpt>
      <trkpt lat="43.66336" lon="-1.44034">
        <ele>-39.637676</ele>
        <time>2021-03-25T10:54:45.000Z</time>
      </trkpt>
      <trkpt lat="43.66336" lon="-1.44034">
        <ele>-39.637676</ele>
        <time>2021-03-25T10:54:51.000Z</time>
      </trkpt>
      <trkpt lat="43.66337" lon="-1.44033">
        <ele>-39.622196</ele>
        <time>2021-03-25T10:55:11.000Z</time>
      </trkpt>
      <trkpt lat="43.66336" lon="-1.44034">
        <ele>-39.613076</ele>
        <time>2021-03-25T10:55:34.000Z</time>
      </trkpt>
      <trkpt lat="43.66333" lon="-1.44038">
        <ele>-39.543335</ele>
        <time>2021-03-25T10:55:36.000Z</time>
      </trkpt>
      <trkpt lat="43.66329" lon="-1.44043">
        <ele>-39.459253</ele>
        <time>2021-03-25T10:55:38.000Z</time>
      </trkpt>
      <trkpt lat="43.66324" lon="-1.44045">
        <ele>-39.373418</ele>
        <time>2021-03-25T10:55:40.000Z</time>
      </trkpt>
      <trkpt lat="43.66317" lon="-1.44046">
        <ele>-39.266515</ele>
        <time>2021-03-25T10:55:42.000Z</time>
      </trkpt>
      <trkpt lat="43.66291" lon="-1.44053">
        <ele>-38.862849</ele>
        <time>2021-03-25T10:55:50.000Z</time>
      </trkpt>
      <trkpt lat="43.66279" lon="-1.44062">
        <ele>-38.649698</ele>
        <time>2021-03-25T10:55:55.000Z</time>
      </trkpt>
      <trkpt lat="43.66277" lon="-1.44064">
        <ele>-38.619185</ele>
        <time>2021-03-25T10:55:56.000Z</time>
      </trkpt>
      <trkpt lat="43.66274" lon="-1.44071">
        <ele>-38.519535</ele>
        <time>2021-03-25T10:55:59.000Z</time>
      </trkpt>
      <trkpt lat="43.66269" lon="-1.44079">
        <ele>-38.404903</ele>
        <time>2021-03-25T10:56:02.000Z</time>
      </trkpt>
      <trkpt lat="43.66267" lon="-1.44081">
        <ele>-38.371366</ele>
        <time>2021-03-25T10:56:03.000Z</time>
      </trkpt>
      <trkpt lat="43.66261" lon="-1.44097">
        <ele>-38.208407</ele>
        <time>2021-03-25T10:56:08.000Z</time>
      </trkpt>
      <trkpt lat="43.6626" lon="-1.44099">
        <ele>-38.178073</ele>
        <time>2021-03-25T10:56:09.000Z</time>
      </trkpt>
      <trkpt lat="43.66254" lon="-1.44118">
        <ele>-37.987723</ele>
        <time>2021-03-25T10:56:16.000Z</time>
      </trkpt>
      <trkpt lat="43.66252" lon="-1.4414">
        <ele>-37.790151</ele>
        <time>2021-03-25T10:56:23.000Z</time>
      </trkpt>
      <trkpt lat="43.66252" lon="-1.44142">
        <ele>-37.764332</ele>
        <time>2021-03-25T10:56:24.000Z</time>
      </trkpt>
      <trkpt lat="43.66255" lon="-1.44153">
        <ele>-37.661372</ele>
        <time>2021-03-25T10:56:28.000Z</time>
      </trkpt>
      <trkpt lat="43.66258" lon="-1.4416">
        <ele>-37.583714</ele>
        <time>2021-03-25T10:56:31.000Z</time>
      </trkpt>
      <trkpt lat="43.66265" lon="-1.44163">
        <ele>-37.498564</ele>
        <time>2021-03-25T10:56:36.000Z</time>
      </trkpt>
      <trkpt lat="43.66266" lon="-1.44164">
        <ele>-37.477881</ele>
        <time>2021-03-25T10:56:38.000Z</time>
      </trkpt>
      <trkpt lat="43.66269" lon="-1.44166">
        <ele>-37.443008</ele>
        <time>2021-03-25T10:56:40.000Z</time>
      </trkpt>
      <trkpt lat="43.66269" lon="-1.44168">
        <ele>-37.422742</ele>
        <time>2021-03-25T10:56:41.000Z</time>
      </trkpt>
      <trkpt lat="43.66271" lon="-1.4418">
        <ele>-37.31308</ele>
        <time>2021-03-25T10:56:45.000Z</time>
      </trkpt>
      <trkpt lat="43.66271" lon="-1.44188">
        <ele>-37.240064</ele>
        <time>2021-03-25T10:56:48.000Z</time>
      </trkpt>
      <trkpt lat="43.66267" lon="-1.44198">
        <ele>-37.127169</ele>
        <time>2021-03-25T10:56:52.000Z</time>
      </trkpt>
      <trkpt lat="43.66266" lon="-1.44201">
        <ele>-37.097547</ele>
        <time>2021-03-25T10:56:53.000Z</time>
      </trkpt>
      <trkpt lat="43.66268" lon="-1.44223">
        <ele>-36.901628</ele>
        <time>2021-03-25T10:57:01.000Z</time>
      </trkpt>
      <trkpt lat="43.66273" lon="-1.44237">
        <ele>-36.7562</ele>
        <time>2021-03-25T10:57:06.000Z</time>
      </trkpt>
      <trkpt lat="43.66276" lon="-1.44241">
        <ele>-36.704544</ele>
        <time>2021-03-25T10:57:08.000Z</time>
      </trkpt>
      <trkpt lat="43.6628" lon="-1.4425">
        <ele>-36.609136</ele>
        <time>2021-03-25T10:57:13.000Z</time>
      </trkpt>
      <trkpt lat="43.66282" lon="-1.4426">
        <ele>-36.510901</ele>
        <time>2021-03-25T10:57:16.000Z</time>
      </trkpt>
      <trkpt lat="43.66285" lon="-1.44268">
        <ele>-36.432261</ele>
        <time>2021-03-25T10:57:18.000Z</time>
      </trkpt>
      <trkpt lat="43.6629" lon="-1.44277">
        <ele>-36.331012</ele>
        <time>2021-03-25T10:57:21.000Z</time>
      </trkpt>
      <trkpt lat="43.66291" lon="-1.44279">
        <ele>-36.309921</ele>
        <time>2021-03-25T10:57:22.000Z</time>
      </trkpt>
      <trkpt lat="43.66292" lon="-1.44283">
        <ele>-36.274275</ele>
        <time>2021-03-25T10:57:24.000Z</time>
      </trkpt>
      <trkpt lat="43.66296" lon="-1.44292">
        <ele>-36.172149</ele>
        <time>2021-03-25T10:57:29.000Z</time>
      </trkpt>
      <trkpt lat="43.66296" lon="-1.44292">
        <ele>-36.172149</ele>
        <time>2021-03-25T10:57:30.000Z</time>
      </trkpt>
      <trkpt lat="43.66299" lon="-1.44291">
        <ele>-36.134048</ele>
        <time>2021-03-25T10:57:31.000Z</time>
      </trkpt>
      <trkpt lat="43.66304" lon="-1.44288">
        <ele>-36.064146</ele>
        <time>2021-03-25T10:57:35.000Z</time>
      </trkpt>
      <trkpt lat="43.66308" lon="-1.4429">
        <ele>-36.014727</ele>
        <time>2021-03-25T10:57:39.000Z</time>
      </trkpt>
      <trkpt lat="43.66309" lon="-1.44292">
        <ele>-35.991883</ele>
        <time>2021-03-25T10:57:40.000Z</time>
      </trkpt>
      <trkpt lat="43.6631" lon="-1.44304">
        <ele>-35.884329</ele>
        <time>2021-03-25T10:57:45.000Z</time>
      </trkpt>
      <trkpt lat="43.66311" lon="-1.44305">
        <ele>-35.870273</ele>
        <time>2021-03-25T10:57:49.000Z</time>
      </trkpt>
      <trkpt lat="43.66311" lon="-1.44305">
        <ele>-35.870273</ele>
        <time>2021-03-25T10:58:04.000Z</time>
      </trkpt>
      <trkpt lat="43.66311" lon="-1.44306">
        <ele>-35.866686</ele>
        <time>2021-03-25T10:58:12.000Z</time>
      </trkpt>
      <trkpt lat="43.66311" lon="-1.44306">
        <ele>-35.866686</ele>
        <time>2021-03-25T10:58:14.000Z</time>
      </trkpt>
      <trkpt lat="43.66311" lon="-1.44305">
        <ele>-35.863099</ele>
        <time>2021-03-25T10:58:23.000Z</time>
      </trkpt>
      <trkpt lat="43.66311" lon="-1.44305">
        <ele>-35.863099</ele>
        <time>2021-03-25T10:58:29.000Z</time>
      </trkpt>
      <trkpt lat="43.66311" lon="-1.44305">
        <ele>-35.863099</ele>
        <time>2021-03-25T10:58:56.000Z</time>
      </trkpt>
      <trkpt lat="43.66311" lon="-1.44305">
        <ele>-35.863099</ele>
        <time>2021-03-25T10:59:11.000Z</time>
      </trkpt>
      <trkpt lat="43.66311" lon="-1.44305">
        <ele>-35.863099</ele>
        <time>2021-03-25T10:59:16.000Z</time>
      </trkpt>
      <trkpt lat="43.66311" lon="-1.44305">
        <ele>-35.863099</ele>
        <time>2021-03-25T10:59:40.000Z</time>
      </trkpt>
      <trkpt lat="43.66311" lon="-1.44305">
        <ele>-35.859378</ele>
        <time>2021-03-25T10:59:51.000Z</time>
      </trkpt>
      <trkpt lat="43.66311" lon="-1.44305">
        <ele>-35.858499</ele>
        <time>2021-03-25T10:59:57.000Z</time>
      </trkpt>
      <trkpt lat="43.66311" lon="-1.44305">
        <ele>-35.857284</ele>
        <time>2021-03-25T11:00:07.000Z</time>
      </trkpt>
      <trkpt lat="43.66311" lon="-1.44305">
        <ele>-35.855525</ele>
        <time>2021-03-25T11:00:14.000Z</time>
      </trkpt>
      <trkpt lat="43.66311" lon="-1.44305">
        <ele>-35.85431</ele>
        <time>2021-03-25T11:00:35.000Z</time>
      </trkpt>
      <trkpt lat="43.6631" lon="-1.44305">
        <ele>-35.846965</ele>
        <time>2021-03-25T11:00:56.000Z</time>
      </trkpt>
      <trkpt lat="43.6631" lon="-1.44305">
        <ele>-35.846965</ele>
        <time>2021-03-25T11:01:12.000Z</time>
      </trkpt>
      <trkpt lat="43.6631" lon="-1.44305">
        <ele>-35.846965</ele>
        <time>2021-03-25T11:01:22.000Z</time>
      </trkpt>
      <trkpt lat="43.6631" lon="-1.44305">
        <ele>-35.846965</ele>
        <time>2021-03-25T11:01:26.000Z</time>
      </trkpt>
      <trkpt lat="43.6631" lon="-1.44305">
        <ele>-35.846965</ele>
        <time>2021-03-25T11:01:36.000Z</time>
      </trkpt>
      <trkpt lat="43.6631" lon="-1.44305">
        <ele>-35.846965</ele>
        <time>2021-03-25T11:01:38.000Z</time>
      </trkpt>
      <trkpt lat="43.66308" lon="-1.44305">
        <ele>-35.818517</ele>
        <time>2021-03-25T11:01:42.000Z</time>
      </trkpt>
      <trkpt lat="43.66307" lon="-1.44303">
        <ele>-35.802823</ele>
        <time>2021-03-25T11:01:43.000Z</time>
      </trkpt>
      <trkpt lat="43.66308" lon="-1.44295">
        <ele>-35.729709</ele>
        <time>2021-03-25T11:01:47.000Z</time>
      </trkpt>
      <trkpt lat="43.66308" lon="-1.44293">
        <ele>-35.712124</ele>
        <time>2021-03-25T11:01:48.000Z</time>
      </trkpt>
      <trkpt lat="43.66307" lon="-1.4429">
        <ele>-35.683569</ele>
        <time>2021-03-25T11:01:50.000Z</time>
      </trkpt>
      <trkpt lat="43.66303" lon="-1.44289">
        <ele>-35.632969</ele>
        <time>2021-03-25T11:01:53.000Z</time>
      </trkpt>
      <trkpt lat="43.66297" lon="-1.44293">
        <ele>-35.55303</ele>
        <time>2021-03-25T11:01:57.000Z</time>
      </trkpt>
      <trkpt lat="43.66295" lon="-1.44292">
        <ele>-35.532293</ele>
        <time>2021-03-25T11:01:58.000Z</time>
      </trkpt>
      <trkpt lat="43.66293" lon="-1.4429">
        <ele>-35.490283</ele>
        <time>2021-03-25T11:02:00.000Z</time>
      </trkpt>
      <trkpt lat="43.6629" lon="-1.44285">
        <ele>-35.439696</ele>
        <time>2021-03-25T11:02:04.000Z</time>
      </trkpt>
      <trkpt lat="43.66289" lon="-1.44284">
        <ele>-35.420289</ele>
        <time>2021-03-25T11:02:06.000Z</time>
      </trkpt>
      <trkpt lat="43.66281" lon="-1.4427">
        <ele>-35.265186</ele>
        <time>2021-03-25T11:02:11.000Z</time>
      </trkpt>
      <trkpt lat="43.66275" lon="-1.44252">
        <ele>-35.091729</ele>
        <time>2021-03-25T11:02:16.000Z</time>
      </trkpt>
      <trkpt lat="43.66273" lon="-1.44246">
        <ele>-35.028814</ele>
        <time>2021-03-25T11:02:18.000Z</time>
      </trkpt>
      <trkpt lat="43.66269" lon="-1.4423">
        <ele>-34.879532</ele>
        <time>2021-03-25T11:02:23.000Z</time>
      </trkpt>
      <trkpt lat="43.66268" lon="-1.44227">
        <ele>-34.850918</ele>
        <time>2021-03-25T11:02:24.000Z</time>
      </trkpt>
      <trkpt lat="43.66263" lon="-1.44207">
        <ele>-34.669154</ele>
        <time>2021-03-25T11:02:31.000Z</time>
      </trkpt>
      <trkpt lat="43.66263" lon="-1.44196">
        <ele>-34.574166</ele>
        <time>2021-03-25T11:02:35.000Z</time>
      </trkpt>
      <trkpt lat="43.66265" lon="-1.44193">
        <ele>-34.542475</ele>
        <time>2021-03-25T11:02:37.000Z</time>
      </trkpt>
      <trkpt lat="43.66277" lon="-1.4418">
        <ele>-34.358882</ele>
        <time>2021-03-25T11:02:44.000Z</time>
      </trkpt>
      <trkpt lat="43.6628" lon="-1.44176">
        <ele>-34.301672</ele>
        <time>2021-03-25T11:02:46.000Z</time>
      </trkpt>
      <trkpt lat="43.66286" lon="-1.4417">
        <ele>-34.20918</ele>
        <time>2021-03-25T11:02:50.000Z</time>
      </trkpt>
      <trkpt lat="43.66287" lon="-1.4417">
        <ele>-34.203649</ele>
        <time>2021-03-25T11:02:55.000Z</time>
      </trkpt>
      <trkpt lat="43.66287" lon="-1.4417">
        <ele>-34.203649</ele>
        <time>2021-03-25T11:03:06.000Z</time>
      </trkpt>
      <trkpt lat="43.66287" lon="-1.4417">
        <ele>-34.203649</ele>
        <time>2021-03-25T11:03:23.000Z</time>
      </trkpt>
      <trkpt lat="43.66287" lon="-1.4417">
        <ele>-34.203649</ele>
        <time>2021-03-25T11:03:32.000Z</time>
      </trkpt>
      <trkpt lat="43.66287" lon="-1.4417">
        <ele>-34.203649</ele>
        <time>2021-03-25T11:03:35.000Z</time>
      </trkpt>
      <trkpt lat="43.66287" lon="-1.4417">
        <ele>-34.203649</ele>
        <time>2021-03-25T11:03:49.000Z</time>
      </trkpt>
      <trkpt lat="43.66287" lon="-1.44169">
        <ele>-34.199087</ele>
        <time>2021-03-25T11:03:54.000Z</time>
      </trkpt>
      <trkpt lat="43.66287" lon="-1.44169">
        <ele>-34.199087</ele>
        <time>2021-03-25T11:03:58.000Z</time>
      </trkpt>
      <trkpt lat="43.66287" lon="-1.44169">
        <ele>-34.199087</ele>
        <time>2021-03-25T11:04:03.000Z</time>
      </trkpt>
      <trkpt lat="43.66287" lon="-1.44169">
        <ele>-34.199087</ele>
        <time>2021-03-25T11:04:06.000Z</time>
      </trkpt>
      <trkpt lat="43.66287" lon="-1.44169">
        <ele>-34.197872</ele>
        <time>2021-03-25T11:04:18.000Z</time>
      </trkpt>
      <trkpt lat="43.66287" lon="-1.44169">
        <ele>-34.197872</ele>
        <time>2021-03-25T11:04:22.000Z</time>
      </trkpt>
      <trkpt lat="43.66287" lon="-1.44169">
        <ele>-34.197872</ele>
        <time>2021-03-25T11:04:27.000Z</time>
      </trkpt>
      <trkpt lat="43.66287" lon="-1.44169">
        <ele>-34.197872</ele>
        <time>2021-03-25T11:04:29.000Z</time>
      </trkpt>
      <trkpt lat="43.66287" lon="-1.44169">
        <ele>-34.191546</ele>
        <time>2021-03-25T11:04:33.000Z</time>
      </trkpt>
      <trkpt lat="43.66287" lon="-1.44169">
        <ele>-34.19033</ele>
        <time>2021-03-25T11:04:41.000Z</time>
      </trkpt>
      <trkpt lat="43.66287" lon="-1.44169">
        <ele>-34.19033</ele>
        <time>2021-03-25T11:04:45.000Z</time>
      </trkpt>
      <trkpt lat="43.66287" lon="-1.44169">
        <ele>-34.19033</ele>
        <time>2021-03-25T11:04:48.000Z</time>
      </trkpt>
      <trkpt lat="43.66287" lon="-1.44169">
        <ele>-34.19033</ele>
        <time>2021-03-25T11:05:00.000Z</time>
      </trkpt>
      <trkpt lat="43.66288" lon="-1.44169">
        <ele>-34.187745</ele>
        <time>2021-03-25T11:05:28.000Z</time>
      </trkpt>
      <trkpt lat="43.66286" lon="-1.44171">
        <ele>-34.16022</ele>
        <time>2021-03-25T11:05:31.000Z</time>
      </trkpt>
      <trkpt lat="43.66283" lon="-1.44175">
        <ele>-34.107695</ele>
        <time>2021-03-25T11:05:33.000Z</time>
      </trkpt>
      <trkpt lat="43.66277" lon="-1.44185">
        <ele>-33.997246</ele>
        <time>2021-03-25T11:05:37.000Z</time>
      </trkpt>
      <trkpt lat="43.66275" lon="-1.44186">
        <ele>-33.969361</ele>
        <time>2021-03-25T11:05:38.000Z</time>
      </trkpt>
      <trkpt lat="43.66271" lon="-1.44188">
        <ele>-33.919942</ele>
        <time>2021-03-25T11:05:40.000Z</time>
      </trkpt>
      <trkpt lat="43.66267" lon="-1.44197">
        <ele>-33.944728</ele>
        <time>2021-03-25T11:05:43.000Z</time>
      </trkpt>
      <trkpt lat="43.6626" lon="-1.44221">
        <ele>-34.059625</ele>
        <time>2021-03-25T11:05:50.000Z</time>
      </trkpt>
      <trkpt lat="43.66259" lon="-1.44221">
        <ele>-34.065842</ele>
        <time>2021-03-25T11:05:54.000Z</time>
      </trkpt>
      <trkpt lat="43.66259" lon="-1.44221">
        <ele>-34.065842</ele>
        <time>2021-03-25T11:06:00.000Z</time>
      </trkpt>
      <trkpt lat="43.66259" lon="-1.44221">
        <ele>-34.065842</ele>
        <time>2021-03-25T11:06:04.000Z</time>
      </trkpt>
      <trkpt lat="43.66259" lon="-1.44221">
        <ele>-34.065842</ele>
        <time>2021-03-25T11:06:13.000Z</time>
      </trkpt>
      <trkpt lat="43.66259" lon="-1.44221">
        <ele>-34.067372</ele>
        <time>2021-03-25T11:06:35.000Z</time>
      </trkpt>
      <trkpt lat="43.66259" lon="-1.44222">
        <ele>-34.071457</ele>
        <time>2021-03-25T11:06:38.000Z</time>
      </trkpt>
      <trkpt lat="43.66267" lon="-1.44217">
        <ele>-34.12422</ele>
        <time>2021-03-25T11:08:13.000Z</time>
      </trkpt>
      <trkpt lat="43.66252" lon="-1.44228">
        <ele>-34.228634</ele>
        <time>2021-03-25T11:08:20.000Z</time>
      </trkpt>
      <trkpt lat="43.66257" lon="-1.44219">
        <ele>-34.281485</ele>
        <time>2021-03-25T11:08:26.000Z</time>
      </trkpt>
      <trkpt lat="43.66266" lon="-1.44208">
        <ele>-34.352786</ele>
        <time>2021-03-25T11:08:29.000Z</time>
      </trkpt>
      <trkpt lat="43.66265" lon="-1.4421">
        <ele>-34.364154</ele>
        <time>2021-03-25T11:08:38.000Z</time>
      </trkpt>
      <trkpt lat="43.66264" lon="-1.44215">
        <ele>-34.389091</ele>
        <time>2021-03-25T11:08:47.000Z</time>
      </trkpt>
      <trkpt lat="43.66263" lon="-1.44216">
        <ele>-34.393833</ele>
        <time>2021-03-25T11:08:51.000Z</time>
      </trkpt>
      <trkpt lat="43.66263" lon="-1.44216">
        <ele>-34.393833</ele>
        <time>2021-03-25T11:08:56.000Z</time>
      </trkpt>
      <trkpt lat="43.66263" lon="-1.44216">
        <ele>-34.395628</ele>
        <time>2021-03-25T11:08:59.000Z</time>
      </trkpt>
      <trkpt lat="43.66262" lon="-1.44215">
        <ele>-34.40128</ele>
        <time>2021-03-25T11:09:04.000Z</time>
      </trkpt>
      <trkpt lat="43.66262" lon="-1.44215">
        <ele>-34.404381</ele>
        <time>2021-03-25T11:09:06.000Z</time>
      </trkpt>
      <trkpt lat="43.6626" lon="-1.44215">
        <ele>-34.414922</ele>
        <time>2021-03-25T11:09:13.000Z</time>
      </trkpt>
      <trkpt lat="43.6626" lon="-1.44216">
        <ele>-34.416836</ele>
        <time>2021-03-25T11:09:16.000Z</time>
      </trkpt>
      <trkpt lat="43.6626" lon="-1.44216">
        <ele>-34.418076</ele>
        <time>2021-03-25T11:09:18.000Z</time>
      </trkpt>
      <trkpt lat="43.66259" lon="-1.44217">
        <ele>-34.427174</ele>
        <time>2021-03-25T11:09:31.000Z</time>
      </trkpt>
      <trkpt lat="43.66259" lon="-1.44218">
        <ele>-34.432869</ele>
        <time>2021-03-25T11:09:43.000Z</time>
      </trkpt>
      <trkpt lat="43.66258" lon="-1.44219">
        <ele>-34.434783</ele>
        <time>2021-03-25T11:09:48.000Z</time>
      </trkpt>
      <trkpt lat="43.66259" lon="-1.4422">
        <ele>-34.440995</ele>
        <time>2021-03-25T11:09:55.000Z</time>
      </trkpt>
      <trkpt lat="43.66257" lon="-1.44219">
        <ele>-34.455502</ele>
        <time>2021-03-25T11:09:59.000Z</time>
      </trkpt>
      <trkpt lat="43.66256" lon="-1.44219">
        <ele>-34.457362</ele>
        <time>2021-03-25T11:10:01.000Z</time>
      </trkpt>
      <trkpt lat="43.66255" lon="-1.44218">
        <ele>-34.464695</ele>
        <time>2021-03-25T11:10:12.000Z</time>
      </trkpt>
      <trkpt lat="43.66256" lon="-1.44218">
        <ele>-34.467517</ele>
        <time>2021-03-25T11:10:37.000Z</time>
      </trkpt>
      <trkpt lat="43.66256" lon="-1.44219">
        <ele>-34.468999</ele>
        <time>2021-03-25T11:10:48.000Z</time>
      </trkpt>
      <trkpt lat="43.66256" lon="-1.44218">
        <ele>-34.473041</ele>
        <time>2021-03-25T11:10:56.000Z</time>
      </trkpt>
      <trkpt lat="43.66255" lon="-1.44218">
        <ele>-34.475562</ele>
        <time>2021-03-25T11:10:59.000Z</time>
      </trkpt>
      <trkpt lat="43.6625" lon="-1.44224">
        <ele>-34.516801</ele>
        <time>2021-03-25T11:11:02.000Z</time>
      </trkpt>
      <trkpt lat="43.66239" lon="-1.44241">
        <ele>-34.618866</ele>
        <time>2021-03-25T11:11:07.000Z</time>
      </trkpt>
      <trkpt lat="43.66231" lon="-1.44252">
        <ele>-34.688606</ele>
        <time>2021-03-25T11:11:10.000Z</time>
      </trkpt>
      <trkpt lat="43.66223" lon="-1.44263">
        <ele>-34.760405</ele>
        <time>2021-03-25T11:11:13.000Z</time>
      </trkpt>
      <trkpt lat="43.66215" lon="-1.44279">
        <ele>-34.850544</ele>
        <time>2021-03-25T11:11:17.000Z</time>
      </trkpt>
      <trkpt lat="43.66213" lon="-1.44282">
        <ele>-34.866174</ele>
        <time>2021-03-25T11:11:18.000Z</time>
      </trkpt>
      <trkpt lat="43.66211" lon="-1.44285">
        <ele>-34.884006</ele>
        <time>2021-03-25T11:11:19.000Z</time>
      </trkpt>
      <trkpt lat="43.66206" lon="-1.44292">
        <ele>-34.931126</ele>
        <time>2021-03-25T11:11:22.000Z</time>
      </trkpt>
      <trkpt lat="43.66199" lon="-1.44297">
        <ele>-34.977582</ele>
        <time>2021-03-25T11:11:25.000Z</time>
      </trkpt>
      <trkpt lat="43.6619" lon="-1.44301">
        <ele>-35.013183</ele>
        <time>2021-03-25T11:11:28.000Z</time>
      </trkpt>
      <trkpt lat="43.6618" lon="-1.44307">
        <ele>-34.993368</ele>
        <time>2021-03-25T11:11:31.000Z</time>
      </trkpt>
      <trkpt lat="43.66174" lon="-1.44311">
        <ele>-34.979747</ele>
        <time>2021-03-25T11:11:33.000Z</time>
      </trkpt>
      <trkpt lat="43.66149" lon="-1.44322">
        <ele>-34.931499</ele>
        <time>2021-03-25T11:11:41.000Z</time>
      </trkpt>
      <trkpt lat="43.66138" lon="-1.44319">
        <ele>-34.909703</ele>
        <time>2021-03-25T11:11:45.000Z</time>
      </trkpt>
      <trkpt lat="43.66131" lon="-1.44315">
        <ele>-34.895394</ele>
        <time>2021-03-25T11:11:48.000Z</time>
      </trkpt>
      <trkpt lat="43.66126" lon="-1.44317">
        <ele>-34.886687</ele>
        <time>2021-03-25T11:11:50.000Z</time>
      </trkpt>
      <trkpt lat="43.66115" lon="-1.44334">
        <ele>-34.855298</ele>
        <time>2021-03-25T11:11:55.000Z</time>
      </trkpt>
      <trkpt lat="43.66108" lon="-1.44343">
        <ele>-34.837216</ele>
        <time>2021-03-25T11:11:58.000Z</time>
      </trkpt>
      <trkpt lat="43.66098" lon="-1.44353">
        <ele>-34.814101</ele>
        <time>2021-03-25T11:12:02.000Z</time>
      </trkpt>
      <trkpt lat="43.66082" lon="-1.44363">
        <ele>-34.782175</ele>
        <time>2021-03-25T11:12:08.000Z</time>
      </trkpt>
      <trkpt lat="43.6607" lon="-1.44369">
        <ele>-34.759242</ele>
        <time>2021-03-25T11:12:13.000Z</time>
      </trkpt>
      <trkpt lat="43.66064" lon="-1.44371">
        <ele>-34.747328</ele>
        <time>2021-03-25T11:12:17.000Z</time>
      </trkpt>
      <trkpt lat="43.66063" lon="-1.44371">
        <ele>-34.745781</ele>
        <time>2021-03-25T11:12:18.000Z</time>
      </trkpt>
      <trkpt lat="43.66056" lon="-1.44369">
        <ele>-34.731064</ele>
        <time>2021-03-25T11:12:22.000Z</time>
      </trkpt>
      <trkpt lat="43.66053" lon="-1.44369">
        <ele>-34.726164</ele>
        <time>2021-03-25T11:12:23.000Z</time>
      </trkpt>
      <trkpt lat="43.6605" lon="-1.44368">
        <ele>-34.721193</ele>
        <time>2021-03-25T11:12:24.000Z</time>
      </trkpt>
      <trkpt lat="43.66035" lon="-1.44361">
        <ele>-34.690664</ele>
        <time>2021-03-25T11:12:30.000Z</time>
      </trkpt>
      <trkpt lat="43.66029" lon="-1.44358">
        <ele>-34.66831</ele>
        <time>2021-03-25T11:12:33.000Z</time>
      </trkpt>
      <trkpt lat="43.66025" lon="-1.44354">
        <ele>-34.642199</ele>
        <time>2021-03-25T11:12:35.000Z</time>
      </trkpt>
      <trkpt lat="43.66023" lon="-1.44353">
        <ele>-34.629628</ele>
        <time>2021-03-25T11:12:36.000Z</time>
      </trkpt>
      <trkpt lat="43.65997" lon="-1.44356">
        <ele>-34.480922</ele>
        <time>2021-03-25T11:12:45.000Z</time>
      </trkpt>
      <trkpt lat="43.65994" lon="-1.44357">
        <ele>-34.461511</ele>
        <time>2021-03-25T11:12:46.000Z</time>
      </trkpt>
      <trkpt lat="43.65984" lon="-1.44358">
        <ele>-34.405185</ele>
        <time>2021-03-25T11:12:49.000Z</time>
      </trkpt>
      <trkpt lat="43.65974" lon="-1.4436">
        <ele>-34.34699</ele>
        <time>2021-03-25T11:12:52.000Z</time>
      </trkpt>
      <trkpt lat="43.65964" lon="-1.44361">
        <ele>-34.290312</ele>
        <time>2021-03-25T11:12:55.000Z</time>
      </trkpt>
      <trkpt lat="43.65952" lon="-1.44362">
        <ele>-34.22044</ele>
        <time>2021-03-25T11:12:59.000Z</time>
      </trkpt>
      <trkpt lat="43.65946" lon="-1.44364">
        <ele>-34.18275</ele>
        <time>2021-03-25T11:13:01.000Z</time>
      </trkpt>
      <trkpt lat="43.65934" lon="-1.44366">
        <ele>-34.111066</ele>
        <time>2021-03-25T11:13:05.000Z</time>
      </trkpt>
      <trkpt lat="43.65905" lon="-1.4437">
        <ele>-33.948049</ele>
        <time>2021-03-25T11:13:13.000Z</time>
      </trkpt>
      <trkpt lat="43.65899" lon="-1.44373">
        <ele>-33.907103</ele>
        <time>2021-03-25T11:13:15.000Z</time>
      </trkpt>
      <trkpt lat="43.65885" lon="-1.44377">
        <ele>-33.826031</ele>
        <time>2021-03-25T11:13:19.000Z</time>
      </trkpt>
      <trkpt lat="43.65878" lon="-1.44379">
        <ele>-33.784604</ele>
        <time>2021-03-25T11:13:21.000Z</time>
      </trkpt>
      <trkpt lat="43.65871" lon="-1.44382">
        <ele>-33.745325</ele>
        <time>2021-03-25T11:13:23.000Z</time>
      </trkpt>
      <trkpt lat="43.65846" lon="-1.4439">
        <ele>-33.86079</ele>
        <time>2021-03-25T11:13:30.000Z</time>
      </trkpt>
      <trkpt lat="43.65837" lon="-1.44394">
        <ele>-34.119451</ele>
        <time>2021-03-25T11:13:33.000Z</time>
      </trkpt>
      <trkpt lat="43.65822" lon="-1.44399">
        <ele>-34.519465</ele>
        <time>2021-03-25T11:13:38.000Z</time>
      </trkpt>
      <trkpt lat="43.65816" lon="-1.44401">
        <ele>-34.672267</ele>
        <time>2021-03-25T11:13:40.000Z</time>
      </trkpt>
      <trkpt lat="43.6581" lon="-1.44403">
        <ele>-34.822987</ele>
        <time>2021-03-25T11:13:42.000Z</time>
      </trkpt>
      <trkpt lat="43.65798" lon="-1.44412">
        <ele>-35.177972</ele>
        <time>2021-03-25T11:13:47.000Z</time>
      </trkpt>
      <trkpt lat="43.65794" lon="-1.44419">
        <ele>-35.337765</ele>
        <time>2021-03-25T11:13:49.000Z</time>
      </trkpt>
      <trkpt lat="43.65784" lon="-1.44438">
        <ele>-35.783966</ele>
        <time>2021-03-25T11:13:54.000Z</time>
      </trkpt>
      <trkpt lat="43.65779" lon="-1.44445">
        <ele>-35.970186</ele>
        <time>2021-03-25T11:13:56.000Z</time>
      </trkpt>
      <trkpt lat="43.65772" lon="-1.44453">
        <ele>-36.188842</ele>
        <time>2021-03-25T11:13:58.000Z</time>
      </trkpt>
      <trkpt lat="43.65762" lon="-1.4446">
        <ele>-36.493904</ele>
        <time>2021-03-25T11:14:01.000Z</time>
      </trkpt>
      <trkpt lat="43.65741" lon="-1.4447">
        <ele>-37.059385</ele>
        <time>2021-03-25T11:14:08.000Z</time>
      </trkpt>
      <trkpt lat="43.65728" lon="-1.44479">
        <ele>-37.437617</ele>
        <time>2021-03-25T11:14:13.000Z</time>
      </trkpt>
      <trkpt lat="43.65708" lon="-1.4448">
        <ele>-37.936885</ele>
        <time>2021-03-25T11:14:19.000Z</time>
      </trkpt>
      <trkpt lat="43.65693" lon="-1.44475">
        <ele>-38.300097</ele>
        <time>2021-03-25T11:14:24.000Z</time>
      </trkpt>
      <trkpt lat="43.65675" lon="-1.4447">
        <ele>-38.521109</ele>
        <time>2021-03-25T11:14:31.000Z</time>
      </trkpt>
      <trkpt lat="43.65667" lon="-1.44474">
        <ele>-38.625659</ele>
        <time>2021-03-25T11:14:34.000Z</time>
      </trkpt>
      <trkpt lat="43.65658" lon="-1.4448">
        <ele>-38.74194</ele>
        <time>2021-03-25T11:14:37.000Z</time>
      </trkpt>
      <trkpt lat="43.65645" lon="-1.44498">
        <ele>-38.959247</ele>
        <time>2021-03-25T11:14:43.000Z</time>
      </trkpt>
      <trkpt lat="43.65643" lon="-1.44499">
        <ele>-38.991372</ele>
        <time>2021-03-25T11:14:44.000Z</time>
      </trkpt>
      <trkpt lat="43.65627" lon="-1.44516">
        <ele>-39.232951</ele>
        <time>2021-03-25T11:14:51.000Z</time>
      </trkpt>
      <trkpt lat="43.65616" lon="-1.4452">
        <ele>-39.369458</ele>
        <time>2021-03-25T11:14:57.000Z</time>
      </trkpt>
      <trkpt lat="43.65606" lon="-1.44525">
        <ele>-39.490857</ele>
        <time>2021-03-25T11:15:04.000Z</time>
      </trkpt>
      <trkpt lat="43.65594" lon="-1.44531">
        <ele>-39.656182</ele>
        <time>2021-03-25T11:15:11.000Z</time>
      </trkpt>
      <trkpt lat="43.6558" lon="-1.44531">
        <ele>-39.821499</ele>
        <time>2021-03-25T11:15:15.000Z</time>
      </trkpt>
      <trkpt lat="43.65577" lon="-1.44528">
        <ele>-39.861414</ele>
        <time>2021-03-25T11:15:16.000Z</time>
      </trkpt>
      <trkpt lat="43.65576" lon="-1.44524">
        <ele>-39.899992</ele>
        <time>2021-03-25T11:15:17.000Z</time>
      </trkpt>
      <trkpt lat="43.65574" lon="-1.44511">
        <ele>-40.016727</ele>
        <time>2021-03-25T11:15:20.000Z</time>
      </trkpt>
      <trkpt lat="43.65569" lon="-1.4449">
        <ele>-40.210334</ele>
        <time>2021-03-25T11:15:25.000Z</time>
      </trkpt>
      <trkpt lat="43.65563" lon="-1.44474">
        <ele>-40.364651</ele>
        <time>2021-03-25T11:15:29.000Z</time>
      </trkpt>
      <trkpt lat="43.65559" lon="-1.44452">
        <ele>-40.476292</ele>
        <time>2021-03-25T11:15:34.000Z</time>
      </trkpt>
      <trkpt lat="43.65557" lon="-1.44441">
        <ele>-40.507334</ele>
        <time>2021-03-25T11:15:37.000Z</time>
      </trkpt>
      <trkpt lat="43.65553" lon="-1.44436">
        <ele>-40.528313</ele>
        <time>2021-03-25T11:15:39.000Z</time>
      </trkpt>
      <trkpt lat="43.65539" lon="-1.4442">
        <ele>-40.5989</ele>
        <time>2021-03-25T11:15:45.000Z</time>
      </trkpt>
      <trkpt lat="43.65535" lon="-1.44397">
        <ele>-40.663965</ele>
        <time>2021-03-25T11:15:50.000Z</time>
      </trkpt>
      <trkpt lat="43.65534" lon="-1.44393">
        <ele>-40.675035</ele>
        <time>2021-03-25T11:15:51.000Z</time>
      </trkpt>
      <trkpt lat="43.65533" lon="-1.44389">
        <ele>-40.685804</ele>
        <time>2021-03-25T11:15:52.000Z</time>
      </trkpt>
      <trkpt lat="43.65528" lon="-1.44361">
        <ele>-40.766668</ele>
        <time>2021-03-25T11:15:59.000Z</time>
      </trkpt>
      <trkpt lat="43.6552" lon="-1.44316">
        <ele>-40.895954</ele>
        <time>2021-03-25T11:16:08.000Z</time>
      </trkpt>
      <trkpt lat="43.65517" lon="-1.44301">
        <ele>-40.938391</ele>
        <time>2021-03-25T11:16:11.000Z</time>
      </trkpt>
      <trkpt lat="43.65515" lon="-1.44291">
        <ele>-40.966774</ele>
        <time>2021-03-25T11:16:13.000Z</time>
      </trkpt>
      <trkpt lat="43.6551" lon="-1.44271">
        <ele>-41.026194</ele>
        <time>2021-03-25T11:16:17.000Z</time>
      </trkpt>
      <trkpt lat="43.65501" lon="-1.44222">
        <ele>-41.095867</ele>
        <time>2021-03-25T11:16:27.000Z</time>
      </trkpt>
      <trkpt lat="43.65494" lon="-1.44182">
        <ele>-41.012698</ele>
        <time>2021-03-25T11:16:35.000Z</time>
      </trkpt>
      <trkpt lat="43.65492" lon="-1.44149">
        <ele>-40.947246</ele>
        <time>2021-03-25T11:16:40.000Z</time>
      </trkpt>
      <trkpt lat="43.65492" lon="-1.44143">
        <ele>-40.934631</ele>
        <time>2021-03-25T11:16:41.000Z</time>
      </trkpt>
      <trkpt lat="43.65492" lon="-1.44116">
        <ele>-40.880362</ele>
        <time>2021-03-25T11:16:46.000Z</time>
      </trkpt>
      <trkpt lat="43.65497" lon="-1.44063">
        <ele>-40.774836</ele>
        <time>2021-03-25T11:16:55.000Z</time>
      </trkpt>
      <trkpt lat="43.65503" lon="-1.44035">
        <ele>-40.715415</ele>
        <time>2021-03-25T11:17:00.000Z</time>
      </trkpt>
      <trkpt lat="43.65509" lon="-1.44014">
        <ele>-40.671177</ele>
        <time>2021-03-25T11:17:04.000Z</time>
      </trkpt>
      <trkpt lat="43.65517" lon="-1.43994">
        <ele>-40.611531</ele>
        <time>2021-03-25T11:17:08.000Z</time>
      </trkpt>
      <trkpt lat="43.65527" lon="-1.43979">
        <ele>-40.333908</ele>
        <time>2021-03-25T11:17:12.000Z</time>
      </trkpt>
      <trkpt lat="43.6554" lon="-1.43968">
        <ele>-40.050701</ele>
        <time>2021-03-25T11:17:16.000Z</time>
      </trkpt>
      <trkpt lat="43.65556" lon="-1.43953">
        <ele>-39.702773</ele>
        <time>2021-03-25T11:17:21.000Z</time>
      </trkpt>
      <trkpt lat="43.65563" lon="-1.43956">
        <ele>-39.572582</ele>
        <time>2021-03-25T11:17:23.000Z</time>
      </trkpt>
      <trkpt lat="43.65565" lon="-1.43959">
        <ele>-39.512914</ele>
        <time>2021-03-25T11:17:24.000Z</time>
      </trkpt>
      <trkpt lat="43.65569" lon="-1.43964">
        <ele>-39.41063</ele>
        <time>2021-03-25T11:17:26.000Z</time>
      </trkpt>
      <trkpt lat="43.65573" lon="-1.43969">
        <ele>-39.319238</ele>
        <time>2021-03-25T11:17:28.000Z</time>
      </trkpt>
      <trkpt lat="43.65574" lon="-1.4397">
        <ele>-39.283268</ele>
        <time>2021-03-25T11:17:29.000Z</time>
      </trkpt>
      <trkpt lat="43.65576" lon="-1.43971">
        <ele>-39.254939</ele>
        <time>2021-03-25T11:17:30.000Z</time>
      </trkpt>
      <trkpt lat="43.65577" lon="-1.43968">
        <ele>-39.207112</ele>
        <time>2021-03-25T11:17:32.000Z</time>
      </trkpt>
      <trkpt lat="43.65577" lon="-1.43965">
        <ele>-39.169218</ele>
        <time>2021-03-25T11:17:33.000Z</time>
      </trkpt>
      <trkpt lat="43.65572" lon="-1.43951">
        <ele>-38.953717</ele>
        <time>2021-03-25T11:17:37.000Z</time>
      </trkpt>
      <trkpt lat="43.65567" lon="-1.4393">
        <ele>-38.6648</ele>
        <time>2021-03-25T11:17:42.000Z</time>
      </trkpt>
      <trkpt lat="43.65563" lon="-1.43919">
        <ele>-38.494817</ele>
        <time>2021-03-25T11:17:45.000Z</time>
      </trkpt>
      <trkpt lat="43.65551" lon="-1.43879">
        <ele>-37.920526</ele>
        <time>2021-03-25T11:17:55.000Z</time>
      </trkpt>
      <trkpt lat="43.65546" lon="-1.43865">
        <ele>-37.712675</ele>
        <time>2021-03-25T11:17:58.000Z</time>
      </trkpt>
      <trkpt lat="43.65544" lon="-1.43855">
        <ele>-37.571373</ele>
        <time>2021-03-25T11:18:00.000Z</time>
      </trkpt>
      <trkpt lat="43.65539" lon="-1.4384">
        <ele>-37.35241</ele>
        <time>2021-03-25T11:18:03.000Z</time>
      </trkpt>
      <trkpt lat="43.65528" lon="-1.43806">
        <ele>-37.768537</ele>
        <time>2021-03-25T11:18:10.000Z</time>
      </trkpt>
      <trkpt lat="43.65527" lon="-1.438">
        <ele>-37.856759</ele>
        <time>2021-03-25T11:18:11.000Z</time>
      </trkpt>
      <trkpt lat="43.65518" lon="-1.43777">
        <ele>-38.237095</ele>
        <time>2021-03-25T11:18:15.000Z</time>
      </trkpt>
      <trkpt lat="43.65516" lon="-1.43772">
        <ele>-38.321421</ele>
        <time>2021-03-25T11:18:16.000Z</time>
      </trkpt>
      <trkpt lat="43.65511" lon="-1.43758">
        <ele>-38.560495</ele>
        <time>2021-03-25T11:18:19.000Z</time>
      </trkpt>
      <trkpt lat="43.65507" lon="-1.43747">
        <ele>-38.726877</ele>
        <time>2021-03-25T11:18:21.000Z</time>
      </trkpt>
      <trkpt lat="43.65504" lon="-1.43736">
        <ele>-38.896505</ele>
        <time>2021-03-25T11:18:23.000Z</time>
      </trkpt>
      <trkpt lat="43.65501" lon="-1.43728">
        <ele>-39.035375</ele>
        <time>2021-03-25T11:18:25.000Z</time>
      </trkpt>
      <trkpt lat="43.65499" lon="-1.43725">
        <ele>-39.097964</ele>
        <time>2021-03-25T11:18:26.000Z</time>
      </trkpt>
      <trkpt lat="43.65495" lon="-1.43724">
        <ele>-39.168884</ele>
        <time>2021-03-25T11:18:27.000Z</time>
      </trkpt>
      <trkpt lat="43.65467" lon="-1.4372">
        <ele>-39.750648</ele>
        <time>2021-03-25T11:18:36.000Z</time>
      </trkpt>
      <trkpt lat="43.6546" lon="-1.43706">
        <ele>-39.988163</ele>
        <time>2021-03-25T11:18:40.000Z</time>
      </trkpt>
      <trkpt lat="43.65462" lon="-1.43691">
        <ele>-40.206978</ele>
        <time>2021-03-25T11:18:43.000Z</time>
      </trkpt>
      <trkpt lat="43.65463" lon="-1.43679">
        <ele>-40.377148</ele>
        <time>2021-03-25T11:18:45.000Z</time>
      </trkpt>
      <trkpt lat="43.65461" lon="-1.43669">
        <ele>-40.532801</ele>
        <time>2021-03-25T11:18:47.000Z</time>
      </trkpt>
      <trkpt lat="43.65458" lon="-1.43665">
        <ele>-40.611014</ele>
        <time>2021-03-25T11:18:48.000Z</time>
      </trkpt>
      <trkpt lat="43.65438" lon="-1.43636">
        <ele>-40.927736</ele>
        <time>2021-03-25T11:18:55.000Z</time>
      </trkpt>
      <trkpt lat="43.65426" lon="-1.43605">
        <ele>-40.962961</ele>
        <time>2021-03-25T11:19:01.000Z</time>
      </trkpt>
      <trkpt lat="43.65424" lon="-1.43599">
        <ele>-40.969674</ele>
        <time>2021-03-25T11:19:04.000Z</time>
      </trkpt>
      <trkpt lat="43.65424" lon="-1.43599">
        <ele>-40.97008</ele>
        <time>2021-03-25T11:19:05.000Z</time>
      </trkpt>
      <trkpt lat="43.65423" lon="-1.43598">
        <ele>-40.971737</ele>
        <time>2021-03-25T11:19:12.000Z</time>
      </trkpt>
      <trkpt lat="43.65424" lon="-1.43601">
        <ele>-40.974583</ele>
        <time>2021-03-25T11:19:17.000Z</time>
      </trkpt>
      <trkpt lat="43.65424" lon="-1.436">
        <ele>-40.975042</ele>
        <time>2021-03-25T11:19:18.000Z</time>
      </trkpt>
      <trkpt lat="43.65423" lon="-1.43601">
        <ele>-40.976429</ele>
        <time>2021-03-25T11:19:24.000Z</time>
      </trkpt>
      <trkpt lat="43.65423" lon="-1.43602">
        <ele>-40.977368</ele>
        <time>2021-03-25T11:19:25.000Z</time>
      </trkpt>
      <trkpt lat="43.65425" lon="-1.43603">
        <ele>-40.979788</ele>
        <time>2021-03-25T11:19:27.000Z</time>
      </trkpt>
      <trkpt lat="43.65426" lon="-1.43604">
        <ele>-40.982057</ele>
        <time>2021-03-25T11:19:29.000Z</time>
      </trkpt>
      <trkpt lat="43.65426" lon="-1.43608">
        <ele>-40.985646</ele>
        <time>2021-03-25T11:19:34.000Z</time>
      </trkpt>
      <trkpt lat="43.65426" lon="-1.43609">
        <ele>-40.986145</ele>
        <time>2021-03-25T11:19:35.000Z</time>
      </trkpt>
      <trkpt lat="43.65426" lon="-1.43608">
        <ele>-40.987114</ele>
        <time>2021-03-25T11:19:39.000Z</time>
      </trkpt>
      <trkpt lat="43.65423" lon="-1.43608">
        <ele>-40.991387</ele>
        <time>2021-03-25T11:19:46.000Z</time>
      </trkpt>
      <trkpt lat="43.65422" lon="-1.43604">
        <ele>-40.995945</ele>
        <time>2021-03-25T11:19:49.000Z</time>
      </trkpt>
      <trkpt lat="43.6542" lon="-1.43603">
        <ele>-40.998439</ele>
        <time>2021-03-25T11:19:51.000Z</time>
      </trkpt>
      <trkpt lat="43.65419" lon="-1.43604">
        <ele>-41.000136</ele>
        <time>2021-03-25T11:19:56.000Z</time>
      </trkpt>
      <trkpt lat="43.6542" lon="-1.43604">
        <ele>-41.001221</ele>
        <time>2021-03-25T11:20:01.000Z</time>
      </trkpt>
      <trkpt lat="43.65422" lon="-1.43602">
        <ele>-41.004623</ele>
        <time>2021-03-25T11:20:05.000Z</time>
      </trkpt>
      <trkpt lat="43.65422" lon="-1.43603">
        <ele>-41.005029</ele>
        <time>2021-03-25T11:20:10.000Z</time>
      </trkpt>
      <trkpt lat="43.65422" lon="-1.43603">
        <ele>-41.005688</ele>
        <time>2021-03-25T11:20:12.000Z</time>
      </trkpt>
      <trkpt lat="43.65421" lon="-1.43603">
        <ele>-41.007446</ele>
        <time>2021-03-25T11:20:14.000Z</time>
      </trkpt>
      <trkpt lat="43.65421" lon="-1.436">
        <ele>-41.010549</ele>
        <time>2021-03-25T11:20:16.000Z</time>
      </trkpt>
      <trkpt lat="43.6542" lon="-1.436">
        <ele>-41.011176</ele>
        <time>2021-03-25T11:20:18.000Z</time>
      </trkpt>
      <trkpt lat="43.65419" lon="-1.43598">
        <ele>-41.013842</ele>
        <time>2021-03-25T11:20:22.000Z</time>
      </trkpt>
      <trkpt lat="43.65417" lon="-1.43592">
        <ele>-41.020245</ele>
        <time>2021-03-25T11:20:24.000Z</time>
      </trkpt>
      <trkpt lat="43.65408" lon="-1.43568">
        <ele>-41.047674</ele>
        <time>2021-03-25T11:20:30.000Z</time>
      </trkpt>
      <trkpt lat="43.65404" lon="-1.43553">
        <ele>-41.062787</ele>
        <time>2021-03-25T11:20:33.000Z</time>
      </trkpt>
      <trkpt lat="43.654" lon="-1.43533">
        <ele>-41.083894</ele>
        <time>2021-03-25T11:20:37.000Z</time>
      </trkpt>
      <trkpt lat="43.65389" lon="-1.4352">
        <ele>-41.103944</ele>
        <time>2021-03-25T11:20:41.000Z</time>
      </trkpt>
      <trkpt lat="43.65371" lon="-1.43508">
        <ele>-41.131532</ele>
        <time>2021-03-25T11:20:46.000Z</time>
      </trkpt>
      <trkpt lat="43.65365" lon="-1.43505">
        <ele>-41.139972</ele>
        <time>2021-03-25T11:20:48.000Z</time>
      </trkpt>
      <trkpt lat="43.65363" lon="-1.43503">
        <ele>-41.143979</ele>
        <time>2021-03-25T11:20:49.000Z</time>
      </trkpt>
      <trkpt lat="43.65357" lon="-1.435">
        <ele>-41.152322</ele>
        <time>2021-03-25T11:20:51.000Z</time>
      </trkpt>
      <trkpt lat="43.65351" lon="-1.43497">
        <ele>-41.163427</ele>
        <time>2021-03-25T11:20:53.000Z</time>
      </trkpt>
      <trkpt lat="43.65347" lon="-1.43492">
        <ele>-41.175687</ele>
        <time>2021-03-25T11:20:55.000Z</time>
      </trkpt>
      <trkpt lat="43.65345" lon="-1.43489">
        <ele>-41.181393</ele>
        <time>2021-03-25T11:20:56.000Z</time>
      </trkpt>
      <trkpt lat="43.65343" lon="-1.43461">
        <ele>-41.223415</ele>
        <time>2021-03-25T11:21:03.000Z</time>
      </trkpt>
      <trkpt lat="43.65337" lon="-1.43438">
        <ele>-41.260478</ele>
        <time>2021-03-25T11:21:09.000Z</time>
      </trkpt>
      <trkpt lat="43.65333" lon="-1.43414">
        <ele>-41.297926</ele>
        <time>2021-03-25T11:21:14.000Z</time>
      </trkpt>
      <trkpt lat="43.65328" lon="-1.43368">
        <ele>-41.369076</ele>
        <time>2021-03-25T11:21:22.000Z</time>
      </trkpt>
      <trkpt lat="43.65328" lon="-1.43358">
        <ele>-41.384263</ele>
        <time>2021-03-25T11:21:24.000Z</time>
      </trkpt>
      <trkpt lat="43.65332" lon="-1.43345">
        <ele>-41.405607</ele>
        <time>2021-03-25T11:21:27.000Z</time>
      </trkpt>
      <trkpt lat="43.65352" lon="-1.43323">
        <ele>-41.45961</ele>
        <time>2021-03-25T11:21:34.000Z</time>
      </trkpt>
      <trkpt lat="43.65372" lon="-1.433">
        <ele>-41.513765</ele>
        <time>2021-03-25T11:21:40.000Z</time>
      </trkpt>
      <trkpt lat="43.65376" lon="-1.43296">
        <ele>-41.522978</ele>
        <time>2021-03-25T11:21:41.000Z</time>
      </trkpt>
      <trkpt lat="43.65379" lon="-1.43292">
        <ele>-41.531734</ele>
        <time>2021-03-25T11:21:42.000Z</time>
      </trkpt>
      <trkpt lat="43.65385" lon="-1.43285">
        <ele>-41.497869</ele>
        <time>2021-03-25T11:21:44.000Z</time>
      </trkpt>
      <trkpt lat="43.65391" lon="-1.43272">
        <ele>-41.439674</ele>
        <time>2021-03-25T11:21:47.000Z</time>
      </trkpt>
      <trkpt lat="43.654" lon="-1.43239">
        <ele>-41.316217</ele>
        <time>2021-03-25T11:21:53.000Z</time>
      </trkpt>
      <trkpt lat="43.65401" lon="-1.43233">
        <ele>-41.295056</ele>
        <time>2021-03-25T11:21:54.000Z</time>
      </trkpt>
      <trkpt lat="43.65405" lon="-1.43204">
        <ele>-41.1881</ele>
        <time>2021-03-25T11:21:59.000Z</time>
      </trkpt>
      <trkpt lat="43.65407" lon="-1.4318">
        <ele>-41.099632</ele>
        <time>2021-03-25T11:22:03.000Z</time>
      </trkpt>
      <trkpt lat="43.65413" lon="-1.43134">
        <ele>-40.932225</ele>
        <time>2021-03-25T11:22:10.000Z</time>
      </trkpt>
      <trkpt lat="43.65423" lon="-1.43101">
        <ele>-40.806258</ele>
        <time>2021-03-25T11:22:15.000Z</time>
      </trkpt>
      <trkpt lat="43.65424" lon="-1.43095">
        <ele>-40.781587</ele>
        <time>2021-03-25T11:22:16.000Z</time>
      </trkpt>
      <trkpt lat="43.65425" lon="-1.43088">
        <ele>-40.75679</ele>
        <time>2021-03-25T11:22:17.000Z</time>
      </trkpt>
      <trkpt lat="43.65426" lon="-1.43062">
        <ele>-40.66342</ele>
        <time>2021-03-25T11:22:21.000Z</time>
      </trkpt>
      <trkpt lat="43.65426" lon="-1.43055">
        <ele>-40.641982</ele>
        <time>2021-03-25T11:22:22.000Z</time>
      </trkpt>
      <trkpt lat="43.65422" lon="-1.43029">
        <ele>-40.648468</ele>
        <time>2021-03-25T11:22:26.000Z</time>
      </trkpt>
      <trkpt lat="43.65422" lon="-1.43025">
        <ele>-40.649571</ele>
        <time>2021-03-25T11:22:27.000Z</time>
      </trkpt>
      <trkpt lat="43.65413" lon="-1.43014">
        <ele>-40.653487</ele>
        <time>2021-03-25T11:22:30.000Z</time>
      </trkpt>
      <trkpt lat="43.65395" lon="-1.43016">
        <ele>-40.659746</ele>
        <time>2021-03-25T11:22:35.000Z</time>
      </trkpt>
      <trkpt lat="43.65383" lon="-1.43018">
        <ele>-40.663862</ele>
        <time>2021-03-25T11:22:38.000Z</time>
      </trkpt>
      <trkpt lat="43.6537" lon="-1.43019">
        <ele>-40.668135</ele>
        <time>2021-03-25T11:22:41.000Z</time>
      </trkpt>
      <trkpt lat="43.65363" lon="-1.43023">
        <ele>-40.670834</ele>
        <time>2021-03-25T11:22:43.000Z</time>
      </trkpt>
      <trkpt lat="43.65345" lon="-1.43039">
        <ele>-40.677952</ele>
        <time>2021-03-25T11:22:48.000Z</time>
      </trkpt>
      <trkpt lat="43.65343" lon="-1.43043">
        <ele>-40.679365</ele>
        <time>2021-03-25T11:22:49.000Z</time>
      </trkpt>
      <trkpt lat="43.65323" lon="-1.43053">
        <ele>-40.686461</ele>
        <time>2021-03-25T11:22:54.000Z</time>
      </trkpt>
      <trkpt lat="43.65308" lon="-1.43068">
        <ele>-40.692681</ele>
        <time>2021-03-25T11:22:59.000Z</time>
      </trkpt>
      <trkpt lat="43.65303" lon="-1.43095">
        <ele>-40.699716</ele>
        <time>2021-03-25T11:23:04.000Z</time>
      </trkpt>
      <trkpt lat="43.65302" lon="-1.43119">
        <ele>-40.704233</ele>
        <time>2021-03-25T11:23:09.000Z</time>
      </trkpt>
      <trkpt lat="43.65303" lon="-1.4314">
        <ele>-40.706785</ele>
        <time>2021-03-25T11:23:14.000Z</time>
      </trkpt>
      <trkpt lat="43.65301" lon="-1.43158">
        <ele>-40.709016</ele>
        <time>2021-03-25T11:23:18.000Z</time>
      </trkpt>
      <trkpt lat="43.65302" lon="-1.43162">
        <ele>-40.70959</ele>
        <time>2021-03-25T11:23:19.000Z</time>
      </trkpt>
      <trkpt lat="43.65302" lon="-1.43167">
        <ele>-40.710152</ele>
        <time>2021-03-25T11:23:20.000Z</time>
      </trkpt>
      <trkpt lat="43.65294" lon="-1.43179">
        <ele>-40.71221</ele>
        <time>2021-03-25T11:23:23.000Z</time>
      </trkpt>
      <trkpt lat="43.65278" lon="-1.43207">
        <ele>-40.716519</ele>
        <time>2021-03-25T11:23:30.000Z</time>
      </trkpt>
      <trkpt lat="43.6527" lon="-1.43229">
        <ele>-40.719505</ele>
        <time>2021-03-25T11:23:35.000Z</time>
      </trkpt>
      <trkpt lat="43.65269" lon="-1.43242">
        <ele>-40.721049</ele>
        <time>2021-03-25T11:23:38.000Z</time>
      </trkpt>
      <trkpt lat="43.65264" lon="-1.43255">
        <ele>-40.722858</ele>
        <time>2021-03-25T11:23:41.000Z</time>
      </trkpt>
      <trkpt lat="43.65259" lon="-1.43267">
        <ele>-40.724549</ele>
        <time>2021-03-25T11:23:44.000Z</time>
      </trkpt>
      <trkpt lat="43.65253" lon="-1.43282">
        <ele>-40.726673</ele>
        <time>2021-03-25T11:23:48.000Z</time>
      </trkpt>
      <trkpt lat="43.65249" lon="-1.43293">
        <ele>-40.728228</ele>
        <time>2021-03-25T11:23:51.000Z</time>
      </trkpt>
      <trkpt lat="43.6524" lon="-1.43314">
        <ele>-40.731086</ele>
        <time>2021-03-25T11:23:56.000Z</time>
      </trkpt>
      <trkpt lat="43.65232" lon="-1.43336">
        <ele>-40.729324</ele>
        <time>2021-03-25T11:24:03.000Z</time>
      </trkpt>
      <trkpt lat="43.65226" lon="-1.43349">
        <ele>-40.71821</ele>
        <time>2021-03-25T11:24:08.000Z</time>
      </trkpt>
      <trkpt lat="43.65225" lon="-1.43353">
        <ele>-40.715711</ele>
        <time>2021-03-25T11:24:09.000Z</time>
      </trkpt>
      <trkpt lat="43.65221" lon="-1.43362">
        <ele>-40.708528</ele>
        <time>2021-03-25T11:24:12.000Z</time>
      </trkpt>
      <trkpt lat="43.65217" lon="-1.43371">
        <ele>-40.7008</ele>
        <time>2021-03-25T11:24:15.000Z</time>
      </trkpt>
      <trkpt lat="43.65215" lon="-1.43374">
        <ele>-40.698196</ele>
        <time>2021-03-25T11:24:16.000Z</time>
      </trkpt>
      <trkpt lat="43.65212" lon="-1.43384">
        <ele>-40.690621</ele>
        <time>2021-03-25T11:24:19.000Z</time>
      </trkpt>
      <trkpt lat="43.65208" lon="-1.43397">
        <ele>-40.681619</ele>
        <time>2021-03-25T11:24:23.000Z</time>
      </trkpt>
      <trkpt lat="43.6521" lon="-1.43401">
        <ele>-40.678295</ele>
        <time>2021-03-25T11:24:25.000Z</time>
      </trkpt>
      <trkpt lat="43.65211" lon="-1.43402">
        <ele>-40.676971</ele>
        <time>2021-03-25T11:24:29.000Z</time>
      </trkpt>
      <trkpt lat="43.65214" lon="-1.43405">
        <ele>-40.673242</ele>
        <time>2021-03-25T11:24:38.000Z</time>
      </trkpt>
      <trkpt lat="43.65216" lon="-1.43408">
        <ele>-40.671187</ele>
        <time>2021-03-25T11:24:39.000Z</time>
      </trkpt>
      <trkpt lat="43.65228" lon="-1.43423">
        <ele>-40.655621</ele>
        <time>2021-03-25T11:24:45.000Z</time>
      </trkpt>
      <trkpt lat="43.6523" lon="-1.43429">
        <ele>-40.651112</ele>
        <time>2021-03-25T11:24:47.000Z</time>
      </trkpt>
      <trkpt lat="43.6523" lon="-1.43436">
        <ele>-40.646531</ele>
        <time>2021-03-25T11:24:49.000Z</time>
      </trkpt>
      <trkpt lat="43.65219" lon="-1.43455">
        <ele>-40.629847</ele>
        <time>2021-03-25T11:24:55.000Z</time>
      </trkpt>
      <trkpt lat="43.65217" lon="-1.43458">
        <ele>-40.626714</ele>
        <time>2021-03-25T11:24:56.000Z</time>
      </trkpt>
      <trkpt lat="43.65207" lon="-1.43473">
        <ele>-40.612806</ele>
        <time>2021-03-25T11:25:00.000Z</time>
      </trkpt>
      <trkpt lat="43.65198" lon="-1.43481">
        <ele>-40.603081</ele>
        <time>2021-03-25T11:25:03.000Z</time>
      </trkpt>
      <trkpt lat="43.65186" lon="-1.43481">
        <ele>-40.590984</ele>
        <time>2021-03-25T11:25:07.000Z</time>
      </trkpt>
      <trkpt lat="43.65173" lon="-1.43475">
        <ele>-40.578547</ele>
        <time>2021-03-25T11:25:11.000Z</time>
      </trkpt>
      <trkpt lat="43.65169" lon="-1.43475">
        <ele>-40.574384</ele>
        <time>2021-03-25T11:25:13.000Z</time>
      </trkpt>
      <trkpt lat="43.6516" lon="-1.43484">
        <ele>-40.564278</ele>
        <time>2021-03-25T11:25:18.000Z</time>
      </trkpt>
      <trkpt lat="43.65157" lon="-1.43486">
        <ele>-40.560609</ele>
        <time>2021-03-25T11:25:22.000Z</time>
      </trkpt>
      <trkpt lat="43.65157" lon="-1.43486">
        <ele>-40.560609</ele>
        <time>2021-03-25T11:25:26.000Z</time>
      </trkpt>
      <trkpt lat="43.65157" lon="-1.43486">
        <ele>-40.560609</ele>
        <time>2021-03-25T11:25:28.000Z</time>
      </trkpt>
      <trkpt lat="43.65156" lon="-1.43487">
        <ele>-40.559683</ele>
        <time>2021-03-25T11:25:33.000Z</time>
      </trkpt>
      <trkpt lat="43.65154" lon="-1.43488">
        <ele>-40.557611</ele>
        <time>2021-03-25T11:25:35.000Z</time>
      </trkpt>
      <trkpt lat="43.65147" lon="-1.43493">
        <ele>-40.549852</ele>
        <time>2021-03-25T11:25:39.000Z</time>
      </trkpt>
      <trkpt lat="43.65131" lon="-1.43485">
        <ele>-40.532991</ele>
        <time>2021-03-25T11:25:45.000Z</time>
      </trkpt>
      <trkpt lat="43.65117" lon="-1.43478">
        <ele>-40.517946</ele>
        <time>2021-03-25T11:25:50.000Z</time>
      </trkpt>
      <trkpt lat="43.65113" lon="-1.43477">
        <ele>-40.514355</ele>
        <time>2021-03-25T11:25:51.000Z</time>
      </trkpt>
      <trkpt lat="43.65086" lon="-1.43464">
        <ele>-40.485872</ele>
        <time>2021-03-25T11:26:00.000Z</time>
      </trkpt>
      <trkpt lat="43.65078" lon="-1.4346">
        <ele>-40.477857</ele>
        <time>2021-03-25T11:26:04.000Z</time>
      </trkpt>
      <trkpt lat="43.65077" lon="-1.43458">
        <ele>-40.476213</ele>
        <time>2021-03-25T11:26:05.000Z</time>
      </trkpt>
      <trkpt lat="43.65077" lon="-1.43457">
        <ele>-40.474826</ele>
        <time>2021-03-25T11:26:06.000Z</time>
      </trkpt>
      <trkpt lat="43.65077" lon="-1.43455">
        <ele>-40.473457</ele>
        <time>2021-03-25T11:26:08.000Z</time>
      </trkpt>
      <trkpt lat="43.65077" lon="-1.43454">
        <ele>-40.472958</ele>
        <time>2021-03-25T11:26:09.000Z</time>
      </trkpt>
      <trkpt lat="43.65077" lon="-1.43454">
        <ele>-40.472958</ele>
        <time>2021-03-25T11:26:12.000Z</time>
      </trkpt>
      <trkpt lat="43.65077" lon="-1.43454">
        <ele>-40.472958</ele>
        <time>2021-03-25T11:26:16.000Z</time>
      </trkpt>
      <trkpt lat="43.65079" lon="-1.43456">
        <ele>-40.470196</ele>
        <time>2021-03-25T11:26:19.000Z</time>
      </trkpt>
      <trkpt lat="43.65079" lon="-1.4346">
        <ele>-40.4677</ele>
        <time>2021-03-25T11:26:21.000Z</time>
      </trkpt>
      <trkpt lat="43.65076" lon="-1.43461">
        <ele>-40.464641</ele>
        <time>2021-03-25T11:26:23.000Z</time>
      </trkpt>
      <trkpt lat="43.65072" lon="-1.4346">
        <ele>-40.460687</ele>
        <time>2021-03-25T11:26:25.000Z</time>
      </trkpt>
      <trkpt lat="43.65052" lon="-1.4345">
        <ele>-40.439608</ele>
        <time>2021-03-25T11:26:32.000Z</time>
      </trkpt>
      <trkpt lat="43.65023" lon="-1.43437">
        <ele>-40.409769</ele>
        <time>2021-03-25T11:26:41.000Z</time>
      </trkpt>
      <trkpt lat="43.64998" lon="-1.43427">
        <ele>-40.386076</ele>
        <time>2021-03-25T11:26:49.000Z</time>
      </trkpt>
      <trkpt lat="43.6499" lon="-1.43423">
        <ele>-40.385745</ele>
        <time>2021-03-25T11:26:52.000Z</time>
      </trkpt>
      <trkpt lat="43.64984" lon="-1.43425">
        <ele>-40.385531</ele>
        <time>2021-03-25T11:26:54.000Z</time>
      </trkpt>
      <trkpt lat="43.64968" lon="-1.43437">
        <ele>-40.384887</ele>
        <time>2021-03-25T11:26:59.000Z</time>
      </trkpt>
      <trkpt lat="43.64961" lon="-1.43446">
        <ele>-40.384531</ele>
        <time>2021-03-25T11:27:02.000Z</time>
      </trkpt>
      <trkpt lat="43.64948" lon="-1.43473">
        <ele>-40.383674</ele>
        <time>2021-03-25T11:27:08.000Z</time>
      </trkpt>
      <trkpt lat="43.64943" lon="-1.43482">
        <ele>-40.383384</ele>
        <time>2021-03-25T11:27:10.000Z</time>
      </trkpt>
      <trkpt lat="43.64941" lon="-1.43487">
        <ele>-40.383226</ele>
        <time>2021-03-25T11:27:11.000Z</time>
      </trkpt>
      <trkpt lat="43.64939" lon="-1.43492">
        <ele>-40.383065</ele>
        <time>2021-03-25T11:27:12.000Z</time>
      </trkpt>
      <trkpt lat="43.64931" lon="-1.43509">
        <ele>-40.382551</ele>
        <time>2021-03-25T11:27:15.000Z</time>
      </trkpt>
      <trkpt lat="43.64923" lon="-1.43518">
        <ele>-40.382179</ele>
        <time>2021-03-25T11:27:17.000Z</time>
      </trkpt>
      <trkpt lat="43.64915" lon="-1.43523">
        <ele>-40.381853</ele>
        <time>2021-03-25T11:27:19.000Z</time>
      </trkpt>
      <trkpt lat="43.64907" lon="-1.43523">
        <ele>-40.381555</ele>
        <time>2021-03-25T11:27:21.000Z</time>
      </trkpt>
      <trkpt lat="43.64894" lon="-1.43518">
        <ele>-40.381079</ele>
        <time>2021-03-25T11:27:25.000Z</time>
      </trkpt>
      <trkpt lat="43.64891" lon="-1.43518">
        <ele>-40.380974</ele>
        <time>2021-03-25T11:27:26.000Z</time>
      </trkpt>
      <trkpt lat="43.64888" lon="-1.43523">
        <ele>-40.380798</ele>
        <time>2021-03-25T11:27:28.000Z</time>
      </trkpt>
      <trkpt lat="43.64886" lon="-1.43534">
        <ele>-40.380509</ele>
        <time>2021-03-25T11:27:31.000Z</time>
      </trkpt>
      <trkpt lat="43.64884" lon="-1.43551">
        <ele>-40.380048</ele>
        <time>2021-03-25T11:27:35.000Z</time>
      </trkpt>
      <trkpt lat="43.64886" lon="-1.43567">
        <ele>-40.379626</ele>
        <time>2021-03-25T11:27:39.000Z</time>
      </trkpt>
      <trkpt lat="43.64899" lon="-1.43575">
        <ele>-40.381983</ele>
        <time>2021-03-25T11:27:44.000Z</time>
      </trkpt>
      <trkpt lat="43.64922" lon="-1.43583">
        <ele>-40.3862</ele>
        <time>2021-03-25T11:27:51.000Z</time>
      </trkpt>
      <trkpt lat="43.64934" lon="-1.43586">
        <ele>-40.388419</ele>
        <time>2021-03-25T11:27:54.000Z</time>
      </trkpt>
      <trkpt lat="43.64958" lon="-1.43594">
        <ele>-40.39261</ele>
        <time>2021-03-25T11:28:00.000Z</time>
      </trkpt>
      <trkpt lat="43.64966" lon="-1.43596">
        <ele>-40.394064</ele>
        <time>2021-03-25T11:28:02.000Z</time>
      </trkpt>
      <trkpt lat="43.64978" lon="-1.43599">
        <ele>-40.396305</ele>
        <time>2021-03-25T11:28:05.000Z</time>
      </trkpt>
      <trkpt lat="43.64995" lon="-1.43604">
        <ele>-40.399255</ele>
        <time>2021-03-25T11:28:09.000Z</time>
      </trkpt>
      <trkpt lat="43.65002" lon="-1.43606">
        <ele>-40.400654</ele>
        <time>2021-03-25T11:28:11.000Z</time>
      </trkpt>
      <trkpt lat="43.6501" lon="-1.43608">
        <ele>-40.401952</ele>
        <time>2021-03-25T11:28:13.000Z</time>
      </trkpt>
      <trkpt lat="43.6502" lon="-1.43611">
        <ele>-40.403803</ele>
        <time>2021-03-25T11:28:16.000Z</time>
      </trkpt>
      <trkpt lat="43.65027" lon="-1.43613">
        <ele>-40.405059</ele>
        <time>2021-03-25T11:28:18.000Z</time>
      </trkpt>
      <trkpt lat="43.65053" lon="-1.43623">
        <ele>-40.409853</ele>
        <time>2021-03-25T11:28:27.000Z</time>
      </trkpt>
      <trkpt lat="43.65066" lon="-1.43628">
        <ele>-40.404501</ele>
        <time>2021-03-25T11:28:31.000Z</time>
      </trkpt>
      <trkpt lat="43.65081" lon="-1.43632">
        <ele>-40.386779</ele>
        <time>2021-03-25T11:28:35.000Z</time>
      </trkpt>
      <trkpt lat="43.65089" lon="-1.43635">
        <ele>-40.376923</ele>
        <time>2021-03-25T11:28:37.000Z</time>
      </trkpt>
      <trkpt lat="43.65127" lon="-1.43649">
        <ele>-40.329455</ele>
        <time>2021-03-25T11:28:47.000Z</time>
      </trkpt>
      <trkpt lat="43.65143" lon="-1.43654">
        <ele>-40.309599</ele>
        <time>2021-03-25T11:28:51.000Z</time>
      </trkpt>
      <trkpt lat="43.65163" lon="-1.43661">
        <ele>-40.285378</ele>
        <time>2021-03-25T11:28:56.000Z</time>
      </trkpt>
      <trkpt lat="43.65167" lon="-1.43662">
        <ele>-40.280359</ele>
        <time>2021-03-25T11:28:57.000Z</time>
      </trkpt>
      <trkpt lat="43.65214" lon="-1.43683">
        <ele>-40.220491</ele>
        <time>2021-03-25T11:29:09.000Z</time>
      </trkpt>
      <trkpt lat="43.65228" lon="-1.43696">
        <ele>-40.200468</ele>
        <time>2021-03-25T11:29:13.000Z</time>
      </trkpt>
      <trkpt lat="43.65238" lon="-1.43707">
        <ele>-40.195491</ele>
        <time>2021-03-25T11:29:16.000Z</time>
      </trkpt>
      <trkpt lat="43.6524" lon="-1.43712">
        <ele>-40.19567</ele>
        <time>2021-03-25T11:29:17.000Z</time>
      </trkpt>
      <trkpt lat="43.65255" lon="-1.4374">
        <ele>-40.196738</ele>
        <time>2021-03-25T11:29:23.000Z</time>
      </trkpt>
      <trkpt lat="43.65266" lon="-1.43765">
        <ele>-40.197625</ele>
        <time>2021-03-25T11:29:28.000Z</time>
      </trkpt>
      <trkpt lat="43.65271" lon="-1.43775">
        <ele>-40.197984</ele>
        <time>2021-03-25T11:29:30.000Z</time>
      </trkpt>
      <trkpt lat="43.65278" lon="-1.4379">
        <ele>-40.198526</ele>
        <time>2021-03-25T11:29:33.000Z</time>
      </trkpt>
      <trkpt lat="43.65304" lon="-1.43858">
        <ele>-40.200874</ele>
        <time>2021-03-25T11:29:46.000Z</time>
      </trkpt>
      <trkpt lat="43.65308" lon="-1.43869">
        <ele>-40.201234</ele>
        <time>2021-03-25T11:29:48.000Z</time>
      </trkpt>
      <trkpt lat="43.65316" lon="-1.43889">
        <ele>-40.201939</ele>
        <time>2021-03-25T11:29:52.000Z</time>
      </trkpt>
      <trkpt lat="43.65328" lon="-1.43921">
        <ele>-40.192498</ele>
        <time>2021-03-25T11:29:58.000Z</time>
      </trkpt>
      <trkpt lat="43.65341" lon="-1.43956">
        <ele>-40.154246</ele>
        <time>2021-03-25T11:30:05.000Z</time>
      </trkpt>
      <trkpt lat="43.65348" lon="-1.43975">
        <ele>-40.133532</ele>
        <time>2021-03-25T11:30:09.000Z</time>
      </trkpt>
      <trkpt lat="43.65359" lon="-1.44007">
        <ele>-40.098662</ele>
        <time>2021-03-25T11:30:17.000Z</time>
      </trkpt>
      <trkpt lat="43.65372" lon="-1.44041">
        <ele>-40.061096</ele>
        <time>2021-03-25T11:30:26.000Z</time>
      </trkpt>
      <trkpt lat="43.65377" lon="-1.44053">
        <ele>-40.047919</ele>
        <time>2021-03-25T11:30:29.000Z</time>
      </trkpt>
      <trkpt lat="43.65382" lon="-1.44065">
        <ele>-40.034248</ele>
        <time>2021-03-25T11:30:32.000Z</time>
      </trkpt>
      <trkpt lat="43.65385" lon="-1.44074">
        <ele>-40.025271</ele>
        <time>2021-03-25T11:30:34.000Z</time>
      </trkpt>
      <trkpt lat="43.65394" lon="-1.44096">
        <ele>-40.000815</ele>
        <time>2021-03-25T11:30:40.000Z</time>
      </trkpt>
      <trkpt lat="43.65404" lon="-1.44123">
        <ele>-39.97103</ele>
        <time>2021-03-25T11:30:48.000Z</time>
      </trkpt>
      <trkpt lat="43.65409" lon="-1.44135">
        <ele>-39.959355</ele>
        <time>2021-03-25T11:30:52.000Z</time>
      </trkpt>
      <trkpt lat="43.65414" lon="-1.44149">
        <ele>-39.949989</ele>
        <time>2021-03-25T11:30:56.000Z</time>
      </trkpt>
      <trkpt lat="43.65416" lon="-1.44152">
        <ele>-39.947535</ele>
        <time>2021-03-25T11:30:57.000Z</time>
      </trkpt>
      <trkpt lat="43.6543" lon="-1.4419">
        <ele>-39.922479</ele>
        <time>2021-03-25T11:31:06.000Z</time>
      </trkpt>
      <trkpt lat="43.65443" lon="-1.44226">
        <ele>-39.898764</ele>
        <time>2021-03-25T11:31:14.000Z</time>
      </trkpt>
      <trkpt lat="43.65447" lon="-1.44245">
        <ele>-39.886697</ele>
        <time>2021-03-25T11:31:19.000Z</time>
      </trkpt>
      <trkpt lat="43.65448" lon="-1.44249">
        <ele>-39.884666</ele>
        <time>2021-03-25T11:31:20.000Z</time>
      </trkpt>
      <trkpt lat="43.65449" lon="-1.44255">
        <ele>-39.880989</ele>
        <time>2021-03-25T11:31:22.000Z</time>
      </trkpt>
      <trkpt lat="43.6545" lon="-1.44262">
        <ele>-39.876294</ele>
        <time>2021-03-25T11:31:25.000Z</time>
      </trkpt>
      <trkpt lat="43.6545" lon="-1.44265">
        <ele>-39.874874</ele>
        <time>2021-03-25T11:31:29.000Z</time>
      </trkpt>
      <trkpt lat="43.65451" lon="-1.44268">
        <ele>-39.87326</ele>
        <time>2021-03-25T11:31:35.000Z</time>
      </trkpt>
      <trkpt lat="43.65452" lon="-1.44273">
        <ele>-39.870003</ele>
        <time>2021-03-25T11:31:37.000Z</time>
      </trkpt>
      <trkpt lat="43.65456" lon="-1.443">
        <ele>-39.853573</ele>
        <time>2021-03-25T11:31:46.000Z</time>
      </trkpt>
      <trkpt lat="43.65457" lon="-1.44303">
        <ele>-39.851506</ele>
        <time>2021-03-25T11:31:47.000Z</time>
      </trkpt>
      <trkpt lat="43.65462" lon="-1.44329">
        <ele>-39.835537</ele>
        <time>2021-03-25T11:31:54.000Z</time>
      </trkpt>
      <trkpt lat="43.65464" lon="-1.44336">
        <ele>-39.831287</ele>
        <time>2021-03-25T11:31:56.000Z</time>
      </trkpt>
      <trkpt lat="43.65464" lon="-1.44339">
        <ele>-39.829353</ele>
        <time>2021-03-25T11:31:57.000Z</time>
      </trkpt>
      <trkpt lat="43.65466" lon="-1.44346">
        <ele>-39.825435</ele>
        <time>2021-03-25T11:31:59.000Z</time>
      </trkpt>
      <trkpt lat="43.65467" lon="-1.44354">
        <ele>-39.820639</ele>
        <time>2021-03-25T11:32:01.000Z</time>
      </trkpt>
      <trkpt lat="43.65468" lon="-1.44362">
        <ele>-39.815413</ele>
        <time>2021-03-25T11:32:03.000Z</time>
      </trkpt>
      <trkpt lat="43.65469" lon="-1.44367">
        <ele>-39.761308</ele>
        <time>2021-03-25T11:32:04.000Z</time>
      </trkpt>
      <trkpt lat="43.65475" lon="-1.44402">
        <ele>-39.282386</ele>
        <time>2021-03-25T11:32:12.000Z</time>
      </trkpt>
      <trkpt lat="43.65481" lon="-1.4443">
        <ele>-38.888165</ele>
        <time>2021-03-25T11:32:19.000Z</time>
      </trkpt>
      <trkpt lat="43.65482" lon="-1.44434">
        <ele>-38.840318</ele>
        <time>2021-03-25T11:32:20.000Z</time>
      </trkpt>
      <trkpt lat="43.65483" lon="-1.4444">
        <ele>-38.756005</ele>
        <time>2021-03-25T11:32:22.000Z</time>
      </trkpt>
      <trkpt lat="43.65483" lon="-1.44446">
        <ele>-38.66881</ele>
        <time>2021-03-25T11:32:24.000Z</time>
      </trkpt>
      <trkpt lat="43.65478" lon="-1.44464">
        <ele>-38.418081</ele>
        <time>2021-03-25T11:32:30.000Z</time>
      </trkpt>
      <trkpt lat="43.65466" lon="-1.44471">
        <ele>-38.177328</ele>
        <time>2021-03-25T11:32:35.000Z</time>
      </trkpt>
      <trkpt lat="43.65461" lon="-1.44472">
        <ele>-38.085513</ele>
        <time>2021-03-25T11:32:37.000Z</time>
      </trkpt>
      <trkpt lat="43.65451" lon="-1.44468">
        <ele>-37.88969</ele>
        <time>2021-03-25T11:32:41.000Z</time>
      </trkpt>
      <trkpt lat="43.65436" lon="-1.44468">
        <ele>-37.622545</ele>
        <time>2021-03-25T11:32:47.000Z</time>
      </trkpt>
      <trkpt lat="43.65425" lon="-1.44471">
        <ele>-37.416261</ele>
        <time>2021-03-25T11:32:52.000Z</time>
      </trkpt>
      <trkpt lat="43.65421" lon="-1.44473">
        <ele>-37.32139</ele>
        <time>2021-03-25T11:32:54.000Z</time>
      </trkpt>
      <trkpt lat="43.65411" lon="-1.44477">
        <ele>-37.13093</ele>
        <time>2021-03-25T11:33:00.000Z</time>
      </trkpt>
      <trkpt lat="43.65399" lon="-1.44482">
        <ele>-36.90352</ele>
        <time>2021-03-25T11:33:06.000Z</time>
      </trkpt>
      <trkpt lat="43.65395" lon="-1.44484">
        <ele>-36.831598</ele>
        <time>2021-03-25T11:33:09.000Z</time>
      </trkpt>
      <trkpt lat="43.65395" lon="-1.44484">
        <ele>-36.825878</ele>
        <time>2021-03-25T11:33:11.000Z</time>
      </trkpt>
      <trkpt lat="43.65395" lon="-1.44484">
        <ele>-36.825878</ele>
        <time>2021-03-25T11:33:20.000Z</time>
      </trkpt>
      <trkpt lat="43.65395" lon="-1.44484">
        <ele>-36.825878</ele>
        <time>2021-03-25T11:33:22.000Z</time>
      </trkpt>
      <trkpt lat="43.65395" lon="-1.44484">
        <ele>-36.824536</ele>
        <time>2021-03-25T11:33:35.000Z</time>
      </trkpt>
      <trkpt lat="43.65395" lon="-1.44484">
        <ele>-36.820594</ele>
        <time>2021-03-25T11:33:46.000Z</time>
      </trkpt>
      <trkpt lat="43.65395" lon="-1.44485">
        <ele>-36.806416</ele>
        <time>2021-03-25T11:33:56.000Z</time>
      </trkpt>
      <trkpt lat="43.65395" lon="-1.44486">
        <ele>-36.800945</ele>
        <time>2021-03-25T11:34:07.000Z</time>
      </trkpt>
      <trkpt lat="43.65394" lon="-1.44487">
        <ele>-36.783521</ele>
        <time>2021-03-25T11:34:29.000Z</time>
      </trkpt>
      <trkpt lat="43.65394" lon="-1.44487">
        <ele>-36.77796</ele>
        <time>2021-03-25T11:34:32.000Z</time>
      </trkpt>
      <trkpt lat="43.65394" lon="-1.44487">
        <ele>-36.77796</ele>
        <time>2021-03-25T11:35:00.000Z</time>
      </trkpt>
      <trkpt lat="43.65394" lon="-1.44486">
        <ele>-36.772595</ele>
        <time>2021-03-25T11:35:05.000Z</time>
      </trkpt>
      <trkpt lat="43.65394" lon="-1.44486">
        <ele>-36.772595</ele>
        <time>2021-03-25T11:35:14.000Z</time>
      </trkpt>
      <trkpt lat="43.65394" lon="-1.44486">
        <ele>-36.772595</ele>
        <time>2021-03-25T11:35:22.000Z</time>
      </trkpt>
      <trkpt lat="43.65394" lon="-1.44486">
        <ele>-36.772595</ele>
        <time>2021-03-25T11:35:33.000Z</time>
      </trkpt>
      <trkpt lat="43.65394" lon="-1.44486">
        <ele>-36.772595</ele>
        <time>2021-03-25T11:35:37.000Z</time>
      </trkpt>
      <trkpt lat="43.65394" lon="-1.44486">
        <ele>-36.772595</ele>
        <time>2021-03-25T11:35:42.000Z</time>
      </trkpt>
      <trkpt lat="43.65393" lon="-1.44487">
        <ele>-36.758554</ele>
        <time>2021-03-25T11:35:59.000Z</time>
      </trkpt>
      <trkpt lat="43.65393" lon="-1.44487">
        <ele>-36.756266</ele>
        <time>2021-03-25T11:36:03.000Z</time>
      </trkpt>
      <trkpt lat="43.65393" lon="-1.44487">
        <ele>-36.754413</ele>
        <time>2021-03-25T11:36:13.000Z</time>
      </trkpt>
      <trkpt lat="43.65393" lon="-1.44487">
        <ele>-36.754413</ele>
        <time>2021-03-25T11:36:35.000Z</time>
      </trkpt>
      <trkpt lat="43.65393" lon="-1.44487">
        <ele>-36.754413</ele>
        <time>2021-03-25T11:36:46.000Z</time>
      </trkpt>
      <trkpt lat="43.65393" lon="-1.44487">
        <ele>-36.754413</ele>
        <time>2021-03-25T11:37:17.000Z</time>
      </trkpt>
      <trkpt lat="43.65393" lon="-1.44487">
        <ele>-36.754413</ele>
        <time>2021-03-25T11:37:19.000Z</time>
      </trkpt>
      <trkpt lat="43.65393" lon="-1.44486">
        <ele>-36.75173</ele>
        <time>2021-03-25T11:37:24.000Z</time>
      </trkpt>
      <trkpt lat="43.65393" lon="-1.44486">
        <ele>-36.744068</ele>
        <time>2021-03-25T11:37:32.000Z</time>
      </trkpt>
      <trkpt lat="43.65393" lon="-1.44485">
        <ele>-36.726633</ele>
        <time>2021-03-25T11:37:42.000Z</time>
      </trkpt>
      <trkpt lat="43.65393" lon="-1.44485">
        <ele>-36.726633</ele>
        <time>2021-03-25T11:37:45.000Z</time>
      </trkpt>
      <trkpt lat="43.65393" lon="-1.44485">
        <ele>-36.725291</ele>
        <time>2021-03-25T11:37:53.000Z</time>
      </trkpt>
      <trkpt lat="43.65393" lon="-1.44485">
        <ele>-36.725291</ele>
        <time>2021-03-25T11:37:56.000Z</time>
      </trkpt>
      <trkpt lat="43.65393" lon="-1.44485">
        <ele>-36.725291</ele>
        <time>2021-03-25T11:37:59.000Z</time>
      </trkpt>
      <trkpt lat="43.65393" lon="-1.44485">
        <ele>-36.725291</ele>
        <time>2021-03-25T11:38:03.000Z</time>
      </trkpt>
      <trkpt lat="43.65392" lon="-1.44485">
        <ele>-36.717877</ele>
        <time>2021-03-25T11:38:06.000Z</time>
      </trkpt>
      <trkpt lat="43.65392" lon="-1.44485">
        <ele>-36.717877</ele>
        <time>2021-03-25T11:38:17.000Z</time>
      </trkpt>
      <trkpt lat="43.65392" lon="-1.44485">
        <ele>-36.717877</ele>
        <time>2021-03-25T11:38:21.000Z</time>
      </trkpt>
      <trkpt lat="43.65351" lon="-1.44533">
        <ele>-36.615591</ele>
        <time>2021-03-25T12:25:53.000Z</time>
      </trkpt>
      <trkpt lat="43.65351" lon="-1.44533">
        <ele>-36.615591</ele>
        <time>2021-03-25T12:25:54.000Z</time>
      </trkpt>
      <trkpt lat="43.65351" lon="-1.44533">
        <ele>-36.615825</ele>
        <time>2021-03-25T12:25:56.000Z</time>
      </trkpt>
      <trkpt lat="43.65351" lon="-1.44533">
        <ele>-36.61759</ele>
        <time>2021-03-25T12:26:11.000Z</time>
      </trkpt>
      <trkpt lat="43.65351" lon="-1.44533">
        <ele>-36.61799</ele>
        <time>2021-03-25T12:26:14.000Z</time>
      </trkpt>
      <trkpt lat="43.65351" lon="-1.44532">
        <ele>-36.620527</ele>
        <time>2021-03-25T12:26:22.000Z</time>
      </trkpt>
      <trkpt lat="43.6535" lon="-1.44525">
        <ele>-36.636618</ele>
        <time>2021-03-25T12:26:25.000Z</time>
      </trkpt>
      <trkpt lat="43.65349" lon="-1.44518">
        <ele>-36.65337</ele>
        <time>2021-03-25T12:26:30.000Z</time>
      </trkpt>
      <trkpt lat="43.6535" lon="-1.44516">
        <ele>-36.658157</ele>
        <time>2021-03-25T12:26:31.000Z</time>
      </trkpt>
      <trkpt lat="43.65352" lon="-1.44508">
        <ele>-36.679757</ele>
        <time>2021-03-25T12:26:35.000Z</time>
      </trkpt>
      <trkpt lat="43.65362" lon="-1.44501">
        <ele>-36.714486</ele>
        <time>2021-03-25T12:26:39.000Z</time>
      </trkpt>
      <trkpt lat="43.65377" lon="-1.44495">
        <ele>-36.765753</ele>
        <time>2021-03-25T12:26:43.000Z</time>
      </trkpt>
      <trkpt lat="43.6539" lon="-1.44491">
        <ele>-36.806906</ele>
        <time>2021-03-25T12:26:46.000Z</time>
      </trkpt>
      <trkpt lat="43.65403" lon="-1.44486">
        <ele>-36.851463</ele>
        <time>2021-03-25T12:26:49.000Z</time>
      </trkpt>
      <trkpt lat="43.65424" lon="-1.44483">
        <ele>-36.918748</ele>
        <time>2021-03-25T12:26:54.000Z</time>
      </trkpt>
      <trkpt lat="43.65431" lon="-1.44481">
        <ele>-36.942088</ele>
        <time>2021-03-25T12:26:56.000Z</time>
      </trkpt>
      <trkpt lat="43.65441" lon="-1.44477">
        <ele>-36.978304</ele>
        <time>2021-03-25T12:26:59.000Z</time>
      </trkpt>
      <trkpt lat="43.65452" lon="-1.4447">
        <ele>-37.015469</ele>
        <time>2021-03-25T12:27:02.000Z</time>
      </trkpt>
      <trkpt lat="43.65455" lon="-1.44469">
        <ele>-37.027869</ele>
        <time>2021-03-25T12:27:03.000Z</time>
      </trkpt>
      <trkpt lat="43.65476" lon="-1.44459">
        <ele>-37.255256</ele>
        <time>2021-03-25T12:27:09.000Z</time>
      </trkpt>
      <trkpt lat="43.65482" lon="-1.44448">
        <ele>-37.420375</ele>
        <time>2021-03-25T12:27:12.000Z</time>
      </trkpt>
      <trkpt lat="43.65482" lon="-1.44445">
        <ele>-37.468109</ele>
        <time>2021-03-25T12:27:13.000Z</time>
      </trkpt>
      <trkpt lat="43.65482" lon="-1.44434">
        <ele>-37.612409</ele>
        <time>2021-03-25T12:27:16.000Z</time>
      </trkpt>
      <trkpt lat="43.6548" lon="-1.44425">
        <ele>-37.728083</ele>
        <time>2021-03-25T12:27:18.000Z</time>
      </trkpt>
      <trkpt lat="43.65474" lon="-1.44401">
        <ele>-38.04716</ele>
        <time>2021-03-25T12:27:22.000Z</time>
      </trkpt>
      <trkpt lat="43.65473" lon="-1.44394">
        <ele>-38.138925</ele>
        <time>2021-03-25T12:27:23.000Z</time>
      </trkpt>
      <trkpt lat="43.65464" lon="-1.44351">
        <ele>-38.715331</ele>
        <time>2021-03-25T12:27:29.000Z</time>
      </trkpt>
      <trkpt lat="43.65457" lon="-1.4432">
        <ele>-39.126983</ele>
        <time>2021-03-25T12:27:33.000Z</time>
      </trkpt>
      <trkpt lat="43.65451" lon="-1.4429">
        <ele>-39.528787</ele>
        <time>2021-03-25T12:27:37.000Z</time>
      </trkpt>
      <trkpt lat="43.65445" lon="-1.44258">
        <ele>-39.951455</ele>
        <time>2021-03-25T12:27:41.000Z</time>
      </trkpt>
      <trkpt lat="43.65439" lon="-1.44228">
        <ele>-40.234352</ele>
        <time>2021-03-25T12:27:45.000Z</time>
      </trkpt>
      <trkpt lat="43.65437" lon="-1.44221">
        <ele>-40.222778</ele>
        <time>2021-03-25T12:27:46.000Z</time>
      </trkpt>
      <trkpt lat="43.65434" lon="-1.44208">
        <ele>-40.202078</ele>
        <time>2021-03-25T12:27:48.000Z</time>
      </trkpt>
      <trkpt lat="43.65428" lon="-1.4419">
        <ele>-40.170947</ele>
        <time>2021-03-25T12:27:51.000Z</time>
      </trkpt>
      <trkpt lat="43.65413" lon="-1.44148">
        <ele>-40.098245</ele>
        <time>2021-03-25T12:27:58.000Z</time>
      </trkpt>
      <trkpt lat="43.65409" lon="-1.44136">
        <ele>-40.078739</ele>
        <time>2021-03-25T12:28:00.000Z</time>
      </trkpt>
      <trkpt lat="43.65405" lon="-1.44126">
        <ele>-40.061362</ele>
        <time>2021-03-25T12:28:02.000Z</time>
      </trkpt>
      <trkpt lat="43.6539" lon="-1.4409">
        <ele>-39.996936</ele>
        <time>2021-03-25T12:28:08.000Z</time>
      </trkpt>
      <trkpt lat="43.6538" lon="-1.44065">
        <ele>-39.952849</ele>
        <time>2021-03-25T12:28:12.000Z</time>
      </trkpt>
      <trkpt lat="43.65372" lon="-1.44045">
        <ele>-39.917958</ele>
        <time>2021-03-25T12:28:15.000Z</time>
      </trkpt>
      <trkpt lat="43.65362" lon="-1.44017">
        <ele>-39.869514</ele>
        <time>2021-03-25T12:28:19.000Z</time>
      </trkpt>
      <trkpt lat="43.65355" lon="-1.43998">
        <ele>-39.8344</ele>
        <time>2021-03-25T12:28:22.000Z</time>
      </trkpt>
      <trkpt lat="43.65338" lon="-1.43953">
        <ele>-39.748137</ele>
        <time>2021-03-25T12:28:28.000Z</time>
      </trkpt>
      <trkpt lat="43.65332" lon="-1.43937">
        <ele>-39.717174</ele>
        <time>2021-03-25T12:28:30.000Z</time>
      </trkpt>
      <trkpt lat="43.65315" lon="-1.43891">
        <ele>-39.630458</ele>
        <time>2021-03-25T12:28:36.000Z</time>
      </trkpt>
      <trkpt lat="43.65301" lon="-1.43855">
        <ele>-39.561671</ele>
        <time>2021-03-25T12:28:41.000Z</time>
      </trkpt>
      <trkpt lat="43.65289" lon="-1.43825">
        <ele>-39.502316</ele>
        <time>2021-03-25T12:28:45.000Z</time>
      </trkpt>
      <trkpt lat="43.65286" lon="-1.43819">
        <ele>-39.49083</ele>
        <time>2021-03-25T12:28:46.000Z</time>
      </trkpt>
      <trkpt lat="43.65272" lon="-1.43783">
        <ele>-39.443981</ele>
        <time>2021-03-25T12:28:51.000Z</time>
      </trkpt>
      <trkpt lat="43.65263" lon="-1.43762">
        <ele>-39.444896</ele>
        <time>2021-03-25T12:28:54.000Z</time>
      </trkpt>
      <trkpt lat="43.65258" lon="-1.4375">
        <ele>-39.445397</ele>
        <time>2021-03-25T12:28:56.000Z</time>
      </trkpt>
      <trkpt lat="43.65245" lon="-1.43725">
        <ele>-39.446556</ele>
        <time>2021-03-25T12:29:00.000Z</time>
      </trkpt>
      <trkpt lat="43.65237" lon="-1.43707">
        <ele>-39.447358</ele>
        <time>2021-03-25T12:29:03.000Z</time>
      </trkpt>
      <trkpt lat="43.65233" lon="-1.43702">
        <ele>-39.447635</ele>
        <time>2021-03-25T12:29:04.000Z</time>
      </trkpt>
      <trkpt lat="43.65218" lon="-1.43683">
        <ele>-39.448704</ele>
        <time>2021-03-25T12:29:08.000Z</time>
      </trkpt>
      <trkpt lat="43.65213" lon="-1.43679">
        <ele>-39.449008</ele>
        <time>2021-03-25T12:29:09.000Z</time>
      </trkpt>
      <trkpt lat="43.65181" lon="-1.43663">
        <ele>-39.450757</ele>
        <time>2021-03-25T12:29:15.000Z</time>
      </trkpt>
      <trkpt lat="43.65147" lon="-1.43652">
        <ele>-39.452596</ele>
        <time>2021-03-25T12:29:21.000Z</time>
      </trkpt>
      <trkpt lat="43.65135" lon="-1.43649">
        <ele>-39.483225</ele>
        <time>2021-03-25T12:29:23.000Z</time>
      </trkpt>
      <trkpt lat="43.65129" lon="-1.43647">
        <ele>-39.507912</ele>
        <time>2021-03-25T12:29:24.000Z</time>
      </trkpt>
      <trkpt lat="43.65071" lon="-1.43628">
        <ele>-39.756532</ele>
        <time>2021-03-25T12:29:34.000Z</time>
      </trkpt>
      <trkpt lat="43.6506" lon="-1.43625">
        <ele>-39.803154</ele>
        <time>2021-03-25T12:29:36.000Z</time>
      </trkpt>
      <trkpt lat="43.65006" lon="-1.43608">
        <ele>-40.031002</ele>
        <time>2021-03-25T12:29:46.000Z</time>
      </trkpt>
      <trkpt lat="43.64996" lon="-1.43604">
        <ele>-40.075789</ele>
        <time>2021-03-25T12:29:48.000Z</time>
      </trkpt>
      <trkpt lat="43.64991" lon="-1.43602">
        <ele>-40.097976</ele>
        <time>2021-03-25T12:29:49.000Z</time>
      </trkpt>
      <trkpt lat="43.64943" lon="-1.43587">
        <ele>-40.300207</ele>
        <time>2021-03-25T12:29:58.000Z</time>
      </trkpt>
      <trkpt lat="43.64892" lon="-1.43572">
        <ele>-40.508768</ele>
        <time>2021-03-25T12:30:08.000Z</time>
      </trkpt>
      <trkpt lat="43.64888" lon="-1.4357">
        <ele>-40.526469</ele>
        <time>2021-03-25T12:30:09.000Z</time>
      </trkpt>
      <trkpt lat="43.64881" lon="-1.43563">
        <ele>-40.560263</ele>
        <time>2021-03-25T12:30:11.000Z</time>
      </trkpt>
      <trkpt lat="43.6488" lon="-1.43559">
        <ele>-40.575567</ele>
        <time>2021-03-25T12:30:12.000Z</time>
      </trkpt>
      <trkpt lat="43.64881" lon="-1.43538">
        <ele>-40.63634</ele>
        <time>2021-03-25T12:30:16.000Z</time>
      </trkpt>
      <trkpt lat="43.64889" lon="-1.43514">
        <ele>-40.713603</ele>
        <time>2021-03-25T12:30:21.000Z</time>
      </trkpt>
      <trkpt lat="43.64892" lon="-1.43513">
        <ele>-40.728975</ele>
        <time>2021-03-25T12:30:22.000Z</time>
      </trkpt>
      <trkpt lat="43.64913" lon="-1.43517">
        <ele>-40.814969</ele>
        <time>2021-03-25T12:30:27.000Z</time>
      </trkpt>
      <trkpt lat="43.64917" lon="-1.43516">
        <ele>-40.830614</ele>
        <time>2021-03-25T12:30:28.000Z</time>
      </trkpt>
      <trkpt lat="43.64929" lon="-1.4351">
        <ele>-40.88199</ele>
        <time>2021-03-25T12:30:31.000Z</time>
      </trkpt>
      <trkpt lat="43.64932" lon="-1.43506">
        <ele>-40.899246</ele>
        <time>2021-03-25T12:30:32.000Z</time>
      </trkpt>
      <trkpt lat="43.64935" lon="-1.43501">
        <ele>-40.915871</ele>
        <time>2021-03-25T12:30:33.000Z</time>
      </trkpt>
      <trkpt lat="43.64941" lon="-1.43484">
        <ele>-40.904828</ele>
        <time>2021-03-25T12:30:36.000Z</time>
      </trkpt>
      <trkpt lat="43.64943" lon="-1.4348">
        <ele>-40.896113</ele>
        <time>2021-03-25T12:30:37.000Z</time>
      </trkpt>
      <trkpt lat="43.64957" lon="-1.43457">
        <ele>-40.851536</ele>
        <time>2021-03-25T12:30:42.000Z</time>
      </trkpt>
      <trkpt lat="43.64959" lon="-1.43452">
        <ele>-40.842567</ele>
        <time>2021-03-25T12:30:43.000Z</time>
      </trkpt>
      <trkpt lat="43.64964" lon="-1.43442">
        <ele>-40.82463</ele>
        <time>2021-03-25T12:30:45.000Z</time>
      </trkpt>
      <trkpt lat="43.6497" lon="-1.43434">
        <ele>-40.806269</ele>
        <time>2021-03-25T12:30:47.000Z</time>
      </trkpt>
      <trkpt lat="43.64974" lon="-1.4343">
        <ele>-40.796699</ele>
        <time>2021-03-25T12:30:48.000Z</time>
      </trkpt>
      <trkpt lat="43.64985" lon="-1.43421">
        <ele>-40.769308</ele>
        <time>2021-03-25T12:30:51.000Z</time>
      </trkpt>
      <trkpt lat="43.64994" lon="-1.4342">
        <ele>-40.751607</ele>
        <time>2021-03-25T12:30:53.000Z</time>
      </trkpt>
      <trkpt lat="43.6502" lon="-1.43431">
        <ele>-40.694295</ele>
        <time>2021-03-25T12:30:59.000Z</time>
      </trkpt>
      <trkpt lat="43.65059" lon="-1.43451">
        <ele>-40.605776</ele>
        <time>2021-03-25T12:31:08.000Z</time>
      </trkpt>
      <trkpt lat="43.65095" lon="-1.43466">
        <ele>-40.517497</ele>
        <time>2021-03-25T12:31:16.000Z</time>
      </trkpt>
      <trkpt lat="43.65103" lon="-1.4347">
        <ele>-40.491172</ele>
        <time>2021-03-25T12:31:18.000Z</time>
      </trkpt>
      <trkpt lat="43.65139" lon="-1.43485">
        <ele>-40.379732</ele>
        <time>2021-03-25T12:31:27.000Z</time>
      </trkpt>
      <trkpt lat="43.65142" lon="-1.43487">
        <ele>-40.370173</ele>
        <time>2021-03-25T12:31:28.000Z</time>
      </trkpt>
      <trkpt lat="43.65146" lon="-1.43489">
        <ele>-40.355741</ele>
        <time>2021-03-25T12:31:29.000Z</time>
      </trkpt>
      <trkpt lat="43.65156" lon="-1.43487">
        <ele>-40.324497</ele>
        <time>2021-03-25T12:31:32.000Z</time>
      </trkpt>
      <trkpt lat="43.6517" lon="-1.43472">
        <ele>-40.271361</ele>
        <time>2021-03-25T12:31:37.000Z</time>
      </trkpt>
      <trkpt lat="43.65182" lon="-1.43473">
        <ele>-40.237148</ele>
        <time>2021-03-25T12:31:40.000Z</time>
      </trkpt>
      <trkpt lat="43.65199" lon="-1.43479">
        <ele>-40.182816</ele>
        <time>2021-03-25T12:31:45.000Z</time>
      </trkpt>
      <trkpt lat="43.65203" lon="-1.43476">
        <ele>-40.171117</ele>
        <time>2021-03-25T12:31:46.000Z</time>
      </trkpt>
      <trkpt lat="43.65221" lon="-1.43453">
        <ele>-40.096743</ele>
        <time>2021-03-25T12:31:52.000Z</time>
      </trkpt>
      <trkpt lat="43.6523" lon="-1.43431">
        <ele>-40.041466</ele>
        <time>2021-03-25T12:31:57.000Z</time>
      </trkpt>
      <trkpt lat="43.65225" lon="-1.43419">
        <ele>-40.010696</ele>
        <time>2021-03-25T12:32:00.000Z</time>
      </trkpt>
      <trkpt lat="43.65209" lon="-1.43394">
        <ele>-40.045331</ele>
        <time>2021-03-25T12:32:06.000Z</time>
      </trkpt>
      <trkpt lat="43.6521" lon="-1.43378">
        <ele>-40.063028</ele>
        <time>2021-03-25T12:32:09.000Z</time>
      </trkpt>
      <trkpt lat="43.6522" lon="-1.43353">
        <ele>-40.095216</ele>
        <time>2021-03-25T12:32:14.000Z</time>
      </trkpt>
      <trkpt lat="43.65226" lon="-1.43337">
        <ele>-40.115887</ele>
        <time>2021-03-25T12:32:17.000Z</time>
      </trkpt>
      <trkpt lat="43.65228" lon="-1.43332">
        <ele>-40.122594</ele>
        <time>2021-03-25T12:32:18.000Z</time>
      </trkpt>
      <trkpt lat="43.65244" lon="-1.43289">
        <ele>-40.178026</ele>
        <time>2021-03-25T12:32:26.000Z</time>
      </trkpt>
      <trkpt lat="43.65262" lon="-1.43243">
        <ele>-40.23721</ele>
        <time>2021-03-25T12:32:35.000Z</time>
      </trkpt>
      <trkpt lat="43.65266" lon="-1.43227">
        <ele>-40.256438</ele>
        <time>2021-03-25T12:32:39.000Z</time>
      </trkpt>
      <trkpt lat="43.65266" lon="-1.43223">
        <ele>-40.261338</ele>
        <time>2021-03-25T12:32:40.000Z</time>
      </trkpt>
      <trkpt lat="43.65269" lon="-1.43208">
        <ele>-40.278975</ele>
        <time>2021-03-25T12:32:43.000Z</time>
      </trkpt>
      <trkpt lat="43.65281" lon="-1.43163">
        <ele>-40.172717</ele>
        <time>2021-03-25T12:32:51.000Z</time>
      </trkpt>
      <trkpt lat="43.65283" lon="-1.43151">
        <ele>-40.132829</ele>
        <time>2021-03-25T12:32:53.000Z</time>
      </trkpt>
      <trkpt lat="43.65292" lon="-1.43115">
        <ele>-40.010451</ele>
        <time>2021-03-25T12:32:59.000Z</time>
      </trkpt>
      <trkpt lat="43.65294" lon="-1.4311">
        <ele>-39.9902</ele>
        <time>2021-03-25T12:33:00.000Z</time>
      </trkpt>
      <trkpt lat="43.65301" lon="-1.43082">
        <ele>-39.897415</ele>
        <time>2021-03-25T12:33:05.000Z</time>
      </trkpt>
      <trkpt lat="43.65312" lon="-1.43051">
        <ele>-39.78614</ele>
        <time>2021-03-25T12:33:12.000Z</time>
      </trkpt>
      <trkpt lat="43.65329" lon="-1.43046">
        <ele>-39.71136</ele>
        <time>2021-03-25T12:33:17.000Z</time>
      </trkpt>
      <trkpt lat="43.65344" lon="-1.43037">
        <ele>-39.636549</ele>
        <time>2021-03-25T12:33:23.000Z</time>
      </trkpt>
      <trkpt lat="43.65348" lon="-1.43031">
        <ele>-39.607751</ele>
        <time>2021-03-25T12:33:26.000Z</time>
      </trkpt>
      <trkpt lat="43.65349" lon="-1.43029">
        <ele>-39.601663</ele>
        <time>2021-03-25T12:33:27.000Z</time>
      </trkpt>
      <trkpt lat="43.6535" lon="-1.43029">
        <ele>-39.599245</ele>
        <time>2021-03-25T12:33:29.000Z</time>
      </trkpt>
      <trkpt lat="43.6535" lon="-1.43029">
        <ele>-39.599245</ele>
        <time>2021-03-25T12:33:35.000Z</time>
      </trkpt>
      <trkpt lat="43.6535" lon="-1.43029">
        <ele>-39.599245</ele>
        <time>2021-03-25T12:33:37.000Z</time>
      </trkpt>
      <trkpt lat="43.6535" lon="-1.43029">
        <ele>-39.599245</ele>
        <time>2021-03-25T12:33:49.000Z</time>
      </trkpt>
      <trkpt lat="43.6535" lon="-1.43029">
        <ele>-39.599245</ele>
        <time>2021-03-25T12:34:04.000Z</time>
      </trkpt>
      <trkpt lat="43.6535" lon="-1.43029">
        <ele>-39.599245</ele>
        <time>2021-03-25T12:34:15.000Z</time>
      </trkpt>
      <trkpt lat="43.65354" lon="-1.43027">
        <ele>-39.581953</ele>
        <time>2021-03-25T12:34:23.000Z</time>
      </trkpt>
      <trkpt lat="43.65357" lon="-1.43025">
        <ele>-39.564331</ele>
        <time>2021-03-25T12:34:25.000Z</time>
      </trkpt>
      <trkpt lat="43.65367" lon="-1.43019">
        <ele>-39.516069</ele>
        <time>2021-03-25T12:34:29.000Z</time>
      </trkpt>
      <trkpt lat="43.65373" lon="-1.43018">
        <ele>-39.492854</ele>
        <time>2021-03-25T12:34:31.000Z</time>
      </trkpt>
      <trkpt lat="43.65379" lon="-1.43016">
        <ele>-39.484169</ele>
        <time>2021-03-25T12:34:33.000Z</time>
      </trkpt>
      <trkpt lat="43.65388" lon="-1.43016">
        <ele>-39.470303</ele>
        <time>2021-03-25T12:34:36.000Z</time>
      </trkpt>
      <trkpt lat="43.65395" lon="-1.43015">
        <ele>-39.4611</ele>
        <time>2021-03-25T12:34:38.000Z</time>
      </trkpt>
      <trkpt lat="43.65398" lon="-1.43015">
        <ele>-39.456286</ele>
        <time>2021-03-25T12:34:39.000Z</time>
      </trkpt>
      <trkpt lat="43.65404" lon="-1.43015">
        <ele>-39.447657</ele>
        <time>2021-03-25T12:34:41.000Z</time>
      </trkpt>
      <trkpt lat="43.6541" lon="-1.43015">
        <ele>-39.439447</ele>
        <time>2021-03-25T12:34:43.000Z</time>
      </trkpt>
      <trkpt lat="43.65418" lon="-1.43017">
        <ele>-39.428067</ele>
        <time>2021-03-25T12:34:46.000Z</time>
      </trkpt>
      <trkpt lat="43.6542" lon="-1.43018">
        <ele>-39.425558</ele>
        <time>2021-03-25T12:34:47.000Z</time>
      </trkpt>
      <trkpt lat="43.65421" lon="-1.43019">
        <ele>-39.423673</ele>
        <time>2021-03-25T12:34:48.000Z</time>
      </trkpt>
      <trkpt lat="43.65423" lon="-1.43021">
        <ele>-39.420341</ele>
        <time>2021-03-25T12:34:50.000Z</time>
      </trkpt>
      <trkpt lat="43.65425" lon="-1.43023">
        <ele>-39.41702</ele>
        <time>2021-03-25T12:34:52.000Z</time>
      </trkpt>
      <trkpt lat="43.65429" lon="-1.43025">
        <ele>-39.410435</ele>
        <time>2021-03-25T12:34:54.000Z</time>
      </trkpt>
      <trkpt lat="43.65434" lon="-1.43028">
        <ele>-39.402503</ele>
        <time>2021-03-25T12:34:56.000Z</time>
      </trkpt>
      <trkpt lat="43.65437" lon="-1.43029">
        <ele>-39.398091</ele>
        <time>2021-03-25T12:34:57.000Z</time>
      </trkpt>
      <trkpt lat="43.65449" lon="-1.43039">
        <ele>-39.378149</ele>
        <time>2021-03-25T12:35:01.000Z</time>
      </trkpt>
      <trkpt lat="43.65458" lon="-1.43047">
        <ele>-39.364003</ele>
        <time>2021-03-25T12:35:04.000Z</time>
      </trkpt>
      <trkpt lat="43.65469" lon="-1.43045">
        <ele>-39.348615</ele>
        <time>2021-03-25T12:35:08.000Z</time>
      </trkpt>
      <trkpt lat="43.65473" lon="-1.43041">
        <ele>-39.341396</ele>
        <time>2021-03-25T12:35:10.000Z</time>
      </trkpt>
      <trkpt lat="43.65474" lon="-1.43033">
        <ele>-39.333403</ele>
        <time>2021-03-25T12:35:12.000Z</time>
      </trkpt>
      <trkpt lat="43.65482" lon="-1.43013">
        <ele>-39.309114</ele>
        <time>2021-03-25T12:35:17.000Z</time>
      </trkpt>
      <trkpt lat="43.65495" lon="-1.43007">
        <ele>-39.290529</ele>
        <time>2021-03-25T12:35:21.000Z</time>
      </trkpt>
      <trkpt lat="43.65519" lon="-1.42998">
        <ele>-39.254996</ele>
        <time>2021-03-25T12:35:28.000Z</time>
      </trkpt>
      <trkpt lat="43.65551" lon="-1.42987">
        <ele>-39.213962</ele>
        <time>2021-03-25T12:35:36.000Z</time>
      </trkpt>
      <trkpt lat="43.65558" lon="-1.42983">
        <ele>-39.204921</ele>
        <time>2021-03-25T12:35:38.000Z</time>
      </trkpt>
      <trkpt lat="43.65574" lon="-1.42976">
        <ele>-39.185673</ele>
        <time>2021-03-25T12:35:42.000Z</time>
      </trkpt>
      <trkpt lat="43.65579" lon="-1.42975">
        <ele>-39.180413</ele>
        <time>2021-03-25T12:35:43.000Z</time>
      </trkpt>
      <trkpt lat="43.65587" lon="-1.42971">
        <ele>-39.170429</ele>
        <time>2021-03-25T12:35:45.000Z</time>
      </trkpt>
      <trkpt lat="43.65606" lon="-1.4296">
        <ele>-39.147242</ele>
        <time>2021-03-25T12:35:50.000Z</time>
      </trkpt>
      <trkpt lat="43.65609" lon="-1.42959">
        <ele>-39.143446</ele>
        <time>2021-03-25T12:35:51.000Z</time>
      </trkpt>
      <trkpt lat="43.65623" lon="-1.42956">
        <ele>-39.126919</ele>
        <time>2021-03-25T12:35:55.000Z</time>
      </trkpt>
      <trkpt lat="43.65637" lon="-1.4295">
        <ele>-39.110154</ele>
        <time>2021-03-25T12:35:59.000Z</time>
      </trkpt>
      <trkpt lat="43.65661" lon="-1.42939">
        <ele>-39.080688</ele>
        <time>2021-03-25T12:36:05.000Z</time>
      </trkpt>
      <trkpt lat="43.65705" lon="-1.4292">
        <ele>-39.035259</ele>
        <time>2021-03-25T12:36:15.000Z</time>
      </trkpt>
      <trkpt lat="43.65716" lon="-1.42914">
        <ele>-39.046642</ele>
        <time>2021-03-25T12:36:18.000Z</time>
      </trkpt>
      <trkpt lat="43.65728" lon="-1.42908">
        <ele>-39.058581</ele>
        <time>2021-03-25T12:36:21.000Z</time>
      </trkpt>
      <trkpt lat="43.65732" lon="-1.42907">
        <ele>-39.06195</ele>
        <time>2021-03-25T12:36:22.000Z</time>
      </trkpt>
      <trkpt lat="43.65743" lon="-1.42903">
        <ele>-39.073119</ele>
        <time>2021-03-25T12:36:25.000Z</time>
      </trkpt>
      <trkpt lat="43.6576" lon="-1.42894">
        <ele>-39.090247</ele>
        <time>2021-03-25T12:36:29.000Z</time>
      </trkpt>
      <trkpt lat="43.65764" lon="-1.42892">
        <ele>-39.094578</ele>
        <time>2021-03-25T12:36:30.000Z</time>
      </trkpt>
      <trkpt lat="43.6578" lon="-1.42885">
        <ele>-39.110444</ele>
        <time>2021-03-25T12:36:34.000Z</time>
      </trkpt>
      <trkpt lat="43.65784" lon="-1.42883">
        <ele>-39.114328</ele>
        <time>2021-03-25T12:36:35.000Z</time>
      </trkpt>
      <trkpt lat="43.65808" lon="-1.42871">
        <ele>-39.13868</ele>
        <time>2021-03-25T12:36:41.000Z</time>
      </trkpt>
      <trkpt lat="43.65814" lon="-1.42867">
        <ele>-39.145296</ele>
        <time>2021-03-25T12:36:43.000Z</time>
      </trkpt>
      <trkpt lat="43.65831" lon="-1.42859">
        <ele>-39.162194</ele>
        <time>2021-03-25T12:36:48.000Z</time>
      </trkpt>
      <trkpt lat="43.65835" lon="-1.42858">
        <ele>-39.165896</ele>
        <time>2021-03-25T12:36:49.000Z</time>
      </trkpt>
      <trkpt lat="43.65862" lon="-1.42844">
        <ele>-39.193486</ele>
        <time>2021-03-25T12:36:56.000Z</time>
      </trkpt>
      <trkpt lat="43.65865" lon="-1.42842">
        <ele>-39.196745</ele>
        <time>2021-03-25T12:36:57.000Z</time>
      </trkpt>
      <trkpt lat="43.65903" lon="-1.42825">
        <ele>-39.088379</ele>
        <time>2021-03-25T12:37:07.000Z</time>
      </trkpt>
      <trkpt lat="43.65905" lon="-1.42824">
        <ele>-39.079685</ele>
        <time>2021-03-25T12:37:08.000Z</time>
      </trkpt>
      <trkpt lat="43.65911" lon="-1.42821">
        <ele>-39.057527</ele>
        <time>2021-03-25T12:37:10.000Z</time>
      </trkpt>
      <trkpt lat="43.6592" lon="-1.4282">
        <ele>-39.025216</ele>
        <time>2021-03-25T12:37:13.000Z</time>
      </trkpt>
      <trkpt lat="43.65923" lon="-1.42821">
        <ele>-39.015685</ele>
        <time>2021-03-25T12:37:14.000Z</time>
      </trkpt>
      <trkpt lat="43.65932" lon="-1.42827">
        <ele>-38.981439</ele>
        <time>2021-03-25T12:37:19.000Z</time>
      </trkpt>
      <trkpt lat="43.65935" lon="-1.42826">
        <ele>-38.971435</ele>
        <time>2021-03-25T12:37:23.000Z</time>
      </trkpt>
      <trkpt lat="43.65934" lon="-1.42824">
        <ele>-38.96511</ele>
        <time>2021-03-25T12:37:24.000Z</time>
      </trkpt>
      <trkpt lat="43.65934" lon="-1.42821">
        <ele>-38.958377</ele>
        <time>2021-03-25T12:37:25.000Z</time>
      </trkpt>
      <trkpt lat="43.65937" lon="-1.42815">
        <ele>-38.940938</ele>
        <time>2021-03-25T12:37:27.000Z</time>
      </trkpt>
      <trkpt lat="43.65951" lon="-1.42806">
        <ele>-38.888956</ele>
        <time>2021-03-25T12:37:32.000Z</time>
      </trkpt>
      <trkpt lat="43.6596" lon="-1.42803">
        <ele>-38.85628</ele>
        <time>2021-03-25T12:37:35.000Z</time>
      </trkpt>
      <trkpt lat="43.65981" lon="-1.42793">
        <ele>-38.778527</ele>
        <time>2021-03-25T12:37:42.000Z</time>
      </trkpt>
      <trkpt lat="43.66007" lon="-1.42783">
        <ele>-38.686816</ele>
        <time>2021-03-25T12:37:49.000Z</time>
      </trkpt>
      <trkpt lat="43.66038" lon="-1.4277">
        <ele>-38.582922</ele>
        <time>2021-03-25T12:37:57.000Z</time>
      </trkpt>
      <trkpt lat="43.66041" lon="-1.42771">
        <ele>-38.589024</ele>
        <time>2021-03-25T12:37:58.000Z</time>
      </trkpt>
      <trkpt lat="43.66049" lon="-1.42775">
        <ele>-38.602114</ele>
        <time>2021-03-25T12:38:01.000Z</time>
      </trkpt>
      <trkpt lat="43.66057" lon="-1.42767">
        <ele>-38.617968</ele>
        <time>2021-03-25T12:38:05.000Z</time>
      </trkpt>
      <trkpt lat="43.66067" lon="-1.42759">
        <ele>-38.635304</ele>
        <time>2021-03-25T12:38:08.000Z</time>
      </trkpt>
      <trkpt lat="43.66071" lon="-1.42757">
        <ele>-38.641592</ele>
        <time>2021-03-25T12:38:09.000Z</time>
      </trkpt>
      <trkpt lat="43.66083" lon="-1.42754">
        <ele>-38.660816</ele>
        <time>2021-03-25T12:38:12.000Z</time>
      </trkpt>
      <trkpt lat="43.66095" lon="-1.42751">
        <ele>-38.680459</ele>
        <time>2021-03-25T12:38:15.000Z</time>
      </trkpt>
      <trkpt lat="43.66108" lon="-1.42749">
        <ele>-38.701389</ele>
        <time>2021-03-25T12:38:18.000Z</time>
      </trkpt>
      <trkpt lat="43.66118" lon="-1.42746">
        <ele>-38.716655</ele>
        <time>2021-03-25T12:38:20.000Z</time>
      </trkpt>
      <trkpt lat="43.66123" lon="-1.42745">
        <ele>-38.72431</ele>
        <time>2021-03-25T12:38:21.000Z</time>
      </trkpt>
      <trkpt lat="43.66137" lon="-1.42741">
        <ele>-38.747452</ele>
        <time>2021-03-25T12:38:24.000Z</time>
      </trkpt>
      <trkpt lat="43.66151" lon="-1.42739">
        <ele>-38.768382</ele>
        <time>2021-03-25T12:38:27.000Z</time>
      </trkpt>
      <trkpt lat="43.66164" lon="-1.42736">
        <ele>-38.789467</ele>
        <time>2021-03-25T12:38:30.000Z</time>
      </trkpt>
      <trkpt lat="43.66185" lon="-1.42733">
        <ele>-38.822112</ele>
        <time>2021-03-25T12:38:36.000Z</time>
      </trkpt>
      <trkpt lat="43.66192" lon="-1.42733">
        <ele>-38.832729</ele>
        <time>2021-03-25T12:38:39.000Z</time>
      </trkpt>
      <trkpt lat="43.66194" lon="-1.42732">
        <ele>-38.836516</ele>
        <time>2021-03-25T12:38:41.000Z</time>
      </trkpt>
      <trkpt lat="43.66201" lon="-1.4273">
        <ele>-38.847212</ele>
        <time>2021-03-25T12:38:44.000Z</time>
      </trkpt>
      <trkpt lat="43.66209" lon="-1.42729">
        <ele>-38.859688</ele>
        <time>2021-03-25T12:38:47.000Z</time>
      </trkpt>
      <trkpt lat="43.6621" lon="-1.42728">
        <ele>-38.86283</ele>
        <time>2021-03-25T12:38:51.000Z</time>
      </trkpt>
      <trkpt lat="43.66211" lon="-1.42728">
        <ele>-38.863845</ele>
        <time>2021-03-25T12:38:58.000Z</time>
      </trkpt>
      <trkpt lat="43.66211" lon="-1.42728">
        <ele>-38.863845</ele>
        <time>2021-03-25T12:39:04.000Z</time>
      </trkpt>
      <trkpt lat="43.66211" lon="-1.42728">
        <ele>-38.864006</ele>
        <time>2021-03-25T12:39:08.000Z</time>
      </trkpt>
      <trkpt lat="43.66211" lon="-1.42728">
        <ele>-38.864281</ele>
        <time>2021-03-25T12:39:12.000Z</time>
      </trkpt>
      <trkpt lat="43.66211" lon="-1.42728">
        <ele>-38.864281</ele>
        <time>2021-03-25T12:39:17.000Z</time>
      </trkpt>
      <trkpt lat="43.66211" lon="-1.42728">
        <ele>-38.865628</ele>
        <time>2021-03-25T12:39:19.000Z</time>
      </trkpt>
      <trkpt lat="43.66212" lon="-1.42728">
        <ele>-38.865851</ele>
        <time>2021-03-25T12:39:20.000Z</time>
      </trkpt>
      <trkpt lat="43.66212" lon="-1.42728">
        <ele>-38.866012</ele>
        <time>2021-03-25T12:39:22.000Z</time>
      </trkpt>
      <trkpt lat="43.66212" lon="-1.42728">
        <ele>-38.868175</ele>
        <time>2021-03-25T12:39:28.000Z</time>
      </trkpt>
      <trkpt lat="43.66212" lon="-1.42728">
        <ele>-38.868175</ele>
        <time>2021-03-25T12:39:34.000Z</time>
      </trkpt>
      <trkpt lat="43.66213" lon="-1.42727">
        <ele>-38.869123</ele>
        <time>2021-03-25T12:39:36.000Z</time>
      </trkpt>
      <trkpt lat="43.66215" lon="-1.42726">
        <ele>-38.873447</ele>
        <time>2021-03-25T12:39:37.000Z</time>
      </trkpt>
      <trkpt lat="43.6622" lon="-1.42725">
        <ele>-38.886324</ele>
        <time>2021-03-25T12:39:39.000Z</time>
      </trkpt>
      <trkpt lat="43.66226" lon="-1.42724">
        <ele>-38.899617</ele>
        <time>2021-03-25T12:39:41.000Z</time>
      </trkpt>
      <trkpt lat="43.66236" lon="-1.4272">
        <ele>-38.921359</ele>
        <time>2021-03-25T12:39:44.000Z</time>
      </trkpt>
      <trkpt lat="43.6624" lon="-1.42718">
        <ele>-38.932527</ele>
        <time>2021-03-25T12:39:46.000Z</time>
      </trkpt>
      <trkpt lat="43.66246" lon="-1.42716">
        <ele>-38.945851</ele>
        <time>2021-03-25T12:39:49.000Z</time>
      </trkpt>
      <trkpt lat="43.66255" lon="-1.42712">
        <ele>-38.966077</ele>
        <time>2021-03-25T12:39:53.000Z</time>
      </trkpt>
      <trkpt lat="43.66261" lon="-1.42707">
        <ele>-38.981693</ele>
        <time>2021-03-25T12:39:56.000Z</time>
      </trkpt>
      <trkpt lat="43.66266" lon="-1.42704">
        <ele>-38.994762</ele>
        <time>2021-03-25T12:39:58.000Z</time>
      </trkpt>
      <trkpt lat="43.66278" lon="-1.42702">
        <ele>-39.020376</ele>
        <time>2021-03-25T12:40:01.000Z</time>
      </trkpt>
      <trkpt lat="43.66308" lon="-1.42697">
        <ele>-39.087328</ele>
        <time>2021-03-25T12:40:08.000Z</time>
      </trkpt>
      <trkpt lat="43.66312" lon="-1.42696">
        <ele>-39.097267</ele>
        <time>2021-03-25T12:40:09.000Z</time>
      </trkpt>
      <trkpt lat="43.66324" lon="-1.42692">
        <ele>-39.125796</ele>
        <time>2021-03-25T12:40:12.000Z</time>
      </trkpt>
      <trkpt lat="43.66337" lon="-1.42691">
        <ele>-39.153144</ele>
        <time>2021-03-25T12:40:15.000Z</time>
      </trkpt>
      <trkpt lat="43.6635" lon="-1.4269">
        <ele>-39.183056</ele>
        <time>2021-03-25T12:40:18.000Z</time>
      </trkpt>
      <trkpt lat="43.66368" lon="-1.42688">
        <ele>-39.222394</ele>
        <time>2021-03-25T12:40:22.000Z</time>
      </trkpt>
      <trkpt lat="43.66398" lon="-1.4268">
        <ele>-39.218998</ele>
        <time>2021-03-25T12:40:29.000Z</time>
      </trkpt>
      <trkpt lat="43.66403" lon="-1.42678">
        <ele>-39.202091</ele>
        <time>2021-03-25T12:40:30.000Z</time>
      </trkpt>
      <trkpt lat="43.6642" lon="-1.42675">
        <ele>-39.144559</ele>
        <time>2021-03-25T12:40:34.000Z</time>
      </trkpt>
      <trkpt lat="43.66434" lon="-1.42672">
        <ele>-39.099728</ele>
        <time>2021-03-25T12:40:37.000Z</time>
      </trkpt>
      <trkpt lat="43.66438" lon="-1.4267">
        <ele>-39.083732</ele>
        <time>2021-03-25T12:40:38.000Z</time>
      </trkpt>
      <trkpt lat="43.66449" lon="-1.42667">
        <ele>-39.046056</ele>
        <time>2021-03-25T12:40:41.000Z</time>
      </trkpt>
      <trkpt lat="43.66458" lon="-1.42662">
        <ele>-39.014486</ele>
        <time>2021-03-25T12:40:44.000Z</time>
      </trkpt>
      <trkpt lat="43.6647" lon="-1.42658">
        <ele>-38.974221</ele>
        <time>2021-03-25T12:40:49.000Z</time>
      </trkpt>
      <trkpt lat="43.66473" lon="-1.42657">
        <ele>-38.965576</ele>
        <time>2021-03-25T12:40:50.000Z</time>
      </trkpt>
      <trkpt lat="43.66485" lon="-1.42656">
        <ele>-38.923224</ele>
        <time>2021-03-25T12:40:54.000Z</time>
      </trkpt>
      <trkpt lat="43.66493" lon="-1.42654">
        <ele>-38.897743</ele>
        <time>2021-03-25T12:40:56.000Z</time>
      </trkpt>
      <trkpt lat="43.66504" lon="-1.42651">
        <ele>-38.859799</ele>
        <time>2021-03-25T12:40:59.000Z</time>
      </trkpt>
      <trkpt lat="43.66525" lon="-1.42649">
        <ele>-38.791558</ele>
        <time>2021-03-25T12:41:05.000Z</time>
      </trkpt>
      <trkpt lat="43.6654" lon="-1.42648">
        <ele>-38.741907</ele>
        <time>2021-03-25T12:41:10.000Z</time>
      </trkpt>
      <trkpt lat="43.66548" lon="-1.42647">
        <ele>-38.715033</ele>
        <time>2021-03-25T12:41:12.000Z</time>
      </trkpt>
      <trkpt lat="43.66554" lon="-1.42647">
        <ele>-38.693863</ele>
        <time>2021-03-25T12:41:14.000Z</time>
      </trkpt>
      <trkpt lat="43.66558" lon="-1.42648">
        <ele>-38.683072</ele>
        <time>2021-03-25T12:41:15.000Z</time>
      </trkpt>
      <trkpt lat="43.66565" lon="-1.4265">
        <ele>-38.657354</ele>
        <time>2021-03-25T12:41:17.000Z</time>
      </trkpt>
      <trkpt lat="43.66591" lon="-1.42648">
        <ele>-38.576879</ele>
        <time>2021-03-25T12:41:23.000Z</time>
      </trkpt>
      <trkpt lat="43.66603" lon="-1.4265">
        <ele>-38.541422</ele>
        <time>2021-03-25T12:41:26.000Z</time>
      </trkpt>
      <trkpt lat="43.6661" lon="-1.42649">
        <ele>-38.516811</ele>
        <time>2021-03-25T12:41:28.000Z</time>
      </trkpt>
      <trkpt lat="43.66623" lon="-1.42652">
        <ele>-38.477224</ele>
        <time>2021-03-25T12:41:31.000Z</time>
      </trkpt>
      <trkpt lat="43.66646" lon="-1.42654">
        <ele>-38.406982</ele>
        <time>2021-03-25T12:41:36.000Z</time>
      </trkpt>
      <trkpt lat="43.66655" lon="-1.42654">
        <ele>-38.378283</ele>
        <time>2021-03-25T12:41:38.000Z</time>
      </trkpt>
      <trkpt lat="43.66703" lon="-1.42655">
        <ele>-38.22751</ele>
        <time>2021-03-25T12:41:48.000Z</time>
      </trkpt>
      <trkpt lat="43.66712" lon="-1.42657">
        <ele>-38.199117</ele>
        <time>2021-03-25T12:41:50.000Z</time>
      </trkpt>
      <trkpt lat="43.66732" lon="-1.42659">
        <ele>-38.135819</ele>
        <time>2021-03-25T12:41:54.000Z</time>
      </trkpt>
      <trkpt lat="43.66777" lon="-1.42657">
        <ele>-38.026352</ele>
        <time>2021-03-25T12:42:03.000Z</time>
      </trkpt>
      <trkpt lat="43.66781" lon="-1.42659">
        <ele>-38.016105</ele>
        <time>2021-03-25T12:42:04.000Z</time>
      </trkpt>
      <trkpt lat="43.66795" lon="-1.42662">
        <ele>-37.985173</ele>
        <time>2021-03-25T12:42:07.000Z</time>
      </trkpt>
      <trkpt lat="43.66804" lon="-1.42663">
        <ele>-37.964026</ele>
        <time>2021-03-25T12:42:09.000Z</time>
      </trkpt>
      <trkpt lat="43.66819" lon="-1.42666">
        <ele>-37.93035</ele>
        <time>2021-03-25T12:42:12.000Z</time>
      </trkpt>
      <trkpt lat="43.66827" lon="-1.4267">
        <ele>-37.90999</ele>
        <time>2021-03-25T12:42:14.000Z</time>
      </trkpt>
      <trkpt lat="43.66842" lon="-1.42676">
        <ele>-37.875264</ele>
        <time>2021-03-25T12:42:17.000Z</time>
      </trkpt>
      <trkpt lat="43.66878" lon="-1.42692">
        <ele>-37.7888</ele>
        <time>2021-03-25T12:42:25.000Z</time>
      </trkpt>
      <trkpt lat="43.66882" lon="-1.42694">
        <ele>-37.777921</ele>
        <time>2021-03-25T12:42:26.000Z</time>
      </trkpt>
      <trkpt lat="43.66893" lon="-1.42698">
        <ele>-37.752289</ele>
        <time>2021-03-25T12:42:28.000Z</time>
      </trkpt>
      <trkpt lat="43.66917" lon="-1.42708">
        <ele>-37.700997</ele>
        <time>2021-03-25T12:42:33.000Z</time>
      </trkpt>
      <trkpt lat="43.66942" lon="-1.4271">
        <ele>-37.936544</ele>
        <time>2021-03-25T12:42:39.000Z</time>
      </trkpt>
      <trkpt lat="43.66972" lon="-1.42702">
        <ele>-38.21047</ele>
        <time>2021-03-25T12:42:46.000Z</time>
      </trkpt>
      <trkpt lat="43.66974" lon="-1.42701">
        <ele>-38.23612</ele>
        <time>2021-03-25T12:42:47.000Z</time>
      </trkpt>
      <trkpt lat="43.66978" lon="-1.42698">
        <ele>-38.273771</ele>
        <time>2021-03-25T12:42:49.000Z</time>
      </trkpt>
      <trkpt lat="43.66978" lon="-1.42698">
        <ele>-38.279443</ele>
        <time>2021-03-25T12:42:53.000Z</time>
      </trkpt>
      <trkpt lat="43.66978" lon="-1.42698">
        <ele>-38.279443</ele>
        <time>2021-03-25T12:42:57.000Z</time>
      </trkpt>
      <trkpt lat="43.66981" lon="-1.42699">
        <ele>-38.307048</ele>
        <time>2021-03-25T12:43:00.000Z</time>
      </trkpt>
      <trkpt lat="43.66985" lon="-1.427">
        <ele>-38.340197</ele>
        <time>2021-03-25T12:43:02.000Z</time>
      </trkpt>
      <trkpt lat="43.6699" lon="-1.42703">
        <ele>-38.391263</ele>
        <time>2021-03-25T12:43:05.000Z</time>
      </trkpt>
      <trkpt lat="43.66994" lon="-1.42705">
        <ele>-38.429985</ele>
        <time>2021-03-25T12:43:07.000Z</time>
      </trkpt>
      <trkpt lat="43.66995" lon="-1.42709">
        <ele>-38.463169</ele>
        <time>2021-03-25T12:43:12.000Z</time>
      </trkpt>
      <trkpt lat="43.66996" lon="-1.42712">
        <ele>-38.483775</ele>
        <time>2021-03-25T12:43:19.000Z</time>
      </trkpt>
      <trkpt lat="43.66997" lon="-1.42712">
        <ele>-38.485613</ele>
        <time>2021-03-25T12:43:29.000Z</time>
      </trkpt>
      <trkpt lat="43.66999" lon="-1.42711">
        <ele>-38.505824</ele>
        <time>2021-03-25T12:43:37.000Z</time>
      </trkpt>
      <trkpt lat="43.67003" lon="-1.4271">
        <ele>-38.548085</ele>
        <time>2021-03-25T12:43:39.000Z</time>
      </trkpt>
      <trkpt lat="43.67015" lon="-1.42706">
        <ele>-38.663048</ele>
        <time>2021-03-25T12:43:43.000Z</time>
      </trkpt>
      <trkpt lat="43.67023" lon="-1.42704">
        <ele>-38.731461</ele>
        <time>2021-03-25T12:43:45.000Z</time>
      </trkpt>
      <trkpt lat="43.67026" lon="-1.42703">
        <ele>-38.762152</ele>
        <time>2021-03-25T12:43:46.000Z</time>
      </trkpt>
      <trkpt lat="43.67029" lon="-1.42703">
        <ele>-38.790927</ele>
        <time>2021-03-25T12:43:47.000Z</time>
      </trkpt>
      <trkpt lat="43.67036" lon="-1.427">
        <ele>-38.856849</ele>
        <time>2021-03-25T12:43:49.000Z</time>
      </trkpt>
      <trkpt lat="43.67051" lon="-1.42697">
        <ele>-38.993973</ele>
        <time>2021-03-25T12:43:53.000Z</time>
      </trkpt>
      <trkpt lat="43.67054" lon="-1.42696">
        <ele>-39.026699</ele>
        <time>2021-03-25T12:43:54.000Z</time>
      </trkpt>
      <trkpt lat="43.6706" lon="-1.42694">
        <ele>-39.085357</ele>
        <time>2021-03-25T12:43:56.000Z</time>
      </trkpt>
      <trkpt lat="43.67064" lon="-1.42694">
        <ele>-39.122182</ele>
        <time>2021-03-25T12:43:57.000Z</time>
      </trkpt>
      <trkpt lat="43.67071" lon="-1.42693">
        <ele>-39.180644</ele>
        <time>2021-03-25T12:43:59.000Z</time>
      </trkpt>
      <trkpt lat="43.67078" lon="-1.42691">
        <ele>-39.249958</ele>
        <time>2021-03-25T12:44:01.000Z</time>
      </trkpt>
      <trkpt lat="43.67089" lon="-1.4269">
        <ele>-39.349883</ele>
        <time>2021-03-25T12:44:04.000Z</time>
      </trkpt>
      <trkpt lat="43.67105" lon="-1.42687">
        <ele>-39.305889</ele>
        <time>2021-03-25T12:44:08.000Z</time>
      </trkpt>
      <trkpt lat="43.67122" lon="-1.42682">
        <ele>-39.260412</ele>
        <time>2021-03-25T12:44:12.000Z</time>
      </trkpt>
      <trkpt lat="43.67132" lon="-1.42678">
        <ele>-39.231292</ele>
        <time>2021-03-25T12:44:15.000Z</time>
      </trkpt>
      <trkpt lat="43.67157" lon="-1.42669">
        <ele>-39.16132</ele>
        <time>2021-03-25T12:44:23.000Z</time>
      </trkpt>
      <trkpt lat="43.6716" lon="-1.42667">
        <ele>-39.151499</ele>
        <time>2021-03-25T12:44:25.000Z</time>
      </trkpt>
      <trkpt lat="43.67161" lon="-1.42665">
        <ele>-39.148196</ele>
        <time>2021-03-25T12:44:26.000Z</time>
      </trkpt>
      <trkpt lat="43.67161" lon="-1.4266">
        <ele>-39.137344</ele>
        <time>2021-03-25T12:44:29.000Z</time>
      </trkpt>
      <trkpt lat="43.67162" lon="-1.42658">
        <ele>-39.133763</ele>
        <time>2021-03-25T12:44:30.000Z</time>
      </trkpt>
      <trkpt lat="43.67165" lon="-1.42656">
        <ele>-39.124616</ele>
        <time>2021-03-25T12:44:32.000Z</time>
      </trkpt>
      <trkpt lat="43.67171" lon="-1.42654">
        <ele>-39.107038</ele>
        <time>2021-03-25T12:44:35.000Z</time>
      </trkpt>
      <trkpt lat="43.67177" lon="-1.42652">
        <ele>-39.090656</ele>
        <time>2021-03-25T12:44:37.000Z</time>
      </trkpt>
      <trkpt lat="43.67197" lon="-1.42645">
        <ele>-39.035312</ele>
        <time>2021-03-25T12:44:43.000Z</time>
      </trkpt>
      <trkpt lat="43.67201" lon="-1.42644">
        <ele>-39.024911</ele>
        <time>2021-03-25T12:44:44.000Z</time>
      </trkpt>
      <trkpt lat="43.6723" lon="-1.42638">
        <ele>-38.946818</ele>
        <time>2021-03-25T12:44:51.000Z</time>
      </trkpt>
      <trkpt lat="43.67249" lon="-1.42636">
        <ele>-38.893595</ele>
        <time>2021-03-25T12:44:56.000Z</time>
      </trkpt>
      <trkpt lat="43.67262" lon="-1.42635">
        <ele>-38.86615</ele>
        <time>2021-03-25T12:44:59.000Z</time>
      </trkpt>
      <trkpt lat="43.67282" lon="-1.42638">
        <ele>-38.877247</ele>
        <time>2021-03-25T12:45:03.000Z</time>
      </trkpt>
      <trkpt lat="43.67296" lon="-1.42641">
        <ele>-38.885034</ele>
        <time>2021-03-25T12:45:06.000Z</time>
      </trkpt>
      <trkpt lat="43.67307" lon="-1.42643">
        <ele>-38.891007</ele>
        <time>2021-03-25T12:45:09.000Z</time>
      </trkpt>
      <trkpt lat="43.67324" lon="-1.42645">
        <ele>-38.900483</ele>
        <time>2021-03-25T12:45:13.000Z</time>
      </trkpt>
      <trkpt lat="43.67358" lon="-1.4265">
        <ele>-38.919471</ele>
        <time>2021-03-25T12:45:21.000Z</time>
      </trkpt>
      <trkpt lat="43.6737" lon="-1.42651">
        <ele>-38.926254</ele>
        <time>2021-03-25T12:45:24.000Z</time>
      </trkpt>
      <trkpt lat="43.67387" lon="-1.42653">
        <ele>-38.935509</ele>
        <time>2021-03-25T12:45:28.000Z</time>
      </trkpt>
      <trkpt lat="43.6739" lon="-1.42654">
        <ele>-38.937356</ele>
        <time>2021-03-25T12:45:29.000Z</time>
      </trkpt>
      <trkpt lat="43.67427" lon="-1.42658">
        <ele>-38.958068</ele>
        <time>2021-03-25T12:45:38.000Z</time>
      </trkpt>
      <trkpt lat="43.67448" lon="-1.42663">
        <ele>-38.942995</ele>
        <time>2021-03-25T12:45:43.000Z</time>
      </trkpt>
      <trkpt lat="43.67455" lon="-1.42665">
        <ele>-38.924717</ele>
        <time>2021-03-25T12:45:45.000Z</time>
      </trkpt>
      <trkpt lat="43.67459" lon="-1.42666">
        <ele>-38.913998</ele>
        <time>2021-03-25T12:45:46.000Z</time>
      </trkpt>
      <trkpt lat="43.67469" lon="-1.42668">
        <ele>-38.891035</ele>
        <time>2021-03-25T12:45:48.000Z</time>
      </trkpt>
      <trkpt lat="43.67472" lon="-1.42668">
        <ele>-38.882883</ele>
        <time>2021-03-25T12:45:49.000Z</time>
      </trkpt>
      <trkpt lat="43.67477" lon="-1.42668">
        <ele>-38.872096</ele>
        <time>2021-03-25T12:45:50.000Z</time>
      </trkpt>
      <trkpt lat="43.67494" lon="-1.42669">
        <ele>-38.830356</ele>
        <time>2021-03-25T12:45:54.000Z</time>
      </trkpt>
      <trkpt lat="43.67498" lon="-1.4267">
        <ele>-38.821554</ele>
        <time>2021-03-25T12:45:55.000Z</time>
      </trkpt>
      <trkpt lat="43.67502" lon="-1.42671">
        <ele>-38.81221</ele>
        <time>2021-03-25T12:45:56.000Z</time>
      </trkpt>
      <trkpt lat="43.67508" lon="-1.42673">
        <ele>-38.797648</ele>
        <time>2021-03-25T12:45:58.000Z</time>
      </trkpt>
      <trkpt lat="43.6751" lon="-1.42673">
        <ele>-38.790915</ele>
        <time>2021-03-25T12:45:59.000Z</time>
      </trkpt>
      <trkpt lat="43.67529" lon="-1.42676">
        <ele>-38.745311</ele>
        <time>2021-03-25T12:46:05.000Z</time>
      </trkpt>
      <trkpt lat="43.67546" lon="-1.42679">
        <ele>-38.703946</ele>
        <time>2021-03-25T12:46:10.000Z</time>
      </trkpt>
      <trkpt lat="43.67574" lon="-1.42681">
        <ele>-38.638445</ele>
        <time>2021-03-25T12:46:17.000Z</time>
      </trkpt>
      <trkpt lat="43.67578" lon="-1.42682">
        <ele>-38.628595</ele>
        <time>2021-03-25T12:46:18.000Z</time>
      </trkpt>
      <trkpt lat="43.67582" lon="-1.42684">
        <ele>-38.618043</ele>
        <time>2021-03-25T12:46:19.000Z</time>
      </trkpt>
      <trkpt lat="43.67586" lon="-1.42684">
        <ele>-38.607951</ele>
        <time>2021-03-25T12:46:20.000Z</time>
      </trkpt>
      <trkpt lat="43.67616" lon="-1.42686">
        <ele>-38.535264</ele>
        <time>2021-03-25T12:46:28.000Z</time>
      </trkpt>
      <trkpt lat="43.67624" lon="-1.4268">
        <ele>-38.524485</ele>
        <time>2021-03-25T12:46:32.000Z</time>
      </trkpt>
      <trkpt lat="43.67626" lon="-1.42675">
        <ele>-38.519817</ele>
        <time>2021-03-25T12:46:34.000Z</time>
      </trkpt>
      <trkpt lat="43.6763" lon="-1.42675">
        <ele>-38.515601</ele>
        <time>2021-03-25T12:46:36.000Z</time>
      </trkpt>
      <trkpt lat="43.67632" lon="-1.42676">
        <ele>-38.512116</ele>
        <time>2021-03-25T12:46:37.000Z</time>
      </trkpt>
      <trkpt lat="43.67641" lon="-1.4268">
        <ele>-38.501423</ele>
        <time>2021-03-25T12:46:40.000Z</time>
      </trkpt>
      <trkpt lat="43.67651" lon="-1.42679">
        <ele>-38.489573</ele>
        <time>2021-03-25T12:46:43.000Z</time>
      </trkpt>
      <trkpt lat="43.67676" lon="-1.42678">
        <ele>-38.46043</ele>
        <time>2021-03-25T12:46:50.000Z</time>
      </trkpt>
      <trkpt lat="43.67688" lon="-1.4268">
        <ele>-38.446453</ele>
        <time>2021-03-25T12:46:53.000Z</time>
      </trkpt>
      <trkpt lat="43.67709" lon="-1.42685">
        <ele>-38.421428</ele>
        <time>2021-03-25T12:46:59.000Z</time>
      </trkpt>
      <trkpt lat="43.67718" lon="-1.42686">
        <ele>-38.410913</ele>
        <time>2021-03-25T12:47:01.000Z</time>
      </trkpt>
      <trkpt lat="43.67726" lon="-1.42689">
        <ele>-38.40139</ele>
        <time>2021-03-25T12:47:03.000Z</time>
      </trkpt>
      <trkpt lat="43.67735" lon="-1.42691">
        <ele>-38.391095</ele>
        <time>2021-03-25T12:47:05.000Z</time>
      </trkpt>
      <trkpt lat="43.67738" lon="-1.42692">
        <ele>-38.386683</ele>
        <time>2021-03-25T12:47:06.000Z</time>
      </trkpt>
      <trkpt lat="43.67747" lon="-1.42692">
        <ele>-38.376722</ele>
        <time>2021-03-25T12:47:08.000Z</time>
      </trkpt>
      <trkpt lat="43.67765" lon="-1.42697">
        <ele>-38.355705</ele>
        <time>2021-03-25T12:47:12.000Z</time>
      </trkpt>
      <trkpt lat="43.67769" lon="-1.42697">
        <ele>-38.350531</ele>
        <time>2021-03-25T12:47:13.000Z</time>
      </trkpt>
      <trkpt lat="43.67777" lon="-1.42699">
        <ele>-38.340699</ele>
        <time>2021-03-25T12:47:15.000Z</time>
      </trkpt>
      <trkpt lat="43.67786" lon="-1.42702">
        <ele>-38.330511</ele>
        <time>2021-03-25T12:47:17.000Z</time>
      </trkpt>
      <trkpt lat="43.67795" lon="-1.42705">
        <ele>-38.322336</ele>
        <time>2021-03-25T12:47:19.000Z</time>
      </trkpt>
      <trkpt lat="43.678" lon="-1.42705">
        <ele>-38.321435</ele>
        <time>2021-03-25T12:47:20.000Z</time>
      </trkpt>
      <trkpt lat="43.67814" lon="-1.42707">
        <ele>-38.318843</ele>
        <time>2021-03-25T12:47:23.000Z</time>
      </trkpt>
      <trkpt lat="43.67823" lon="-1.42709">
        <ele>-38.3171</ele>
        <time>2021-03-25T12:47:25.000Z</time>
      </trkpt>
      <trkpt lat="43.67832" lon="-1.42712">
        <ele>-38.315198</ele>
        <time>2021-03-25T12:47:27.000Z</time>
      </trkpt>
      <trkpt lat="43.6784" lon="-1.42712">
        <ele>-38.313754</ele>
        <time>2021-03-25T12:47:29.000Z</time>
      </trkpt>
      <trkpt lat="43.67844" lon="-1.42713">
        <ele>-38.313004</ele>
        <time>2021-03-25T12:47:30.000Z</time>
      </trkpt>
      <trkpt lat="43.67849" lon="-1.42714">
        <ele>-38.312031</ele>
        <time>2021-03-25T12:47:31.000Z</time>
      </trkpt>
      <trkpt lat="43.67858" lon="-1.42714">
        <ele>-38.310342</ele>
        <time>2021-03-25T12:47:33.000Z</time>
      </trkpt>
      <trkpt lat="43.67884" lon="-1.42714">
        <ele>-38.305483</ele>
        <time>2021-03-25T12:47:38.000Z</time>
      </trkpt>
      <trkpt lat="43.67906" lon="-1.42711">
        <ele>-38.301142</ele>
        <time>2021-03-25T12:47:43.000Z</time>
      </trkpt>
      <trkpt lat="43.67928" lon="-1.4271">
        <ele>-38.29706</ele>
        <time>2021-03-25T12:47:48.000Z</time>
      </trkpt>
      <trkpt lat="43.6794" lon="-1.4271">
        <ele>-38.294667</ele>
        <time>2021-03-25T12:47:51.000Z</time>
      </trkpt>
      <trkpt lat="43.67949" lon="-1.42708">
        <ele>-38.293065</ele>
        <time>2021-03-25T12:47:53.000Z</time>
      </trkpt>
      <trkpt lat="43.67972" lon="-1.42709">
        <ele>-38.287442</ele>
        <time>2021-03-25T12:47:58.000Z</time>
      </trkpt>
      <trkpt lat="43.67984" lon="-1.42711">
        <ele>-38.238905</ele>
        <time>2021-03-25T12:48:01.000Z</time>
      </trkpt>
      <trkpt lat="43.67996" lon="-1.42713">
        <ele>-38.195486</ele>
        <time>2021-03-25T12:48:03.000Z</time>
      </trkpt>
      <trkpt lat="43.68017" lon="-1.42706">
        <ele>-38.115386</ele>
        <time>2021-03-25T12:48:07.000Z</time>
      </trkpt>
      <trkpt lat="43.68042" lon="-1.42706">
        <ele>-38.02047</ele>
        <time>2021-03-25T12:48:13.000Z</time>
      </trkpt>
      <trkpt lat="43.68046" lon="-1.42707">
        <ele>-38.007214</ele>
        <time>2021-03-25T12:48:14.000Z</time>
      </trkpt>
      <trkpt lat="43.68064" lon="-1.4271">
        <ele>-37.936293</ele>
        <time>2021-03-25T12:48:20.000Z</time>
      </trkpt>
      <trkpt lat="43.68072" lon="-1.42713">
        <ele>-37.907334</ele>
        <time>2021-03-25T12:48:22.000Z</time>
      </trkpt>
      <trkpt lat="43.68085" lon="-1.42717">
        <ele>-37.858476</ele>
        <time>2021-03-25T12:48:25.000Z</time>
      </trkpt>
      <trkpt lat="43.68102" lon="-1.4272">
        <ele>-37.79321</ele>
        <time>2021-03-25T12:48:30.000Z</time>
      </trkpt>
      <trkpt lat="43.68113" lon="-1.42724">
        <ele>-37.749751</ele>
        <time>2021-03-25T12:48:33.000Z</time>
      </trkpt>
      <trkpt lat="43.68125" lon="-1.42725">
        <ele>-37.704859</ele>
        <time>2021-03-25T12:48:36.000Z</time>
      </trkpt>
      <trkpt lat="43.6814" lon="-1.42728">
        <ele>-37.650223</ele>
        <time>2021-03-25T12:48:39.000Z</time>
      </trkpt>
      <trkpt lat="43.68154" lon="-1.42729">
        <ele>-37.609379</ele>
        <time>2021-03-25T12:48:42.000Z</time>
      </trkpt>
      <trkpt lat="43.6819" lon="-1.42742">
        <ele>-37.561119</ele>
        <time>2021-03-25T12:48:50.000Z</time>
      </trkpt>
      <trkpt lat="43.68203" lon="-1.42756">
        <ele>-37.539003</ele>
        <time>2021-03-25T12:48:54.000Z</time>
      </trkpt>
      <trkpt lat="43.6821" lon="-1.42761">
        <ele>-37.528303</ele>
        <time>2021-03-25T12:48:56.000Z</time>
      </trkpt>
      <trkpt lat="43.68227" lon="-1.42783">
        <ele>-37.498034</ele>
        <time>2021-03-25T12:49:03.000Z</time>
      </trkpt>
      <trkpt lat="43.68246" lon="-1.42797">
        <ele>-37.469437</ele>
        <time>2021-03-25T12:49:09.000Z</time>
      </trkpt>
      <trkpt lat="43.68269" lon="-1.42814">
        <ele>-37.436209</ele>
        <time>2021-03-25T12:49:16.000Z</time>
      </trkpt>
      <trkpt lat="43.68279" lon="-1.4282">
        <ele>-37.421443</ele>
        <time>2021-03-25T12:49:20.000Z</time>
      </trkpt>
      <trkpt lat="43.68294" lon="-1.42825">
        <ele>-37.4012</ele>
        <time>2021-03-25T12:49:25.000Z</time>
      </trkpt>
      <trkpt lat="43.68309" lon="-1.42848">
        <ele>-37.309716</ele>
        <time>2021-03-25T12:49:31.000Z</time>
      </trkpt>
      <trkpt lat="43.68316" lon="-1.42861">
        <ele>-37.185686</ele>
        <time>2021-03-25T12:49:36.000Z</time>
      </trkpt>
      <trkpt lat="43.68317" lon="-1.42862">
        <ele>-37.182072</ele>
        <time>2021-03-25T12:49:41.000Z</time>
      </trkpt>
      <trkpt lat="43.68317" lon="-1.42862">
        <ele>-37.182072</ele>
        <time>2021-03-25T12:49:42.000Z</time>
      </trkpt>
      <trkpt lat="43.68317" lon="-1.42862">
        <ele>-37.182072</ele>
        <time>2021-03-25T12:49:48.000Z</time>
      </trkpt>
      <trkpt lat="43.68317" lon="-1.42862">
        <ele>-37.182072</ele>
        <time>2021-03-25T12:49:51.000Z</time>
      </trkpt>
      <trkpt lat="43.68317" lon="-1.42862">
        <ele>-37.182072</ele>
        <time>2021-03-25T12:50:05.000Z</time>
      </trkpt>
      <trkpt lat="43.68317" lon="-1.42862">
        <ele>-37.182072</ele>
        <time>2021-03-25T12:50:08.000Z</time>
      </trkpt>
      <trkpt lat="43.68317" lon="-1.42862">
        <ele>-37.182072</ele>
        <time>2021-03-25T12:50:09.000Z</time>
      </trkpt>
      <trkpt lat="43.68317" lon="-1.42862">
        <ele>-37.182072</ele>
        <time>2021-03-25T12:50:11.000Z</time>
      </trkpt>
      <trkpt lat="43.68316" lon="-1.42861">
        <ele>-37.178459</ele>
        <time>2021-03-25T12:50:21.000Z</time>
      </trkpt>
      <trkpt lat="43.68316" lon="-1.42861">
        <ele>-37.178459</ele>
        <time>2021-03-25T12:50:33.000Z</time>
      </trkpt>
      <trkpt lat="43.68316" lon="-1.42861">
        <ele>-37.178459</ele>
        <time>2021-03-25T12:50:39.000Z</time>
      </trkpt>
      <trkpt lat="43.68316" lon="-1.42861">
        <ele>-37.178459</ele>
        <time>2021-03-25T12:50:42.000Z</time>
      </trkpt>
      <trkpt lat="43.68316" lon="-1.42861">
        <ele>-37.178459</ele>
        <time>2021-03-25T12:50:44.000Z</time>
      </trkpt>
      <trkpt lat="43.68317" lon="-1.42862">
        <ele>-37.17217</ele>
        <time>2021-03-25T12:51:00.000Z</time>
      </trkpt>
      <trkpt lat="43.68317" lon="-1.42862">
        <ele>-37.17217</ele>
        <time>2021-03-25T12:51:03.000Z</time>
      </trkpt>
      <trkpt lat="43.68317" lon="-1.42862">
        <ele>-37.17217</ele>
        <time>2021-03-25T12:51:05.000Z</time>
      </trkpt>
      <trkpt lat="43.68317" lon="-1.42862">
        <ele>-37.17217</ele>
        <time>2021-03-25T12:51:07.000Z</time>
      </trkpt>
      <trkpt lat="43.68317" lon="-1.42862">
        <ele>-37.17217</ele>
        <time>2021-03-25T12:51:11.000Z</time>
      </trkpt>
      <trkpt lat="43.68317" lon="-1.42862">
        <ele>-37.17217</ele>
        <time>2021-03-25T12:51:24.000Z</time>
      </trkpt>
      <trkpt lat="43.68317" lon="-1.42862">
        <ele>-37.170902</ele>
        <time>2021-03-25T12:51:25.000Z</time>
      </trkpt>
      <trkpt lat="43.68319" lon="-1.4287">
        <ele>-37.105465</ele>
        <time>2021-03-25T12:51:29.000Z</time>
      </trkpt>
      <trkpt lat="43.68329" lon="-1.42891">
        <ele>-36.921115</ele>
        <time>2021-03-25T12:51:34.000Z</time>
      </trkpt>
      <trkpt lat="43.68348" lon="-1.4291">
        <ele>-36.683959</ele>
        <time>2021-03-25T12:51:40.000Z</time>
      </trkpt>
      <trkpt lat="43.68369" lon="-1.42913">
        <ele>-36.466968</ele>
        <time>2021-03-25T12:51:45.000Z</time>
      </trkpt>
      <trkpt lat="43.68406" lon="-1.4291">
        <ele>-36.07977</ele>
        <time>2021-03-25T12:51:54.000Z</time>
      </trkpt>
      <trkpt lat="43.68444" lon="-1.42902">
        <ele>-35.68579</ele>
        <time>2021-03-25T12:52:02.000Z</time>
      </trkpt>
      <trkpt lat="43.68457" lon="-1.42903">
        <ele>-35.555199</ele>
        <time>2021-03-25T12:52:05.000Z</time>
      </trkpt>
      <trkpt lat="43.68468" lon="-1.42906">
        <ele>-35.346472</ele>
        <time>2021-03-25T12:52:08.000Z</time>
      </trkpt>
      <trkpt lat="43.68474" lon="-1.42905">
        <ele>-35.226905</ele>
        <time>2021-03-25T12:52:10.000Z</time>
      </trkpt>
      <trkpt lat="43.68485" lon="-1.42904">
        <ele>-35.010203</ele>
        <time>2021-03-25T12:52:13.000Z</time>
      </trkpt>
      <trkpt lat="43.68493" lon="-1.42906">
        <ele>-34.830032</ele>
        <time>2021-03-25T12:52:16.000Z</time>
      </trkpt>
      <trkpt lat="43.68507" lon="-1.42905">
        <ele>-34.555994</ele>
        <time>2021-03-25T12:52:20.000Z</time>
      </trkpt>
      <trkpt lat="43.68509" lon="-1.42905">
        <ele>-34.502131</ele>
        <time>2021-03-25T12:52:21.000Z</time>
      </trkpt>
      <trkpt lat="43.68526" lon="-1.42902">
        <ele>-34.148389</ele>
        <time>2021-03-25T12:52:26.000Z</time>
      </trkpt>
      <trkpt lat="43.68533" lon="-1.42901">
        <ele>-34.007049</ele>
        <time>2021-03-25T12:52:28.000Z</time>
      </trkpt>
      <trkpt lat="43.68544" lon="-1.429">
        <ele>-33.782382</ele>
        <time>2021-03-25T12:52:31.000Z</time>
      </trkpt>
      <trkpt lat="43.68547" lon="-1.429">
        <ele>-33.710181</ele>
        <time>2021-03-25T12:52:32.000Z</time>
      </trkpt>
      <trkpt lat="43.68554" lon="-1.429">
        <ele>-33.578274</ele>
        <time>2021-03-25T12:52:34.000Z</time>
      </trkpt>
      <trkpt lat="43.68573" lon="-1.42894">
        <ele>-33.179194</ele>
        <time>2021-03-25T12:52:40.000Z</time>
      </trkpt>
      <trkpt lat="43.68577" lon="-1.42893">
        <ele>-33.101843</ele>
        <time>2021-03-25T12:52:41.000Z</time>
      </trkpt>
      <trkpt lat="43.68594" lon="-1.42893">
        <ele>-32.74965</ele>
        <time>2021-03-25T12:52:45.000Z</time>
      </trkpt>
      <trkpt lat="43.68628" lon="-1.42888">
        <ele>-32.029432</ele>
        <time>2021-03-25T12:52:53.000Z</time>
      </trkpt>
      <trkpt lat="43.68652" lon="-1.42881">
        <ele>-31.995431</ele>
        <time>2021-03-25T12:52:58.000Z</time>
      </trkpt>
      <trkpt lat="43.68662" lon="-1.42875">
        <ele>-32.127201</ele>
        <time>2021-03-25T12:53:00.000Z</time>
      </trkpt>
      <trkpt lat="43.68667" lon="-1.42873">
        <ele>-32.193597</ele>
        <time>2021-03-25T12:53:01.000Z</time>
      </trkpt>
      <trkpt lat="43.68695" lon="-1.42855">
        <ele>-32.547796</ele>
        <time>2021-03-25T12:53:06.000Z</time>
      </trkpt>
      <trkpt lat="43.68719" lon="-1.42832">
        <ele>-32.901291</ele>
        <time>2021-03-25T12:53:11.000Z</time>
      </trkpt>
      <trkpt lat="43.68723" lon="-1.42826">
        <ele>-32.969538</ele>
        <time>2021-03-25T12:53:12.000Z</time>
      </trkpt>
      <trkpt lat="43.68726" lon="-1.4282">
        <ele>-33.034279</ele>
        <time>2021-03-25T12:53:13.000Z</time>
      </trkpt>
      <trkpt lat="43.68736" lon="-1.42801">
        <ele>-33.231459</ele>
        <time>2021-03-25T12:53:16.000Z</time>
      </trkpt>
      <trkpt lat="43.68752" lon="-1.42777">
        <ele>-33.511584</ele>
        <time>2021-03-25T12:53:22.000Z</time>
      </trkpt>
      <trkpt lat="43.68756" lon="-1.42773">
        <ele>-33.569018</ele>
        <time>2021-03-25T12:53:24.000Z</time>
      </trkpt>
      <trkpt lat="43.68757" lon="-1.42772">
        <ele>-33.584084</ele>
        <time>2021-03-25T12:53:26.000Z</time>
      </trkpt>
      <trkpt lat="43.68757" lon="-1.42772">
        <ele>-33.584084</ele>
        <time>2021-03-25T12:53:34.000Z</time>
      </trkpt>
      <trkpt lat="43.68757" lon="-1.42772">
        <ele>-33.584084</ele>
        <time>2021-03-25T12:53:39.000Z</time>
      </trkpt>
      <trkpt lat="43.68757" lon="-1.42772">
        <ele>-33.584084</ele>
        <time>2021-03-25T12:53:46.000Z</time>
      </trkpt>
      <trkpt lat="43.68757" lon="-1.42772">
        <ele>-33.584084</ele>
        <time>2021-03-25T12:53:47.000Z</time>
      </trkpt>
      <trkpt lat="43.68757" lon="-1.42772">
        <ele>-33.586998</ele>
        <time>2021-03-25T12:53:52.000Z</time>
      </trkpt>
      <trkpt lat="43.68757" lon="-1.42772">
        <ele>-33.586998</ele>
        <time>2021-03-25T12:53:55.000Z</time>
      </trkpt>
      <trkpt lat="43.6876" lon="-1.42769">
        <ele>-33.632137</ele>
        <time>2021-03-25T12:53:58.000Z</time>
      </trkpt>
      <trkpt lat="43.68763" lon="-1.42764">
        <ele>-33.687876</ele>
        <time>2021-03-25T12:54:00.000Z</time>
      </trkpt>
      <trkpt lat="43.68776" lon="-1.42744">
        <ele>-33.914781</ele>
        <time>2021-03-25T12:54:06.000Z</time>
      </trkpt>
      <trkpt lat="43.68789" lon="-1.42726">
        <ele>-33.608701</ele>
        <time>2021-03-25T12:54:10.000Z</time>
      </trkpt>
      <trkpt lat="43.68795" lon="-1.42717">
        <ele>-33.39433</ele>
        <time>2021-03-25T12:54:12.000Z</time>
      </trkpt>
      <trkpt lat="43.68805" lon="-1.42703">
        <ele>-33.059769</ele>
        <time>2021-03-25T12:54:15.000Z</time>
      </trkpt>
      <trkpt lat="43.68816" lon="-1.42684">
        <ele>-32.638834</ele>
        <time>2021-03-25T12:54:19.000Z</time>
      </trkpt>
      <trkpt lat="43.6882" lon="-1.4268">
        <ele>-32.536104</ele>
        <time>2021-03-25T12:54:20.000Z</time>
      </trkpt>
      <trkpt lat="43.68837" lon="-1.42653">
        <ele>-31.936153</ele>
        <time>2021-03-25T12:54:26.000Z</time>
      </trkpt>
      <trkpt lat="43.68844" lon="-1.42641">
        <ele>-31.655944</ele>
        <time>2021-03-25T12:54:29.000Z</time>
      </trkpt>
      <trkpt lat="43.68852" lon="-1.42629">
        <ele>-31.38546</ele>
        <time>2021-03-25T12:54:32.000Z</time>
      </trkpt>
      <trkpt lat="43.68857" lon="-1.42621">
        <ele>-31.210443</ele>
        <time>2021-03-25T12:54:34.000Z</time>
      </trkpt>
      <trkpt lat="43.6886" lon="-1.42618">
        <ele>-31.118126</ele>
        <time>2021-03-25T12:54:35.000Z</time>
      </trkpt>
      <trkpt lat="43.68871" lon="-1.42603">
        <ele>-30.764493</ele>
        <time>2021-03-25T12:54:39.000Z</time>
      </trkpt>
      <trkpt lat="43.68876" lon="-1.42596">
        <ele>-30.599867</ele>
        <time>2021-03-25T12:54:41.000Z</time>
      </trkpt>
      <trkpt lat="43.68886" lon="-1.42582">
        <ele>-30.270604</ele>
        <time>2021-03-25T12:54:45.000Z</time>
      </trkpt>
      <trkpt lat="43.68892" lon="-1.42561">
        <ele>-29.887118</ele>
        <time>2021-03-25T12:54:50.000Z</time>
      </trkpt>
      <trkpt lat="43.68892" lon="-1.42559">
        <ele>-29.855867</ele>
        <time>2021-03-25T12:54:51.000Z</time>
      </trkpt>
      <trkpt lat="43.68891" lon="-1.42557">
        <ele>-29.815202</ele>
        <time>2021-03-25T12:54:54.000Z</time>
      </trkpt>
      <trkpt lat="43.68891" lon="-1.42557">
        <ele>-29.808041</ele>
        <time>2021-03-25T12:54:57.000Z</time>
      </trkpt>
      <trkpt lat="43.68891" lon="-1.42557">
        <ele>-29.808041</ele>
        <time>2021-03-25T12:55:00.000Z</time>
      </trkpt>
      <trkpt lat="43.68891" lon="-1.42557">
        <ele>-29.808041</ele>
        <time>2021-03-25T12:55:04.000Z</time>
      </trkpt>
      <trkpt lat="43.68891" lon="-1.42557">
        <ele>-29.808041</ele>
        <time>2021-03-25T12:55:07.000Z</time>
      </trkpt>
      <trkpt lat="43.68891" lon="-1.42557">
        <ele>-29.808041</ele>
        <time>2021-03-25T12:55:12.000Z</time>
      </trkpt>
      <trkpt lat="43.68891" lon="-1.42557">
        <ele>-29.808041</ele>
        <time>2021-03-25T12:55:15.000Z</time>
      </trkpt>
      <trkpt lat="43.68891" lon="-1.42557">
        <ele>-29.808041</ele>
        <time>2021-03-25T12:55:24.000Z</time>
      </trkpt>
      <trkpt lat="43.68892" lon="-1.42555">
        <ele>-29.772934</ele>
        <time>2021-03-25T12:55:27.000Z</time>
      </trkpt>
      <trkpt lat="43.68894" lon="-1.42545">
        <ele>-29.78648</ele>
        <time>2021-03-25T12:55:30.000Z</time>
      </trkpt>
      <trkpt lat="43.68905" lon="-1.42534">
        <ele>-29.882697</ele>
        <time>2021-03-25T12:55:34.000Z</time>
      </trkpt>
      <trkpt lat="43.68927" lon="-1.42534">
        <ele>-30.032967</ele>
        <time>2021-03-25T12:55:39.000Z</time>
      </trkpt>
      <trkpt lat="43.68937" lon="-1.42534">
        <ele>-30.097465</ele>
        <time>2021-03-25T12:55:41.000Z</time>
      </trkpt>
      <trkpt lat="43.68952" lon="-1.42535">
        <ele>-30.202733</ele>
        <time>2021-03-25T12:55:44.000Z</time>
      </trkpt>
      <trkpt lat="43.68967" lon="-1.42536">
        <ele>-30.306349</ele>
        <time>2021-03-25T12:55:47.000Z</time>
      </trkpt>
      <trkpt lat="43.68972" lon="-1.42536">
        <ele>-30.342055</ele>
        <time>2021-03-25T12:55:48.000Z</time>
      </trkpt>
      <trkpt lat="43.68989" lon="-1.42538">
        <ele>-30.46036</ele>
        <time>2021-03-25T12:55:51.000Z</time>
      </trkpt>
      <trkpt lat="43.69002" lon="-1.42538">
        <ele>-30.548863</ele>
        <time>2021-03-25T12:55:53.000Z</time>
      </trkpt>
      <trkpt lat="43.69009" lon="-1.42539">
        <ele>-30.594318</ele>
        <time>2021-03-25T12:55:54.000Z</time>
      </trkpt>
      <trkpt lat="43.69015" lon="-1.42539">
        <ele>-30.633452</ele>
        <time>2021-03-25T12:55:55.000Z</time>
      </trkpt>
      <trkpt lat="43.69033" lon="-1.42537">
        <ele>-30.75714</ele>
        <time>2021-03-25T12:55:58.000Z</time>
      </trkpt>
      <trkpt lat="43.6904" lon="-1.42539">
        <ele>-30.805507</ele>
        <time>2021-03-25T12:55:59.000Z</time>
      </trkpt>
      <trkpt lat="43.69052" lon="-1.42538">
        <ele>-30.893493</ele>
        <time>2021-03-25T12:56:01.000Z</time>
      </trkpt>
      <trkpt lat="43.69057" lon="-1.42539">
        <ele>-30.927169</ele>
        <time>2021-03-25T12:56:02.000Z</time>
      </trkpt>
      <trkpt lat="43.69095" lon="-1.42538">
        <ele>-31.226895</ele>
        <time>2021-03-25T12:56:08.000Z</time>
      </trkpt>
      <trkpt lat="43.69107" lon="-1.42538">
        <ele>-31.319942</ele>
        <time>2021-03-25T12:56:10.000Z</time>
      </trkpt>
      <trkpt lat="43.69115" lon="-1.4254">
        <ele>-31.393629</ele>
        <time>2021-03-25T12:56:12.000Z</time>
      </trkpt>
      <trkpt lat="43.69121" lon="-1.42541">
        <ele>-31.438903</ele>
        <time>2021-03-25T12:56:13.000Z</time>
      </trkpt>
      <trkpt lat="43.69127" lon="-1.42542">
        <ele>-31.48897</ele>
        <time>2021-03-25T12:56:14.000Z</time>
      </trkpt>
      <trkpt lat="43.69138" lon="-1.42543">
        <ele>-31.579685</ele>
        <time>2021-03-25T12:56:16.000Z</time>
      </trkpt>
      <trkpt lat="43.69148" lon="-1.42543">
        <ele>-31.66294</ele>
        <time>2021-03-25T12:56:18.000Z</time>
      </trkpt>
      <trkpt lat="43.69162" lon="-1.42542">
        <ele>-31.777297</ele>
        <time>2021-03-25T12:56:21.000Z</time>
      </trkpt>
      <trkpt lat="43.69182" lon="-1.42541">
        <ele>-31.93813</ele>
        <time>2021-03-25T12:56:25.000Z</time>
      </trkpt>
      <trkpt lat="43.69213" lon="-1.42539">
        <ele>-32.189901</ele>
        <time>2021-03-25T12:56:31.000Z</time>
      </trkpt>
      <trkpt lat="43.6923" lon="-1.42538">
        <ele>-32.327982</ele>
        <time>2021-03-25T12:56:34.000Z</time>
      </trkpt>
      <trkpt lat="43.69247" lon="-1.42535">
        <ele>-32.448189</ele>
        <time>2021-03-25T12:56:37.000Z</time>
      </trkpt>
      <trkpt lat="43.69258" lon="-1.42532">
        <ele>-32.454909</ele>
        <time>2021-03-25T12:56:39.000Z</time>
      </trkpt>
      <trkpt lat="43.69266" lon="-1.42525">
        <ele>-32.460942</ele>
        <time>2021-03-25T12:56:41.000Z</time>
      </trkpt>
      <trkpt lat="43.69272" lon="-1.42517">
        <ele>-32.466165</ele>
        <time>2021-03-25T12:56:43.000Z</time>
      </trkpt>
      <trkpt lat="43.69276" lon="-1.42514">
        <ele>-32.469002</ele>
        <time>2021-03-25T12:56:44.000Z</time>
      </trkpt>
      <trkpt lat="43.69286" lon="-1.42513">
        <ele>-32.475106</ele>
        <time>2021-03-25T12:56:46.000Z</time>
      </trkpt>
      <trkpt lat="43.69294" lon="-1.42515">
        <ele>-32.480473</ele>
        <time>2021-03-25T12:56:48.000Z</time>
      </trkpt>
      <trkpt lat="43.69301" lon="-1.42519">
        <ele>-32.485296</ele>
        <time>2021-03-25T12:56:50.000Z</time>
      </trkpt>
      <trkpt lat="43.69305" lon="-1.42522">
        <ele>-32.488323</ele>
        <time>2021-03-25T12:56:52.000Z</time>
      </trkpt>
      <trkpt lat="43.69311" lon="-1.42522">
        <ele>-32.491771</ele>
        <time>2021-03-25T12:56:54.000Z</time>
      </trkpt>
      <trkpt lat="43.69323" lon="-1.42527">
        <ele>-32.499819</ele>
        <time>2021-03-25T12:56:58.000Z</time>
      </trkpt>
      <trkpt lat="43.69327" lon="-1.4253">
        <ele>-32.502685</ele>
        <time>2021-03-25T12:56:59.000Z</time>
      </trkpt>
      <trkpt lat="43.69334" lon="-1.42533">
        <ele>-32.506847</ele>
        <time>2021-03-25T12:57:01.000Z</time>
      </trkpt>
      <trkpt lat="43.69345" lon="-1.42537">
        <ele>-32.51443</ele>
        <time>2021-03-25T12:57:04.000Z</time>
      </trkpt>
      <trkpt lat="43.6935" lon="-1.42538">
        <ele>-32.517241</ele>
        <time>2021-03-25T12:57:05.000Z</time>
      </trkpt>
      <trkpt lat="43.69355" lon="-1.42538">
        <ele>-32.520756</ele>
        <time>2021-03-25T12:57:06.000Z</time>
      </trkpt>
      <trkpt lat="43.69368" lon="-1.4254">
        <ele>-32.528835</ele>
        <time>2021-03-25T12:57:09.000Z</time>
      </trkpt>
      <trkpt lat="43.69389" lon="-1.42542">
        <ele>-32.541895</ele>
        <time>2021-03-25T12:57:13.000Z</time>
      </trkpt>
      <trkpt lat="43.69393" lon="-1.42541">
        <ele>-32.544689</ele>
        <time>2021-03-25T12:57:14.000Z</time>
      </trkpt>
      <trkpt lat="43.69407" lon="-1.42538">
        <ele>-32.553074</ele>
        <time>2021-03-25T12:57:17.000Z</time>
      </trkpt>
      <trkpt lat="43.69413" lon="-1.42538">
        <ele>-32.556898</ele>
        <time>2021-03-25T12:57:18.000Z</time>
      </trkpt>
      <trkpt lat="43.69419" lon="-1.42538">
        <ele>-32.539251</ele>
        <time>2021-03-25T12:57:19.000Z</time>
      </trkpt>
      <trkpt lat="43.69425" lon="-1.42538">
        <ele>-32.499772</ele>
        <time>2021-03-25T12:57:20.000Z</time>
      </trkpt>
      <trkpt lat="43.6944" lon="-1.42538">
        <ele>-32.398377</ele>
        <time>2021-03-25T12:57:23.000Z</time>
      </trkpt>
      <trkpt lat="43.69445" lon="-1.42538">
        <ele>-32.365039</ele>
        <time>2021-03-25T12:57:24.000Z</time>
      </trkpt>
      <trkpt lat="43.69459" lon="-1.4254">
        <ele>-32.272972</ele>
        <time>2021-03-25T12:57:27.000Z</time>
      </trkpt>
      <trkpt lat="43.69473" lon="-1.4254">
        <ele>-32.175633</ele>
        <time>2021-03-25T12:57:30.000Z</time>
      </trkpt>
      <trkpt lat="43.69496" lon="-1.42541">
        <ele>-32.026199</ele>
        <time>2021-03-25T12:57:36.000Z</time>
      </trkpt>
      <trkpt lat="43.69516" lon="-1.42539">
        <ele>-31.890899</ele>
        <time>2021-03-25T12:57:42.000Z</time>
      </trkpt>
      <trkpt lat="43.69541" lon="-1.42537">
        <ele>-31.72344</ele>
        <time>2021-03-25T12:57:48.000Z</time>
      </trkpt>
      <trkpt lat="43.69562" lon="-1.42537">
        <ele>-31.586097</ele>
        <time>2021-03-25T12:57:53.000Z</time>
      </trkpt>
      <trkpt lat="43.69581" lon="-1.4254">
        <ele>-31.454914</ele>
        <time>2021-03-25T12:57:57.000Z</time>
      </trkpt>
      <trkpt lat="43.69589" lon="-1.42539">
        <ele>-31.403433</ele>
        <time>2021-03-25T12:57:59.000Z</time>
      </trkpt>
      <trkpt lat="43.69593" lon="-1.42539">
        <ele>-31.372705</ele>
        <time>2021-03-25T12:58:00.000Z</time>
      </trkpt>
      <trkpt lat="43.69599" lon="-1.42539">
        <ele>-31.359728</ele>
        <time>2021-03-25T12:58:01.000Z</time>
      </trkpt>
      <trkpt lat="43.69608" lon="-1.42538">
        <ele>-31.359728</ele>
        <time>2021-03-25T12:58:03.000Z</time>
      </trkpt>
      <trkpt lat="43.69619" lon="-1.42538">
        <ele>-31.359728</ele>
        <time>2021-03-25T12:58:05.000Z</time>
      </trkpt>
      <trkpt lat="43.69646" lon="-1.4254">
        <ele>-31.359728</ele>
        <time>2021-03-25T12:58:11.000Z</time>
      </trkpt>
      <trkpt lat="43.69689" lon="-1.42539">
        <ele>-31.359728</ele>
        <time>2021-03-25T12:58:20.000Z</time>
      </trkpt>
      <trkpt lat="43.69693" lon="-1.42539">
        <ele>-31.359728</ele>
        <time>2021-03-25T12:58:21.000Z</time>
      </trkpt>
      <trkpt lat="43.69709" lon="-1.4253">
        <ele>-31.359728</ele>
        <time>2021-03-25T12:58:25.000Z</time>
      </trkpt>
      <trkpt lat="43.69734" lon="-1.42513">
        <ele>-31.359728</ele>
        <time>2021-03-25T12:58:31.000Z</time>
      </trkpt>
      <trkpt lat="43.69737" lon="-1.42509">
        <ele>-31.359728</ele>
        <time>2021-03-25T12:58:32.000Z</time>
      </trkpt>
      <trkpt lat="43.69755" lon="-1.42492">
        <ele>-31.359728</ele>
        <time>2021-03-25T12:58:37.000Z</time>
      </trkpt>
      <trkpt lat="43.69757" lon="-1.42487">
        <ele>-31.359728</ele>
        <time>2021-03-25T12:58:38.000Z</time>
      </trkpt>
      <trkpt lat="43.69759" lon="-1.42483">
        <ele>-31.359728</ele>
        <time>2021-03-25T12:58:39.000Z</time>
      </trkpt>
      <trkpt lat="43.69761" lon="-1.42479">
        <ele>-31.359728</ele>
        <time>2021-03-25T12:58:40.000Z</time>
      </trkpt>
    </trkseg>
  </trk>
</gpx>